<?xml version="1.0" encoding="UTF-8" standalone="no" ?>
<gpx xmlns="http://www.topografix.com/GPX/1/1" xmlns:xsi="http://www.w3.org/2001/XMLSchema-instance" xsi:schemaLocation="http://www.topografix.com/GPX/1/1 http://www.topografix.com/GPX/1/1/gpx.xsd" version="1.1" creator="VisuGPX - https://www.visugpx.com">
  <metadata>
    <name>Trace Salleboeuf Courte 020619</name>
  </metadata>
  <trk>
    <name><![CDATA[Trace Salleboeuf Courte 020619]]></name>
    <trkseg>
      <trkpt lat="44.84275" lon="-0.39381">
        <ele>67.73</ele>
        <time>2019-06-02T12:00:09Z</time>
      </trkpt>
      <trkpt lat="44.84277" lon="-0.39381">
        <ele>67.73</ele>
        <time>2019-06-02T12:00:10Z</time>
      </trkpt>
      <trkpt lat="44.84282" lon="-0.39384">
        <ele>67.72</ele>
        <time>2019-06-02T12:00:14Z</time>
      </trkpt>
      <trkpt lat="44.84285" lon="-0.39387">
        <ele>70.49</ele>
        <time>2019-06-02T12:00:17Z</time>
      </trkpt>
      <trkpt lat="44.84285" lon="-0.3939">
        <ele>70.5</ele>
        <time>2019-06-02T12:00:19Z</time>
      </trkpt>
      <trkpt lat="44.84286" lon="-0.39399">
        <ele>70.44</ele>
        <time>2019-06-02T12:00:34Z</time>
      </trkpt>
      <trkpt lat="44.84285" lon="-0.394">
        <ele>69.18</ele>
        <time>2019-06-02T12:01:09Z</time>
      </trkpt>
      <trkpt lat="44.84283" lon="-0.39399">
        <ele>68.87</ele>
        <time>2019-06-02T12:01:56Z</time>
      </trkpt>
      <trkpt lat="44.84283" lon="-0.39398">
        <ele>68.52</ele>
        <time>2019-06-02T12:02:44Z</time>
      </trkpt>
      <trkpt lat="44.84284" lon="-0.39397">
        <ele>68.32</ele>
        <time>2019-06-02T12:03:09Z</time>
      </trkpt>
      <trkpt lat="44.84281" lon="-0.3939">
        <ele>68.27</ele>
        <time>2019-06-02T12:03:13Z</time>
      </trkpt>
      <trkpt lat="44.84278" lon="-0.39388">
        <ele>68.26</ele>
        <time>2019-06-02T12:03:14Z</time>
      </trkpt>
      <trkpt lat="44.84275" lon="-0.39387">
        <ele>68.25</ele>
        <time>2019-06-02T12:03:15Z</time>
      </trkpt>
      <trkpt lat="44.84272" lon="-0.39385">
        <ele>68.24</ele>
        <time>2019-06-02T12:03:16Z</time>
      </trkpt>
      <trkpt lat="44.84268" lon="-0.39384">
        <ele>68.22</ele>
        <time>2019-06-02T12:03:18Z</time>
      </trkpt>
      <trkpt lat="44.84266" lon="-0.39385">
        <ele>68.21</ele>
        <time>2019-06-02T12:03:19Z</time>
      </trkpt>
      <trkpt lat="44.84264" lon="-0.39383">
        <ele>68.16</ele>
        <time>2019-06-02T12:03:30Z</time>
      </trkpt>
      <trkpt lat="44.84265" lon="-0.39383">
        <ele>67.79</ele>
        <time>2019-06-02T12:04:24Z</time>
      </trkpt>
      <trkpt lat="44.84266" lon="-0.39389">
        <ele>67.66</ele>
        <time>2019-06-02T12:05:16Z</time>
      </trkpt>
      <trkpt lat="44.84271" lon="-0.39393">
        <ele>67.62</ele>
        <time>2019-06-02T12:06:00Z</time>
      </trkpt>
      <trkpt lat="44.84272" lon="-0.39393">
        <ele>67.62</ele>
        <time>2019-06-02T12:06:01Z</time>
      </trkpt>
      <trkpt lat="44.84273" lon="-0.39393">
        <ele>67.62</ele>
        <time>2019-06-02T12:06:02Z</time>
      </trkpt>
      <trkpt lat="44.84275" lon="-0.39391">
        <ele>67.62</ele>
        <time>2019-06-02T12:06:03Z</time>
      </trkpt>
      <trkpt lat="44.84277" lon="-0.39389">
        <ele>67.61</ele>
        <time>2019-06-02T12:06:04Z</time>
      </trkpt>
      <trkpt lat="44.84276" lon="-0.39387">
        <ele>67.61</ele>
        <time>2019-06-02T12:06:05Z</time>
      </trkpt>
      <trkpt lat="44.84274" lon="-0.39385">
        <ele>67.61</ele>
        <time>2019-06-02T12:06:06Z</time>
      </trkpt>
      <trkpt lat="44.84272" lon="-0.39385">
        <ele>67.61</ele>
        <time>2019-06-02T12:06:07Z</time>
      </trkpt>
      <trkpt lat="44.8427" lon="-0.39386">
        <ele>67.61</ele>
        <time>2019-06-02T12:06:08Z</time>
      </trkpt>
      <trkpt lat="44.84268" lon="-0.39387">
        <ele>67.6</ele>
        <time>2019-06-02T12:06:09Z</time>
      </trkpt>
      <trkpt lat="44.84266" lon="-0.39388">
        <ele>67.6</ele>
        <time>2019-06-02T12:06:10Z</time>
      </trkpt>
      <trkpt lat="44.84264" lon="-0.39389">
        <ele>67.6</ele>
        <time>2019-06-02T12:06:11Z</time>
      </trkpt>
      <trkpt lat="44.84248" lon="-0.39393">
        <ele>67.58</ele>
        <time>2019-06-02T12:06:24Z</time>
      </trkpt>
      <trkpt lat="44.84244" lon="-0.39383">
        <ele>67.46</ele>
        <time>2019-06-02T12:06:52Z</time>
      </trkpt>
      <trkpt lat="44.84246" lon="-0.39382">
        <ele>67.45</ele>
        <time>2019-06-02T12:06:53Z</time>
      </trkpt>
      <trkpt lat="44.84248" lon="-0.39382">
        <ele>67.45</ele>
        <time>2019-06-02T12:06:54Z</time>
      </trkpt>
      <trkpt lat="44.8425" lon="-0.39382">
        <ele>67.44</ele>
        <time>2019-06-02T12:06:55Z</time>
      </trkpt>
      <trkpt lat="44.84253" lon="-0.39382">
        <ele>67.44</ele>
        <time>2019-06-02T12:06:56Z</time>
      </trkpt>
      <trkpt lat="44.84285" lon="-0.39394">
        <ele>67.38</ele>
        <time>2019-06-02T12:07:08Z</time>
      </trkpt>
      <trkpt lat="44.84286" lon="-0.39397">
        <ele>67.38</ele>
        <time>2019-06-02T12:07:09Z</time>
      </trkpt>
      <trkpt lat="44.84287" lon="-0.39399">
        <ele>67.37</ele>
        <time>2019-06-02T12:07:10Z</time>
      </trkpt>
      <trkpt lat="44.84288" lon="-0.39401">
        <ele>67.35</ele>
        <time>2019-06-02T12:07:11Z</time>
      </trkpt>
      <trkpt lat="44.84288" lon="-0.39403">
        <ele>67.34</ele>
        <time>2019-06-02T12:07:12Z</time>
      </trkpt>
      <trkpt lat="44.84287" lon="-0.39405">
        <ele>67.34</ele>
        <time>2019-06-02T12:07:14Z</time>
      </trkpt>
      <trkpt lat="44.84286" lon="-0.39401">
        <ele>67.33</ele>
        <time>2019-06-02T12:07:18Z</time>
      </trkpt>
      <trkpt lat="44.84286" lon="-0.394">
        <ele>67.35</ele>
        <time>2019-06-02T12:07:19Z</time>
      </trkpt>
      <trkpt lat="44.84282" lon="-0.39397">
        <ele>70.82</ele>
        <time>2019-06-02T12:07:32Z</time>
      </trkpt>
      <trkpt lat="44.84282" lon="-0.39397">
        <ele>70.81</ele>
        <time>2019-06-02T12:07:33Z</time>
      </trkpt>
      <trkpt lat="44.84282" lon="-0.39397">
        <ele>68.43</ele>
        <time>2019-06-02T12:07:42Z</time>
      </trkpt>
      <trkpt lat="44.84282" lon="-0.39395">
        <ele>68.36</ele>
        <time>2019-06-02T12:07:45Z</time>
      </trkpt>
      <trkpt lat="44.84283" lon="-0.39393">
        <ele>68.36</ele>
        <time>2019-06-02T12:07:46Z</time>
      </trkpt>
      <trkpt lat="44.84284" lon="-0.39393">
        <ele>68.39</ele>
        <time>2019-06-02T12:07:47Z</time>
      </trkpt>
      <trkpt lat="44.84285" lon="-0.39395">
        <ele>68.36</ele>
        <time>2019-06-02T12:07:48Z</time>
      </trkpt>
      <trkpt lat="44.84285" lon="-0.39397">
        <ele>68.35</ele>
        <time>2019-06-02T12:07:49Z</time>
      </trkpt>
      <trkpt lat="44.84286" lon="-0.39399">
        <ele>68.36</ele>
        <time>2019-06-02T12:07:50Z</time>
      </trkpt>
      <trkpt lat="44.84287" lon="-0.394">
        <ele>68.34</ele>
        <time>2019-06-02T12:07:51Z</time>
      </trkpt>
      <trkpt lat="44.84287" lon="-0.39402">
        <ele>68.34</ele>
        <time>2019-06-02T12:07:52Z</time>
      </trkpt>
      <trkpt lat="44.84287" lon="-0.39403">
        <ele>68.33</ele>
        <time>2019-06-02T12:07:53Z</time>
      </trkpt>
      <trkpt lat="44.84288" lon="-0.39405">
        <ele>68.33</ele>
        <time>2019-06-02T12:07:54Z</time>
      </trkpt>
      <trkpt lat="44.84289" lon="-0.39405">
        <ele>68.32</ele>
        <time>2019-06-02T12:07:55Z</time>
      </trkpt>
      <trkpt lat="44.8429" lon="-0.39404">
        <ele>68.31</ele>
        <time>2019-06-02T12:07:56Z</time>
      </trkpt>
      <trkpt lat="44.8429" lon="-0.39402">
        <ele>68.31</ele>
        <time>2019-06-02T12:07:57Z</time>
      </trkpt>
      <trkpt lat="44.84288" lon="-0.39401">
        <ele>68.31</ele>
        <time>2019-06-02T12:07:58Z</time>
      </trkpt>
      <trkpt lat="44.84286" lon="-0.394">
        <ele>68.31</ele>
        <time>2019-06-02T12:07:59Z</time>
      </trkpt>
      <trkpt lat="44.84268" lon="-0.39383">
        <ele>68.29</ele>
        <time>2019-06-02T12:08:12Z</time>
      </trkpt>
      <trkpt lat="44.84263" lon="-0.39381">
        <ele>68.24</ele>
        <time>2019-06-02T12:08:18Z</time>
      </trkpt>
      <trkpt lat="44.84262" lon="-0.39381">
        <ele>68.23</ele>
        <time>2019-06-02T12:08:19Z</time>
      </trkpt>
      <trkpt lat="44.84261" lon="-0.39382">
        <ele>68.23</ele>
        <time>2019-06-02T12:08:20Z</time>
      </trkpt>
      <trkpt lat="44.84259" lon="-0.39382">
        <ele>68.22</ele>
        <time>2019-06-02T12:08:21Z</time>
      </trkpt>
      <trkpt lat="44.84257" lon="-0.39383">
        <ele>68.21</ele>
        <time>2019-06-02T12:08:22Z</time>
      </trkpt>
      <trkpt lat="44.84255" lon="-0.39383">
        <ele>68.21</ele>
        <time>2019-06-02T12:08:23Z</time>
      </trkpt>
      <trkpt lat="44.84254" lon="-0.39383">
        <ele>68.2</ele>
        <time>2019-06-02T12:08:24Z</time>
      </trkpt>
      <trkpt lat="44.84252" lon="-0.39384">
        <ele>68.19</ele>
        <time>2019-06-02T12:08:25Z</time>
      </trkpt>
      <trkpt lat="44.84242" lon="-0.39384">
        <ele>68.14</ele>
        <time>2019-06-02T12:08:32Z</time>
      </trkpt>
      <trkpt lat="44.8424" lon="-0.39382">
        <ele>68.13</ele>
        <time>2019-06-02T12:08:33Z</time>
      </trkpt>
      <trkpt lat="44.8424" lon="-0.39381">
        <ele>68.12</ele>
        <time>2019-06-02T12:08:34Z</time>
      </trkpt>
      <trkpt lat="44.84239" lon="-0.39379">
        <ele>68.12</ele>
        <time>2019-06-02T12:08:35Z</time>
      </trkpt>
      <trkpt lat="44.84239" lon="-0.39376">
        <ele>68.11</ele>
        <time>2019-06-02T12:08:36Z</time>
      </trkpt>
      <trkpt lat="44.84239" lon="-0.39374">
        <ele>68.11</ele>
        <time>2019-06-02T12:08:37Z</time>
      </trkpt>
      <trkpt lat="44.84241" lon="-0.39372">
        <ele>68.11</ele>
        <time>2019-06-02T12:08:38Z</time>
      </trkpt>
      <trkpt lat="44.84243" lon="-0.39371">
        <ele>68.1</ele>
        <time>2019-06-02T12:08:39Z</time>
      </trkpt>
      <trkpt lat="44.84245" lon="-0.39371">
        <ele>68.09</ele>
        <time>2019-06-02T12:08:40Z</time>
      </trkpt>
      <trkpt lat="44.84248" lon="-0.3937">
        <ele>68.08</ele>
        <time>2019-06-02T12:08:41Z</time>
      </trkpt>
      <trkpt lat="44.84263" lon="-0.3937">
        <ele>68.05</ele>
        <time>2019-06-02T12:08:46Z</time>
      </trkpt>
      <trkpt lat="44.84264" lon="-0.39374">
        <ele>68.05</ele>
        <time>2019-06-02T12:08:48Z</time>
      </trkpt>
      <trkpt lat="44.84266" lon="-0.39379">
        <ele>67.96</ele>
        <time>2019-06-02T12:08:59Z</time>
      </trkpt>
      <trkpt lat="44.84268" lon="-0.39382">
        <ele>67.94</ele>
        <time>2019-06-02T12:09:01Z</time>
      </trkpt>
      <trkpt lat="44.84275" lon="-0.39385">
        <ele>67.92</ele>
        <time>2019-06-02T12:09:05Z</time>
      </trkpt>
      <trkpt lat="44.84286" lon="-0.39385">
        <ele>67.86</ele>
        <time>2019-06-02T12:09:13Z</time>
      </trkpt>
      <trkpt lat="44.84286" lon="-0.39394">
        <ele>67.81</ele>
        <time>2019-06-02T12:09:21Z</time>
      </trkpt>
      <trkpt lat="44.84283" lon="-0.39398">
        <ele>67.7</ele>
        <time>2019-06-02T12:09:35Z</time>
      </trkpt>
      <trkpt lat="44.84276" lon="-0.39389">
        <ele>67.64</ele>
        <time>2019-06-02T12:09:42Z</time>
      </trkpt>
      <trkpt lat="44.84267" lon="-0.39387">
        <ele>67.59</ele>
        <time>2019-06-02T12:09:50Z</time>
      </trkpt>
      <trkpt lat="44.8425" lon="-0.39392">
        <ele>67.5</ele>
        <time>2019-06-02T12:10:01Z</time>
      </trkpt>
      <trkpt lat="44.84254" lon="-0.3939">
        <ele>67.47</ele>
        <time>2019-06-02T12:10:04Z</time>
      </trkpt>
      <trkpt lat="44.84256" lon="-0.3939">
        <ele>67.46</ele>
        <time>2019-06-02T12:10:05Z</time>
      </trkpt>
      <trkpt lat="44.84258" lon="-0.3939">
        <ele>67.45</ele>
        <time>2019-06-02T12:10:06Z</time>
      </trkpt>
      <trkpt lat="44.84285" lon="-0.39401">
        <ele>67.37</ele>
        <time>2019-06-02T12:10:19Z</time>
      </trkpt>
      <trkpt lat="44.84285" lon="-0.39403">
        <ele>67.37</ele>
        <time>2019-06-02T12:10:20Z</time>
      </trkpt>
      <trkpt lat="44.84284" lon="-0.39405">
        <ele>67.35</ele>
        <time>2019-06-02T12:10:21Z</time>
      </trkpt>
      <trkpt lat="44.84284" lon="-0.39408">
        <ele>67.34</ele>
        <time>2019-06-02T12:10:23Z</time>
      </trkpt>
      <trkpt lat="44.84284" lon="-0.39409">
        <ele>67.34</ele>
        <time>2019-06-02T12:10:24Z</time>
      </trkpt>
      <trkpt lat="44.84286" lon="-0.3941">
        <ele>67.33</ele>
        <time>2019-06-02T12:10:25Z</time>
      </trkpt>
      <trkpt lat="44.84287" lon="-0.39409">
        <ele>67.32</ele>
        <time>2019-06-02T12:10:26Z</time>
      </trkpt>
      <trkpt lat="44.84287" lon="-0.39407">
        <ele>67.31</ele>
        <time>2019-06-02T12:10:27Z</time>
      </trkpt>
      <trkpt lat="44.84287" lon="-0.39405">
        <ele>67.3</ele>
        <time>2019-06-02T12:10:28Z</time>
      </trkpt>
      <trkpt lat="44.84286" lon="-0.39404">
        <ele>67.29</ele>
        <time>2019-06-02T12:10:29Z</time>
      </trkpt>
      <trkpt lat="44.84276" lon="-0.39389">
        <ele>67.17</ele>
        <time>2019-06-02T12:10:42Z</time>
      </trkpt>
      <trkpt lat="44.84276" lon="-0.39387">
        <ele>67.17</ele>
        <time>2019-06-02T12:10:43Z</time>
      </trkpt>
      <trkpt lat="44.84276" lon="-0.39385">
        <ele>67.16</ele>
        <time>2019-06-02T12:10:44Z</time>
      </trkpt>
      <trkpt lat="44.84277" lon="-0.39383">
        <ele>67.15</ele>
        <time>2019-06-02T12:10:45Z</time>
      </trkpt>
      <trkpt lat="44.84279" lon="-0.39382">
        <ele>67.15</ele>
        <time>2019-06-02T12:10:46Z</time>
      </trkpt>
      <trkpt lat="44.8428" lon="-0.39381">
        <ele>67.15</ele>
        <time>2019-06-02T12:10:47Z</time>
      </trkpt>
      <trkpt lat="44.84282" lon="-0.39381">
        <ele>67.14</ele>
        <time>2019-06-02T12:10:48Z</time>
      </trkpt>
      <trkpt lat="44.84283" lon="-0.39382">
        <ele>67.14</ele>
        <time>2019-06-02T12:10:49Z</time>
      </trkpt>
      <trkpt lat="44.84284" lon="-0.39383">
        <ele>67.12</ele>
        <time>2019-06-02T12:10:50Z</time>
      </trkpt>
      <trkpt lat="44.84285" lon="-0.39385">
        <ele>67.12</ele>
        <time>2019-06-02T12:10:51Z</time>
      </trkpt>
      <trkpt lat="44.84285" lon="-0.39387">
        <ele>67.12</ele>
        <time>2019-06-02T12:10:52Z</time>
      </trkpt>
      <trkpt lat="44.84284" lon="-0.39388">
        <ele>67.11</ele>
        <time>2019-06-02T12:10:53Z</time>
      </trkpt>
      <trkpt lat="44.84284" lon="-0.3939">
        <ele>67.1</ele>
        <time>2019-06-02T12:10:54Z</time>
      </trkpt>
      <trkpt lat="44.84282" lon="-0.39391">
        <ele>67.09</ele>
        <time>2019-06-02T12:10:55Z</time>
      </trkpt>
      <trkpt lat="44.8428" lon="-0.39391">
        <ele>67.08</ele>
        <time>2019-06-02T12:10:56Z</time>
      </trkpt>
      <trkpt lat="44.84279" lon="-0.39391">
        <ele>67.07</ele>
        <time>2019-06-02T12:10:57Z</time>
      </trkpt>
      <trkpt lat="44.84277" lon="-0.3939">
        <ele>67.06</ele>
        <time>2019-06-02T12:10:58Z</time>
      </trkpt>
      <trkpt lat="44.84277" lon="-0.39389">
        <ele>67.05</ele>
        <time>2019-06-02T12:10:59Z</time>
      </trkpt>
      <trkpt lat="44.84277" lon="-0.39387">
        <ele>67.04</ele>
        <time>2019-06-02T12:11:00Z</time>
      </trkpt>
      <trkpt lat="44.84277" lon="-0.39385">
        <ele>67.04</ele>
        <time>2019-06-02T12:11:01Z</time>
      </trkpt>
      <trkpt lat="44.84279" lon="-0.39384">
        <ele>67.03</ele>
        <time>2019-06-02T12:11:02Z</time>
      </trkpt>
      <trkpt lat="44.8428" lon="-0.39383">
        <ele>67.03</ele>
        <time>2019-06-02T12:11:03Z</time>
      </trkpt>
      <trkpt lat="44.84281" lon="-0.39383">
        <ele>67.02</ele>
        <time>2019-06-02T12:11:04Z</time>
      </trkpt>
      <trkpt lat="44.84282" lon="-0.39384">
        <ele>67.01</ele>
        <time>2019-06-02T12:11:05Z</time>
      </trkpt>
      <trkpt lat="44.84287" lon="-0.39387">
        <ele>66.95</ele>
        <time>2019-06-02T12:11:13Z</time>
      </trkpt>
      <trkpt lat="44.84288" lon="-0.39376">
        <ele>66.95</ele>
        <time>2019-06-02T12:11:19Z</time>
      </trkpt>
      <trkpt lat="44.84289" lon="-0.39374">
        <ele>66.94</ele>
        <time>2019-06-02T12:11:20Z</time>
      </trkpt>
      <trkpt lat="44.84288" lon="-0.39364">
        <ele>66.92</ele>
        <time>2019-06-02T12:11:23Z</time>
      </trkpt>
      <trkpt lat="44.84315" lon="-0.39362">
        <ele>69.13</ele>
        <time>2019-06-02T12:11:35Z</time>
      </trkpt>
      <trkpt lat="44.84359" lon="-0.39364">
        <ele>71.7</ele>
        <time>2019-06-02T12:11:55Z</time>
      </trkpt>
      <trkpt lat="44.84388" lon="-0.39361">
        <ele>72.42</ele>
        <time>2019-06-02T12:12:08Z</time>
      </trkpt>
      <trkpt lat="44.84427" lon="-0.3936">
        <ele>74.67</ele>
        <time>2019-06-02T12:12:25Z</time>
      </trkpt>
      <trkpt lat="44.84465" lon="-0.39364">
        <ele>76.18</ele>
        <time>2019-06-02T12:12:41Z</time>
      </trkpt>
      <trkpt lat="44.84518" lon="-0.39363">
        <ele>76.06</ele>
        <time>2019-06-02T12:12:55Z</time>
      </trkpt>
      <trkpt lat="44.84533" lon="-0.39363">
        <ele>73.6</ele>
        <time>2019-06-02T12:12:58Z</time>
      </trkpt>
      <trkpt lat="44.84549" lon="-0.39364">
        <ele>72.49</ele>
        <time>2019-06-02T12:13:01Z</time>
      </trkpt>
      <trkpt lat="44.84568" lon="-0.39395">
        <ele>71.64</ele>
        <time>2019-06-02T12:13:08Z</time>
      </trkpt>
      <trkpt lat="44.84567" lon="-0.394">
        <ele>71.63</ele>
        <time>2019-06-02T12:13:09Z</time>
      </trkpt>
      <trkpt lat="44.84565" lon="-0.3941">
        <ele>71.63</ele>
        <time>2019-06-02T12:13:11Z</time>
      </trkpt>
      <trkpt lat="44.84574" lon="-0.39422">
        <ele>71.61</ele>
        <time>2019-06-02T12:13:15Z</time>
      </trkpt>
      <trkpt lat="44.84623" lon="-0.39426">
        <ele>68.38</ele>
        <time>2019-06-02T12:13:24Z</time>
      </trkpt>
      <trkpt lat="44.84643" lon="-0.39427">
        <ele>64.54</ele>
        <time>2019-06-02T12:13:27Z</time>
      </trkpt>
      <trkpt lat="44.84649" lon="-0.39428">
        <ele>64.58</ele>
        <time>2019-06-02T12:13:28Z</time>
      </trkpt>
      <trkpt lat="44.84656" lon="-0.39428">
        <ele>67.58</ele>
        <time>2019-06-02T12:13:29Z</time>
      </trkpt>
      <trkpt lat="44.84662" lon="-0.39429">
        <ele>67.53</ele>
        <time>2019-06-02T12:13:30Z</time>
      </trkpt>
      <trkpt lat="44.84689" lon="-0.39435">
        <ele>67.5</ele>
        <time>2019-06-02T12:13:35Z</time>
      </trkpt>
      <trkpt lat="44.8468" lon="-0.39433">
        <ele>67.57</ele>
        <time>2019-06-02T12:13:42Z</time>
      </trkpt>
      <trkpt lat="44.84678" lon="-0.39433">
        <ele>67.59</ele>
        <time>2019-06-02T12:13:43Z</time>
      </trkpt>
      <trkpt lat="44.84622" lon="-0.39429">
        <ele>67.54</ele>
        <time>2019-06-02T12:14:01Z</time>
      </trkpt>
      <trkpt lat="44.846" lon="-0.39429">
        <ele>69.4</ele>
        <time>2019-06-02T12:14:10Z</time>
      </trkpt>
      <trkpt lat="44.84599" lon="-0.39425">
        <ele>70.02</ele>
        <time>2019-06-02T12:14:27Z</time>
      </trkpt>
      <trkpt lat="44.84599" lon="-0.39426">
        <ele>69.99</ele>
        <time>2019-06-02T12:14:31Z</time>
      </trkpt>
      <trkpt lat="44.846" lon="-0.39429">
        <ele>69.92</ele>
        <time>2019-06-02T12:14:49Z</time>
      </trkpt>
      <trkpt lat="44.84601" lon="-0.39428">
        <ele>69.63</ele>
        <time>2019-06-02T12:16:19Z</time>
      </trkpt>
      <trkpt lat="44.84602" lon="-0.39426">
        <ele>69.41</ele>
        <time>2019-06-02T12:17:52Z</time>
      </trkpt>
      <trkpt lat="44.84601" lon="-0.39427">
        <ele>69.14</ele>
        <time>2019-06-02T12:19:22Z</time>
      </trkpt>
      <trkpt lat="44.84601" lon="-0.39427">
        <ele>68.83</ele>
        <time>2019-06-02T12:20:47Z</time>
      </trkpt>
      <trkpt lat="44.846" lon="-0.39427">
        <ele>68.5</ele>
        <time>2019-06-02T12:22:21Z</time>
      </trkpt>
      <trkpt lat="44.84601" lon="-0.39426">
        <ele>68.12</ele>
        <time>2019-06-02T12:23:59Z</time>
      </trkpt>
      <trkpt lat="44.84601" lon="-0.39427">
        <ele>67.72</ele>
        <time>2019-06-02T12:25:44Z</time>
      </trkpt>
      <trkpt lat="44.84601" lon="-0.39426">
        <ele>67.43</ele>
        <time>2019-06-02T12:27:19Z</time>
      </trkpt>
      <trkpt lat="44.846" lon="-0.39427">
        <ele>67.96</ele>
        <time>2019-06-02T12:29:01Z</time>
      </trkpt>
      <trkpt lat="44.84601" lon="-0.39425">
        <ele>67.67</ele>
        <time>2019-06-02T12:30:41Z</time>
      </trkpt>
      <trkpt lat="44.84602" lon="-0.39424">
        <ele>67.54</ele>
        <time>2019-06-02T12:31:31Z</time>
      </trkpt>
      <trkpt lat="44.84604" lon="-0.39426">
        <ele>67.43</ele>
        <time>2019-06-02T12:32:08Z</time>
      </trkpt>
      <trkpt lat="44.84611" lon="-0.39426">
        <ele>67.4</ele>
        <time>2019-06-02T12:32:12Z</time>
      </trkpt>
      <trkpt lat="44.84674" lon="-0.3943">
        <ele>64.99</ele>
        <time>2019-06-02T12:32:25Z</time>
      </trkpt>
      <trkpt lat="44.84679" lon="-0.39431">
        <ele>64.97</ele>
        <time>2019-06-02T12:32:26Z</time>
      </trkpt>
      <trkpt lat="44.84708" lon="-0.39434">
        <ele>64.95</ele>
        <time>2019-06-02T12:32:31Z</time>
      </trkpt>
      <trkpt lat="44.84721" lon="-0.39395">
        <ele>63.18</ele>
        <time>2019-06-02T12:32:37Z</time>
      </trkpt>
      <trkpt lat="44.84718" lon="-0.39361">
        <ele>60.1</ele>
        <time>2019-06-02T12:32:40Z</time>
      </trkpt>
      <trkpt lat="44.84717" lon="-0.39324">
        <ele>58.5</ele>
        <time>2019-06-02T12:32:43Z</time>
      </trkpt>
      <trkpt lat="44.84714" lon="-0.39215">
        <ele>57.36</ele>
        <time>2019-06-02T12:32:55Z</time>
      </trkpt>
      <trkpt lat="44.84713" lon="-0.39195">
        <ele>59.82</ele>
        <time>2019-06-02T12:32:58Z</time>
      </trkpt>
      <trkpt lat="44.8471" lon="-0.39117">
        <ele>59.76</ele>
        <time>2019-06-02T12:33:10Z</time>
      </trkpt>
      <trkpt lat="44.84726" lon="-0.39092">
        <ele>56.59</ele>
        <time>2019-06-02T12:33:15Z</time>
      </trkpt>
      <trkpt lat="44.84734" lon="-0.39089">
        <ele>56.57</ele>
        <time>2019-06-02T12:33:16Z</time>
      </trkpt>
      <trkpt lat="44.84751" lon="-0.39081">
        <ele>53.47</ele>
        <time>2019-06-02T12:33:18Z</time>
      </trkpt>
      <trkpt lat="44.84779" lon="-0.39069">
        <ele>49.81</ele>
        <time>2019-06-02T12:33:21Z</time>
      </trkpt>
      <trkpt lat="44.84797" lon="-0.39063">
        <ele>48.91</ele>
        <time>2019-06-02T12:33:23Z</time>
      </trkpt>
      <trkpt lat="44.84844" lon="-0.39052">
        <ele>48.11</ele>
        <time>2019-06-02T12:33:29Z</time>
      </trkpt>
      <trkpt lat="44.84849" lon="-0.39049">
        <ele>48.08</ele>
        <time>2019-06-02T12:33:30Z</time>
      </trkpt>
      <trkpt lat="44.84851" lon="-0.39043">
        <ele>48.1</ele>
        <time>2019-06-02T12:33:31Z</time>
      </trkpt>
      <trkpt lat="44.84852" lon="-0.39035">
        <ele>48.1</ele>
        <time>2019-06-02T12:33:32Z</time>
      </trkpt>
      <trkpt lat="44.84852" lon="-0.39027">
        <ele>48.13</ele>
        <time>2019-06-02T12:33:33Z</time>
      </trkpt>
      <trkpt lat="44.8485" lon="-0.38975">
        <ele>50.34</ele>
        <time>2019-06-02T12:33:39Z</time>
      </trkpt>
      <trkpt lat="44.8485" lon="-0.38956">
        <ele>47.27</ele>
        <time>2019-06-02T12:33:41Z</time>
      </trkpt>
      <trkpt lat="44.84849" lon="-0.38916">
        <ele>44.38</ele>
        <time>2019-06-02T12:33:45Z</time>
      </trkpt>
      <trkpt lat="44.84849" lon="-0.38903">
        <ele>42.94</ele>
        <time>2019-06-02T12:33:47Z</time>
      </trkpt>
      <trkpt lat="44.84879" lon="-0.38896">
        <ele>41.04</ele>
        <time>2019-06-02T12:33:56Z</time>
      </trkpt>
      <trkpt lat="44.84923" lon="-0.38896">
        <ele>41.94</ele>
        <time>2019-06-02T12:34:06Z</time>
      </trkpt>
      <trkpt lat="44.84956" lon="-0.38896">
        <ele>39.39</ele>
        <time>2019-06-02T12:34:12Z</time>
      </trkpt>
      <trkpt lat="44.85006" lon="-0.38895">
        <ele>37.19</ele>
        <time>2019-06-02T12:34:21Z</time>
      </trkpt>
      <trkpt lat="44.85045" lon="-0.38894">
        <ele>34.14</ele>
        <time>2019-06-02T12:34:27Z</time>
      </trkpt>
      <trkpt lat="44.85067" lon="-0.38895">
        <ele>32.98</ele>
        <time>2019-06-02T12:34:31Z</time>
      </trkpt>
      <trkpt lat="44.85071" lon="-0.38898">
        <ele>32.98</ele>
        <time>2019-06-02T12:34:32Z</time>
      </trkpt>
      <trkpt lat="44.85074" lon="-0.38901">
        <ele>33.01</ele>
        <time>2019-06-02T12:34:33Z</time>
      </trkpt>
      <trkpt lat="44.85076" lon="-0.38904">
        <ele>33.02</ele>
        <time>2019-06-02T12:34:34Z</time>
      </trkpt>
      <trkpt lat="44.85087" lon="-0.38911">
        <ele>33.06</ele>
        <time>2019-06-02T12:34:38Z</time>
      </trkpt>
      <trkpt lat="44.85088" lon="-0.38915">
        <ele>33.06</ele>
        <time>2019-06-02T12:34:39Z</time>
      </trkpt>
      <trkpt lat="44.85088" lon="-0.3892">
        <ele>33.02</ele>
        <time>2019-06-02T12:34:40Z</time>
      </trkpt>
      <trkpt lat="44.8509" lon="-0.38945">
        <ele>30.5</ele>
        <time>2019-06-02T12:34:46Z</time>
      </trkpt>
      <trkpt lat="44.8509" lon="-0.38957">
        <ele>33.44</ele>
        <time>2019-06-02T12:34:49Z</time>
      </trkpt>
      <trkpt lat="44.85093" lon="-0.38979">
        <ele>29.03</ele>
        <time>2019-06-02T12:34:55Z</time>
      </trkpt>
      <trkpt lat="44.85094" lon="-0.38982">
        <ele>32.45</ele>
        <time>2019-06-02T12:34:56Z</time>
      </trkpt>
      <trkpt lat="44.85095" lon="-0.38985">
        <ele>33.51</ele>
        <time>2019-06-02T12:34:57Z</time>
      </trkpt>
      <trkpt lat="44.85119" lon="-0.38982">
        <ele>33.64</ele>
        <time>2019-06-02T12:35:07Z</time>
      </trkpt>
      <trkpt lat="44.85161" lon="-0.38971">
        <ele>30.52</ele>
        <time>2019-06-02T12:35:25Z</time>
      </trkpt>
      <trkpt lat="44.85164" lon="-0.38971">
        <ele>34.7</ele>
        <time>2019-06-02T12:35:26Z</time>
      </trkpt>
      <trkpt lat="44.85176" lon="-0.3897">
        <ele>34.62</ele>
        <time>2019-06-02T12:35:38Z</time>
      </trkpt>
      <trkpt lat="44.85177" lon="-0.38968">
        <ele>34.49</ele>
        <time>2019-06-02T12:36:14Z</time>
      </trkpt>
      <trkpt lat="44.85184" lon="-0.38965">
        <ele>34.47</ele>
        <time>2019-06-02T12:36:21Z</time>
      </trkpt>
      <trkpt lat="44.85185" lon="-0.38969">
        <ele>34.47</ele>
        <time>2019-06-02T12:36:23Z</time>
      </trkpt>
      <trkpt lat="44.85191" lon="-0.38972">
        <ele>35.55</ele>
        <time>2019-06-02T12:36:29Z</time>
      </trkpt>
      <trkpt lat="44.8519" lon="-0.38979">
        <ele>36.4</ele>
        <time>2019-06-02T12:36:33Z</time>
      </trkpt>
      <trkpt lat="44.85196" lon="-0.38988">
        <ele>36.35</ele>
        <time>2019-06-02T12:36:38Z</time>
      </trkpt>
      <trkpt lat="44.85201" lon="-0.38998">
        <ele>36.32</ele>
        <time>2019-06-02T12:36:42Z</time>
      </trkpt>
      <trkpt lat="44.85211" lon="-0.39004">
        <ele>39.54</ele>
        <time>2019-06-02T12:36:48Z</time>
      </trkpt>
      <trkpt lat="44.85214" lon="-0.39005">
        <ele>40.43</ele>
        <time>2019-06-02T12:36:50Z</time>
      </trkpt>
      <trkpt lat="44.85218" lon="-0.39002">
        <ele>41.33</ele>
        <time>2019-06-02T12:36:57Z</time>
      </trkpt>
      <trkpt lat="44.8522" lon="-0.39014">
        <ele>41.04</ele>
        <time>2019-06-02T12:37:12Z</time>
      </trkpt>
      <trkpt lat="44.85221" lon="-0.39016">
        <ele>41.48</ele>
        <time>2019-06-02T12:37:44Z</time>
      </trkpt>
      <trkpt lat="44.85221" lon="-0.39018">
        <ele>41.45</ele>
        <time>2019-06-02T12:37:45Z</time>
      </trkpt>
      <trkpt lat="44.85222" lon="-0.39031">
        <ele>41.4</ele>
        <time>2019-06-02T12:37:53Z</time>
      </trkpt>
      <trkpt lat="44.85224" lon="-0.3903">
        <ele>41.4</ele>
        <time>2019-06-02T12:37:55Z</time>
      </trkpt>
      <trkpt lat="44.85241" lon="-0.39026">
        <ele>44.79</ele>
        <time>2019-06-02T12:38:08Z</time>
      </trkpt>
      <trkpt lat="44.85256" lon="-0.39021">
        <ele>46.18</ele>
        <time>2019-06-02T12:38:39Z</time>
      </trkpt>
      <trkpt lat="44.85257" lon="-0.39021">
        <ele>46.18</ele>
        <time>2019-06-02T12:38:40Z</time>
      </trkpt>
      <trkpt lat="44.85268" lon="-0.39006">
        <ele>48.74</ele>
        <time>2019-06-02T12:38:55Z</time>
      </trkpt>
      <trkpt lat="44.8528" lon="-0.39008">
        <ele>49.56</ele>
        <time>2019-06-02T12:39:07Z</time>
      </trkpt>
      <trkpt lat="44.85291" lon="-0.39016">
        <ele>50.31</ele>
        <time>2019-06-02T12:39:17Z</time>
      </trkpt>
      <trkpt lat="44.85294" lon="-0.39021">
        <ele>50.29</ele>
        <time>2019-06-02T12:39:19Z</time>
      </trkpt>
      <trkpt lat="44.85295" lon="-0.39025">
        <ele>51.05</ele>
        <time>2019-06-02T12:39:21Z</time>
      </trkpt>
      <trkpt lat="44.85295" lon="-0.39038">
        <ele>50.82</ele>
        <time>2019-06-02T12:39:36Z</time>
      </trkpt>
      <trkpt lat="44.85297" lon="-0.39058">
        <ele>51.82</ele>
        <time>2019-06-02T12:39:48Z</time>
      </trkpt>
      <trkpt lat="44.85294" lon="-0.39087">
        <ele>53.33</ele>
        <time>2019-06-02T12:40:03Z</time>
      </trkpt>
      <trkpt lat="44.85294" lon="-0.39089">
        <ele>53.31</ele>
        <time>2019-06-02T12:40:04Z</time>
      </trkpt>
      <trkpt lat="44.85275" lon="-0.39107">
        <ele>50.71</ele>
        <time>2019-06-02T12:40:13Z</time>
      </trkpt>
      <trkpt lat="44.85273" lon="-0.3911">
        <ele>50.69</ele>
        <time>2019-06-02T12:40:14Z</time>
      </trkpt>
      <trkpt lat="44.8526" lon="-0.39136">
        <ele>49.6</ele>
        <time>2019-06-02T12:40:23Z</time>
      </trkpt>
      <trkpt lat="44.85261" lon="-0.39138">
        <ele>49.6</ele>
        <time>2019-06-02T12:40:24Z</time>
      </trkpt>
      <trkpt lat="44.85263" lon="-0.39146">
        <ele>49.66</ele>
        <time>2019-06-02T12:40:28Z</time>
      </trkpt>
      <trkpt lat="44.85257" lon="-0.3916">
        <ele>49.62</ele>
        <time>2019-06-02T12:40:34Z</time>
      </trkpt>
      <trkpt lat="44.85259" lon="-0.39182">
        <ele>49.54</ele>
        <time>2019-06-02T12:40:43Z</time>
      </trkpt>
      <trkpt lat="44.85261" lon="-0.39186">
        <ele>51.92</ele>
        <time>2019-06-02T12:40:45Z</time>
      </trkpt>
      <trkpt lat="44.85262" lon="-0.39188">
        <ele>51.9</ele>
        <time>2019-06-02T12:40:46Z</time>
      </trkpt>
      <trkpt lat="44.85263" lon="-0.39191">
        <ele>51.88</ele>
        <time>2019-06-02T12:40:48Z</time>
      </trkpt>
      <trkpt lat="44.85265" lon="-0.39205">
        <ele>52.68</ele>
        <time>2019-06-02T12:40:54Z</time>
      </trkpt>
      <trkpt lat="44.85272" lon="-0.39229">
        <ele>55.05</ele>
        <time>2019-06-02T12:41:11Z</time>
      </trkpt>
      <trkpt lat="44.85276" lon="-0.39234">
        <ele>55</ele>
        <time>2019-06-02T12:41:14Z</time>
      </trkpt>
      <trkpt lat="44.8528" lon="-0.39239">
        <ele>55.73</ele>
        <time>2019-06-02T12:41:19Z</time>
      </trkpt>
      <trkpt lat="44.85288" lon="-0.39245">
        <ele>56.53</ele>
        <time>2019-06-02T12:41:26Z</time>
      </trkpt>
      <trkpt lat="44.85293" lon="-0.39244">
        <ele>57.32</ele>
        <time>2019-06-02T12:41:29Z</time>
      </trkpt>
      <trkpt lat="44.85305" lon="-0.39232">
        <ele>57.14</ele>
        <time>2019-06-02T12:41:38Z</time>
      </trkpt>
      <trkpt lat="44.85313" lon="-0.39236">
        <ele>57.08</ele>
        <time>2019-06-02T12:41:43Z</time>
      </trkpt>
      <trkpt lat="44.85326" lon="-0.39244">
        <ele>57.74</ele>
        <time>2019-06-02T12:41:53Z</time>
      </trkpt>
      <trkpt lat="44.85338" lon="-0.39255">
        <ele>57.58</ele>
        <time>2019-06-02T12:42:03Z</time>
      </trkpt>
      <trkpt lat="44.85351" lon="-0.39246">
        <ele>58.36</ele>
        <time>2019-06-02T12:42:12Z</time>
      </trkpt>
      <trkpt lat="44.85367" lon="-0.39227">
        <ele>60.07</ele>
        <time>2019-06-02T12:42:25Z</time>
      </trkpt>
      <trkpt lat="44.85368" lon="-0.39224">
        <ele>60.05</ele>
        <time>2019-06-02T12:42:27Z</time>
      </trkpt>
      <trkpt lat="44.85377" lon="-0.39202">
        <ele>60.67</ele>
        <time>2019-06-02T12:42:37Z</time>
      </trkpt>
      <trkpt lat="44.85399" lon="-0.39209">
        <ele>60.47</ele>
        <time>2019-06-02T12:42:47Z</time>
      </trkpt>
      <trkpt lat="44.85406" lon="-0.39214">
        <ele>60.39</ele>
        <time>2019-06-02T12:42:50Z</time>
      </trkpt>
      <trkpt lat="44.85407" lon="-0.39219">
        <ele>57.93</ele>
        <time>2019-06-02T12:42:52Z</time>
      </trkpt>
      <trkpt lat="44.8541" lon="-0.39227">
        <ele>57</ele>
        <time>2019-06-02T12:42:54Z</time>
      </trkpt>
      <trkpt lat="44.85439" lon="-0.39257">
        <ele>55.73</ele>
        <time>2019-06-02T12:43:04Z</time>
      </trkpt>
      <trkpt lat="44.85445" lon="-0.39261">
        <ele>55.76</ele>
        <time>2019-06-02T12:43:07Z</time>
      </trkpt>
      <trkpt lat="44.85458" lon="-0.39272">
        <ele>54.9</ele>
        <time>2019-06-02T12:43:12Z</time>
      </trkpt>
      <trkpt lat="44.85471" lon="-0.39291">
        <ele>53.76</ele>
        <time>2019-06-02T12:43:17Z</time>
      </trkpt>
      <trkpt lat="44.85491" lon="-0.39293">
        <ele>55.97</ele>
        <time>2019-06-02T12:43:28Z</time>
      </trkpt>
      <trkpt lat="44.85492" lon="-0.39293">
        <ele>55.97</ele>
        <time>2019-06-02T12:43:29Z</time>
      </trkpt>
      <trkpt lat="44.85496" lon="-0.39293">
        <ele>56.97</ele>
        <time>2019-06-02T12:43:31Z</time>
      </trkpt>
      <trkpt lat="44.85509" lon="-0.3929">
        <ele>57.93</ele>
        <time>2019-06-02T12:43:38Z</time>
      </trkpt>
      <trkpt lat="44.8553" lon="-0.39294">
        <ele>59.35</ele>
        <time>2019-06-02T12:43:50Z</time>
      </trkpt>
      <trkpt lat="44.85532" lon="-0.39294">
        <ele>59.34</ele>
        <time>2019-06-02T12:43:51Z</time>
      </trkpt>
      <trkpt lat="44.85551" lon="-0.39299">
        <ele>60.03</ele>
        <time>2019-06-02T12:44:00Z</time>
      </trkpt>
      <trkpt lat="44.85567" lon="-0.39295">
        <ele>60.73</ele>
        <time>2019-06-02T12:44:10Z</time>
      </trkpt>
      <trkpt lat="44.85569" lon="-0.39293">
        <ele>60.73</ele>
        <time>2019-06-02T12:44:11Z</time>
      </trkpt>
      <trkpt lat="44.85575" lon="-0.39289">
        <ele>61.61</ele>
        <time>2019-06-02T12:44:16Z</time>
      </trkpt>
      <trkpt lat="44.85578" lon="-0.39281">
        <ele>61.56</ele>
        <time>2019-06-02T12:44:20Z</time>
      </trkpt>
      <trkpt lat="44.85585" lon="-0.39269">
        <ele>62.4</ele>
        <time>2019-06-02T12:44:26Z</time>
      </trkpt>
      <trkpt lat="44.85585" lon="-0.39234">
        <ele>63.29</ele>
        <time>2019-06-02T12:44:39Z</time>
      </trkpt>
      <trkpt lat="44.85584" lon="-0.3923">
        <ele>63.27</ele>
        <time>2019-06-02T12:44:41Z</time>
      </trkpt>
      <trkpt lat="44.85585" lon="-0.39196">
        <ele>63.97</ele>
        <time>2019-06-02T12:44:53Z</time>
      </trkpt>
      <trkpt lat="44.85593" lon="-0.39179">
        <ele>65.66</ele>
        <time>2019-06-02T12:45:02Z</time>
      </trkpt>
      <trkpt lat="44.85601" lon="-0.39154">
        <ele>66.34</ele>
        <time>2019-06-02T12:45:13Z</time>
      </trkpt>
      <trkpt lat="44.85608" lon="-0.39146">
        <ele>66.28</ele>
        <time>2019-06-02T12:45:17Z</time>
      </trkpt>
      <trkpt lat="44.85615" lon="-0.39138">
        <ele>66.23</ele>
        <time>2019-06-02T12:45:21Z</time>
      </trkpt>
      <trkpt lat="44.8562" lon="-0.39138">
        <ele>66.2</ele>
        <time>2019-06-02T12:45:24Z</time>
      </trkpt>
      <trkpt lat="44.8563" lon="-0.39138">
        <ele>67</ele>
        <time>2019-06-02T12:45:28Z</time>
      </trkpt>
      <trkpt lat="44.85635" lon="-0.39138">
        <ele>66.98</ele>
        <time>2019-06-02T12:45:30Z</time>
      </trkpt>
      <trkpt lat="44.85644" lon="-0.39139">
        <ele>66.93</ele>
        <time>2019-06-02T12:45:35Z</time>
      </trkpt>
      <trkpt lat="44.85655" lon="-0.39142">
        <ele>66.88</ele>
        <time>2019-06-02T12:45:41Z</time>
      </trkpt>
      <trkpt lat="44.85664" lon="-0.39129">
        <ele>66.86</ele>
        <time>2019-06-02T12:45:47Z</time>
      </trkpt>
      <trkpt lat="44.85666" lon="-0.39123">
        <ele>66.84</ele>
        <time>2019-06-02T12:45:50Z</time>
      </trkpt>
      <trkpt lat="44.85663" lon="-0.39108">
        <ele>64.44</ele>
        <time>2019-06-02T12:46:00Z</time>
      </trkpt>
      <trkpt lat="44.85662" lon="-0.39103">
        <ele>64.42</ele>
        <time>2019-06-02T12:46:03Z</time>
      </trkpt>
      <trkpt lat="44.85655" lon="-0.39093">
        <ele>64.41</ele>
        <time>2019-06-02T12:46:09Z</time>
      </trkpt>
      <trkpt lat="44.85646" lon="-0.39074">
        <ele>64.4</ele>
        <time>2019-06-02T12:46:21Z</time>
      </trkpt>
      <trkpt lat="44.85645" lon="-0.39064">
        <ele>64.34</ele>
        <time>2019-06-02T12:46:51Z</time>
      </trkpt>
      <trkpt lat="44.85637" lon="-0.3907">
        <ele>64.25</ele>
        <time>2019-06-02T12:47:43Z</time>
      </trkpt>
      <trkpt lat="44.85636" lon="-0.39064">
        <ele>63.01</ele>
        <time>2019-06-02T12:48:18Z</time>
      </trkpt>
      <trkpt lat="44.85639" lon="-0.39058">
        <ele>63.05</ele>
        <time>2019-06-02T12:48:56Z</time>
      </trkpt>
      <trkpt lat="44.85636" lon="-0.39048">
        <ele>63.02</ele>
        <time>2019-06-02T12:49:00Z</time>
      </trkpt>
      <trkpt lat="44.85633" lon="-0.39043">
        <ele>63.02</ele>
        <time>2019-06-02T12:49:02Z</time>
      </trkpt>
      <trkpt lat="44.85624" lon="-0.3904">
        <ele>61.95</ele>
        <time>2019-06-02T12:49:10Z</time>
      </trkpt>
      <trkpt lat="44.85613" lon="-0.39034">
        <ele>62.05</ele>
        <time>2019-06-02T12:49:19Z</time>
      </trkpt>
      <trkpt lat="44.85604" lon="-0.39036">
        <ele>62</ele>
        <time>2019-06-02T12:49:58Z</time>
      </trkpt>
      <trkpt lat="44.85603" lon="-0.39037">
        <ele>62</ele>
        <time>2019-06-02T12:49:59Z</time>
      </trkpt>
      <trkpt lat="44.85596" lon="-0.39047">
        <ele>61.99</ele>
        <time>2019-06-02T12:50:06Z</time>
      </trkpt>
      <trkpt lat="44.85594" lon="-0.39054">
        <ele>64.28</ele>
        <time>2019-06-02T12:50:10Z</time>
      </trkpt>
      <trkpt lat="44.85586" lon="-0.39082">
        <ele>65.1</ele>
        <time>2019-06-02T12:50:23Z</time>
      </trkpt>
      <trkpt lat="44.85571" lon="-0.39104">
        <ele>65.77</ele>
        <time>2019-06-02T12:50:34Z</time>
      </trkpt>
      <trkpt lat="44.85566" lon="-0.39107">
        <ele>65.75</ele>
        <time>2019-06-02T12:50:36Z</time>
      </trkpt>
      <trkpt lat="44.85554" lon="-0.39115">
        <ele>65.67</ele>
        <time>2019-06-02T12:50:40Z</time>
      </trkpt>
      <trkpt lat="44.85543" lon="-0.39116">
        <ele>63.03</ele>
        <time>2019-06-02T12:50:43Z</time>
      </trkpt>
      <trkpt lat="44.85528" lon="-0.39125">
        <ele>62.95</ele>
        <time>2019-06-02T12:50:48Z</time>
      </trkpt>
      <trkpt lat="44.85522" lon="-0.39127">
        <ele>62.9</ele>
        <time>2019-06-02T12:50:50Z</time>
      </trkpt>
      <trkpt lat="44.85507" lon="-0.39117">
        <ele>62.83</ele>
        <time>2019-06-02T12:51:00Z</time>
      </trkpt>
      <trkpt lat="44.85502" lon="-0.39115">
        <ele>62.81</ele>
        <time>2019-06-02T12:51:02Z</time>
      </trkpt>
      <trkpt lat="44.8549" lon="-0.39097">
        <ele>61.91</ele>
        <time>2019-06-02T12:51:09Z</time>
      </trkpt>
      <trkpt lat="44.85484" lon="-0.39092">
        <ele>61.87</ele>
        <time>2019-06-02T12:51:11Z</time>
      </trkpt>
      <trkpt lat="44.85453" lon="-0.39084">
        <ele>60.84</ele>
        <time>2019-06-02T12:51:22Z</time>
      </trkpt>
      <trkpt lat="44.85437" lon="-0.39064">
        <ele>58.81</ele>
        <time>2019-06-02T12:51:30Z</time>
      </trkpt>
      <trkpt lat="44.85422" lon="-0.39032">
        <ele>56.8</ele>
        <time>2019-06-02T12:51:37Z</time>
      </trkpt>
      <trkpt lat="44.85405" lon="-0.39017">
        <ele>55.79</ele>
        <time>2019-06-02T12:51:41Z</time>
      </trkpt>
      <trkpt lat="44.85383" lon="-0.38996">
        <ele>54.01</ele>
        <time>2019-06-02T12:51:47Z</time>
      </trkpt>
      <trkpt lat="44.85366" lon="-0.38992">
        <ele>53.06</ele>
        <time>2019-06-02T12:51:52Z</time>
      </trkpt>
      <trkpt lat="44.85356" lon="-0.38968">
        <ele>53.09</ele>
        <time>2019-06-02T12:51:59Z</time>
      </trkpt>
      <trkpt lat="44.85349" lon="-0.38959">
        <ele>53.07</ele>
        <time>2019-06-02T12:52:02Z</time>
      </trkpt>
      <trkpt lat="44.85336" lon="-0.38955">
        <ele>51.05</ele>
        <time>2019-06-02T12:52:06Z</time>
      </trkpt>
      <trkpt lat="44.85319" lon="-0.3895">
        <ele>48.76</ele>
        <time>2019-06-02T12:52:11Z</time>
      </trkpt>
      <trkpt lat="44.85312" lon="-0.38943">
        <ele>47.52</ele>
        <time>2019-06-02T12:52:13Z</time>
      </trkpt>
      <trkpt lat="44.85295" lon="-0.38929">
        <ele>46.71</ele>
        <time>2019-06-02T12:52:18Z</time>
      </trkpt>
      <trkpt lat="44.85281" lon="-0.38929">
        <ele>44.95</ele>
        <time>2019-06-02T12:52:24Z</time>
      </trkpt>
      <trkpt lat="44.85278" lon="-0.38935">
        <ele>44.11</ele>
        <time>2019-06-02T12:52:27Z</time>
      </trkpt>
      <trkpt lat="44.85265" lon="-0.38946">
        <ele>44.19</ele>
        <time>2019-06-02T12:52:32Z</time>
      </trkpt>
      <trkpt lat="44.85245" lon="-0.38945">
        <ele>40.61</ele>
        <time>2019-06-02T12:52:41Z</time>
      </trkpt>
      <trkpt lat="44.85244" lon="-0.38944">
        <ele>40.62</ele>
        <time>2019-06-02T12:52:42Z</time>
      </trkpt>
      <trkpt lat="44.85243" lon="-0.38926">
        <ele>40.62</ele>
        <time>2019-06-02T12:52:48Z</time>
      </trkpt>
      <trkpt lat="44.85241" lon="-0.38907">
        <ele>40.62</ele>
        <time>2019-06-02T12:52:54Z</time>
      </trkpt>
      <trkpt lat="44.85241" lon="-0.38903">
        <ele>40.62</ele>
        <time>2019-06-02T12:52:55Z</time>
      </trkpt>
      <trkpt lat="44.85241" lon="-0.38899">
        <ele>40.61</ele>
        <time>2019-06-02T12:52:56Z</time>
      </trkpt>
      <trkpt lat="44.85241" lon="-0.38896">
        <ele>40.61</ele>
        <time>2019-06-02T12:52:57Z</time>
      </trkpt>
      <trkpt lat="44.85242" lon="-0.38892">
        <ele>40.62</ele>
        <time>2019-06-02T12:52:58Z</time>
      </trkpt>
      <trkpt lat="44.85243" lon="-0.38889">
        <ele>40.61</ele>
        <time>2019-06-02T12:52:59Z</time>
      </trkpt>
      <trkpt lat="44.8525" lon="-0.38868">
        <ele>40.57</ele>
        <time>2019-06-02T12:53:06Z</time>
      </trkpt>
      <trkpt lat="44.85247" lon="-0.38857">
        <ele>40.48</ele>
        <time>2019-06-02T12:53:11Z</time>
      </trkpt>
      <trkpt lat="44.85245" lon="-0.38849">
        <ele>40.52</ele>
        <time>2019-06-02T12:53:16Z</time>
      </trkpt>
      <trkpt lat="44.85247" lon="-0.38839">
        <ele>40.49</ele>
        <time>2019-06-02T12:53:35Z</time>
      </trkpt>
      <trkpt lat="44.85253" lon="-0.3884">
        <ele>42.73</ele>
        <time>2019-06-02T12:53:57Z</time>
      </trkpt>
      <trkpt lat="44.85257" lon="-0.38846">
        <ele>43.48</ele>
        <time>2019-06-02T12:54:19Z</time>
      </trkpt>
      <trkpt lat="44.8526" lon="-0.38845">
        <ele>43.47</ele>
        <time>2019-06-02T12:54:28Z</time>
      </trkpt>
      <trkpt lat="44.85262" lon="-0.38843">
        <ele>43.45</ele>
        <time>2019-06-02T12:54:30Z</time>
      </trkpt>
      <trkpt lat="44.85267" lon="-0.38842">
        <ele>43.44</ele>
        <time>2019-06-02T12:54:34Z</time>
      </trkpt>
      <trkpt lat="44.85277" lon="-0.3884">
        <ele>45.51</ele>
        <time>2019-06-02T12:54:48Z</time>
      </trkpt>
      <trkpt lat="44.85281" lon="-0.38831">
        <ele>45.35</ele>
        <time>2019-06-02T12:55:08Z</time>
      </trkpt>
      <trkpt lat="44.85291" lon="-0.38814">
        <ele>45.3</ele>
        <time>2019-06-02T12:55:19Z</time>
      </trkpt>
      <trkpt lat="44.85296" lon="-0.38807">
        <ele>45.27</ele>
        <time>2019-06-02T12:55:23Z</time>
      </trkpt>
      <trkpt lat="44.85298" lon="-0.38794">
        <ele>42.93</ele>
        <time>2019-06-02T12:55:35Z</time>
      </trkpt>
      <trkpt lat="44.85298" lon="-0.38793">
        <ele>42.94</ele>
        <time>2019-06-02T12:55:36Z</time>
      </trkpt>
      <trkpt lat="44.85298" lon="-0.38791">
        <ele>42.9</ele>
        <time>2019-06-02T12:55:37Z</time>
      </trkpt>
      <trkpt lat="44.85298" lon="-0.38789">
        <ele>42.89</ele>
        <time>2019-06-02T12:55:38Z</time>
      </trkpt>
      <trkpt lat="44.853" lon="-0.38782">
        <ele>42.83</ele>
        <time>2019-06-02T12:55:51Z</time>
      </trkpt>
      <trkpt lat="44.85306" lon="-0.38778">
        <ele>41.1</ele>
        <time>2019-06-02T12:56:25Z</time>
      </trkpt>
      <trkpt lat="44.85313" lon="-0.38775">
        <ele>41.09</ele>
        <time>2019-06-02T12:56:54Z</time>
      </trkpt>
      <trkpt lat="44.8533" lon="-0.38765">
        <ele>43.41</ele>
        <time>2019-06-02T12:57:02Z</time>
      </trkpt>
      <trkpt lat="44.85368" lon="-0.38755">
        <ele>43.36</ele>
        <time>2019-06-02T12:57:15Z</time>
      </trkpt>
      <trkpt lat="44.85411" lon="-0.38775">
        <ele>43.37</ele>
        <time>2019-06-02T12:57:28Z</time>
      </trkpt>
      <trkpt lat="44.85456" lon="-0.3882">
        <ele>43.38</ele>
        <time>2019-06-02T12:57:43Z</time>
      </trkpt>
      <trkpt lat="44.85493" lon="-0.38842">
        <ele>45.09</ele>
        <time>2019-06-02T12:57:55Z</time>
      </trkpt>
      <trkpt lat="44.85526" lon="-0.38851">
        <ele>45.95</ele>
        <time>2019-06-02T12:58:05Z</time>
      </trkpt>
      <trkpt lat="44.85527" lon="-0.38851">
        <ele>45.95</ele>
        <time>2019-06-02T12:58:06Z</time>
      </trkpt>
      <trkpt lat="44.85527" lon="-0.38848">
        <ele>45.95</ele>
        <time>2019-06-02T12:58:07Z</time>
      </trkpt>
      <trkpt lat="44.85529" lon="-0.38846">
        <ele>45.94</ele>
        <time>2019-06-02T12:58:08Z</time>
      </trkpt>
      <trkpt lat="44.85532" lon="-0.38834">
        <ele>45.89</ele>
        <time>2019-06-02T12:58:11Z</time>
      </trkpt>
      <trkpt lat="44.85522" lon="-0.38789">
        <ele>43.37</ele>
        <time>2019-06-02T12:58:22Z</time>
      </trkpt>
      <trkpt lat="44.85514" lon="-0.38787">
        <ele>43.37</ele>
        <time>2019-06-02T12:58:24Z</time>
      </trkpt>
      <trkpt lat="44.85498" lon="-0.38762">
        <ele>43.33</ele>
        <time>2019-06-02T12:58:30Z</time>
      </trkpt>
      <trkpt lat="44.85486" lon="-0.38674">
        <ele>42.4</ele>
        <time>2019-06-02T12:58:45Z</time>
      </trkpt>
      <trkpt lat="44.85467" lon="-0.38669">
        <ele>40.52</ele>
        <time>2019-06-02T12:58:50Z</time>
      </trkpt>
      <trkpt lat="44.85442" lon="-0.38664">
        <ele>38.41</ele>
        <time>2019-06-02T12:58:54Z</time>
      </trkpt>
      <trkpt lat="44.85435" lon="-0.3865">
        <ele>37.63</ele>
        <time>2019-06-02T12:58:56Z</time>
      </trkpt>
      <trkpt lat="44.85413" lon="-0.38572">
        <ele>37.7</ele>
        <time>2019-06-02T12:59:10Z</time>
      </trkpt>
      <trkpt lat="44.8541" lon="-0.38567">
        <ele>37.71</ele>
        <time>2019-06-02T12:59:25Z</time>
      </trkpt>
      <trkpt lat="44.85405" lon="-0.38557">
        <ele>37.7</ele>
        <time>2019-06-02T12:59:40Z</time>
      </trkpt>
      <trkpt lat="44.85404" lon="-0.38557">
        <ele>40.08</ele>
        <time>2019-06-02T12:59:47Z</time>
      </trkpt>
      <trkpt lat="44.85386" lon="-0.38539">
        <ele>41.31</ele>
        <time>2019-06-02T12:59:58Z</time>
      </trkpt>
      <trkpt lat="44.85372" lon="-0.38512">
        <ele>44.4</ele>
        <time>2019-06-02T13:00:10Z</time>
      </trkpt>
      <trkpt lat="44.85369" lon="-0.38474">
        <ele>47.16</ele>
        <time>2019-06-02T13:00:23Z</time>
      </trkpt>
      <trkpt lat="44.85364" lon="-0.38438">
        <ele>48.88</ele>
        <time>2019-06-02T13:00:39Z</time>
      </trkpt>
      <trkpt lat="44.85361" lon="-0.38439">
        <ele>48.85</ele>
        <time>2019-06-02T13:00:49Z</time>
      </trkpt>
      <trkpt lat="44.85346" lon="-0.38467">
        <ele>46.47</ele>
        <time>2019-06-02T13:00:59Z</time>
      </trkpt>
      <trkpt lat="44.85345" lon="-0.38471">
        <ele>46.46</ele>
        <time>2019-06-02T13:01:00Z</time>
      </trkpt>
      <trkpt lat="44.85344" lon="-0.38472">
        <ele>45.56</ele>
        <time>2019-06-02T13:01:01Z</time>
      </trkpt>
      <trkpt lat="44.85333" lon="-0.38477">
        <ele>44.75</ele>
        <time>2019-06-02T13:01:11Z</time>
      </trkpt>
      <trkpt lat="44.85325" lon="-0.38476">
        <ele>44.75</ele>
        <time>2019-06-02T13:01:26Z</time>
      </trkpt>
      <trkpt lat="44.85321" lon="-0.38479">
        <ele>43.38</ele>
        <time>2019-06-02T13:01:29Z</time>
      </trkpt>
      <trkpt lat="44.85318" lon="-0.38482">
        <ele>42.04</ele>
        <time>2019-06-02T13:01:31Z</time>
      </trkpt>
      <trkpt lat="44.85314" lon="-0.38486">
        <ele>38.71</ele>
        <time>2019-06-02T13:01:34Z</time>
      </trkpt>
      <trkpt lat="44.8531" lon="-0.38492">
        <ele>35.57</ele>
        <time>2019-06-02T13:01:37Z</time>
      </trkpt>
      <trkpt lat="44.85304" lon="-0.38496">
        <ele>34.53</ele>
        <time>2019-06-02T13:01:39Z</time>
      </trkpt>
      <trkpt lat="44.85283" lon="-0.38505">
        <ele>31.62</ele>
        <time>2019-06-02T13:01:46Z</time>
      </trkpt>
      <trkpt lat="44.8527" lon="-0.38496">
        <ele>30.82</ele>
        <time>2019-06-02T13:01:55Z</time>
      </trkpt>
      <trkpt lat="44.85269" lon="-0.38496">
        <ele>30.84</ele>
        <time>2019-06-02T13:01:56Z</time>
      </trkpt>
      <trkpt lat="44.85255" lon="-0.38483">
        <ele>29.65</ele>
        <time>2019-06-02T13:02:03Z</time>
      </trkpt>
      <trkpt lat="44.85245" lon="-0.38471">
        <ele>28.43</ele>
        <time>2019-06-02T13:02:07Z</time>
      </trkpt>
      <trkpt lat="44.85244" lon="-0.38461">
        <ele>28.44</ele>
        <time>2019-06-02T13:02:10Z</time>
      </trkpt>
      <trkpt lat="44.8525" lon="-0.38433">
        <ele>28.37</ele>
        <time>2019-06-02T13:02:22Z</time>
      </trkpt>
      <trkpt lat="44.85251" lon="-0.38414">
        <ele>28.33</ele>
        <time>2019-06-02T13:02:27Z</time>
      </trkpt>
      <trkpt lat="44.85266" lon="-0.38395">
        <ele>30.82</ele>
        <time>2019-06-02T13:02:35Z</time>
      </trkpt>
      <trkpt lat="44.85272" lon="-0.38398">
        <ele>33.07</ele>
        <time>2019-06-02T13:02:39Z</time>
      </trkpt>
      <trkpt lat="44.85275" lon="-0.38413">
        <ele>33.96</ele>
        <time>2019-06-02T13:02:46Z</time>
      </trkpt>
      <trkpt lat="44.85278" lon="-0.38415">
        <ele>35.5</ele>
        <time>2019-06-02T13:02:49Z</time>
      </trkpt>
      <trkpt lat="44.85279" lon="-0.38415">
        <ele>36.61</ele>
        <time>2019-06-02T13:02:50Z</time>
      </trkpt>
      <trkpt lat="44.85283" lon="-0.38411">
        <ele>38.58</ele>
        <time>2019-06-02T13:02:54Z</time>
      </trkpt>
      <trkpt lat="44.85285" lon="-0.38405">
        <ele>39.44</ele>
        <time>2019-06-02T13:02:57Z</time>
      </trkpt>
      <trkpt lat="44.85289" lon="-0.384">
        <ele>40.05</ele>
        <time>2019-06-02T13:03:14Z</time>
      </trkpt>
      <trkpt lat="44.8529" lon="-0.38399">
        <ele>40.82</ele>
        <time>2019-06-02T13:03:25Z</time>
      </trkpt>
      <trkpt lat="44.85293" lon="-0.38399">
        <ele>40.83</ele>
        <time>2019-06-02T13:03:28Z</time>
      </trkpt>
      <trkpt lat="44.85309" lon="-0.38397">
        <ele>42.67</ele>
        <time>2019-06-02T13:03:40Z</time>
      </trkpt>
      <trkpt lat="44.8531" lon="-0.38393">
        <ele>43.36</ele>
        <time>2019-06-02T13:03:57Z</time>
      </trkpt>
      <trkpt lat="44.85312" lon="-0.38395">
        <ele>43.28</ele>
        <time>2019-06-02T13:04:30Z</time>
      </trkpt>
      <trkpt lat="44.85314" lon="-0.3839">
        <ele>43.25</ele>
        <time>2019-06-02T13:05:05Z</time>
      </trkpt>
      <trkpt lat="44.85314" lon="-0.38388">
        <ele>43.25</ele>
        <time>2019-06-02T13:05:16Z</time>
      </trkpt>
      <trkpt lat="44.85308" lon="-0.38381">
        <ele>43.24</ele>
        <time>2019-06-02T13:05:21Z</time>
      </trkpt>
      <trkpt lat="44.85303" lon="-0.3838">
        <ele>40.75</ele>
        <time>2019-06-02T13:05:23Z</time>
      </trkpt>
      <trkpt lat="44.85298" lon="-0.38377">
        <ele>38.75</ele>
        <time>2019-06-02T13:05:25Z</time>
      </trkpt>
      <trkpt lat="44.85287" lon="-0.3837">
        <ele>36.04</ele>
        <time>2019-06-02T13:05:29Z</time>
      </trkpt>
      <trkpt lat="44.8528" lon="-0.38367">
        <ele>34.63</ele>
        <time>2019-06-02T13:05:31Z</time>
      </trkpt>
      <trkpt lat="44.85276" lon="-0.38367">
        <ele>32.85</ele>
        <time>2019-06-02T13:05:32Z</time>
      </trkpt>
      <trkpt lat="44.85249" lon="-0.38372">
        <ele>27.8</ele>
        <time>2019-06-02T13:05:36Z</time>
      </trkpt>
      <trkpt lat="44.85242" lon="-0.38373">
        <ele>26.66</ele>
        <time>2019-06-02T13:05:37Z</time>
      </trkpt>
      <trkpt lat="44.85233" lon="-0.38374">
        <ele>26.66</ele>
        <time>2019-06-02T13:05:39Z</time>
      </trkpt>
      <trkpt lat="44.85225" lon="-0.38372">
        <ele>26.67</ele>
        <time>2019-06-02T13:05:44Z</time>
      </trkpt>
      <trkpt lat="44.85222" lon="-0.3836">
        <ele>26.76</ele>
        <time>2019-06-02T13:05:49Z</time>
      </trkpt>
      <trkpt lat="44.85225" lon="-0.38332">
        <ele>26.77</ele>
        <time>2019-06-02T13:06:00Z</time>
      </trkpt>
      <trkpt lat="44.85225" lon="-0.3831">
        <ele>26.72</ele>
        <time>2019-06-02T13:06:06Z</time>
      </trkpt>
      <trkpt lat="44.85226" lon="-0.38303">
        <ele>26.71</ele>
        <time>2019-06-02T13:06:08Z</time>
      </trkpt>
      <trkpt lat="44.85235" lon="-0.38291">
        <ele>26.67</ele>
        <time>2019-06-02T13:06:14Z</time>
      </trkpt>
      <trkpt lat="44.85242" lon="-0.38287">
        <ele>26.65</ele>
        <time>2019-06-02T13:06:18Z</time>
      </trkpt>
      <trkpt lat="44.85263" lon="-0.38299">
        <ele>28.99</ele>
        <time>2019-06-02T13:06:30Z</time>
      </trkpt>
      <trkpt lat="44.85269" lon="-0.38293">
        <ele>29.71</ele>
        <time>2019-06-02T13:06:35Z</time>
      </trkpt>
      <trkpt lat="44.8527" lon="-0.38289">
        <ele>29.69</ele>
        <time>2019-06-02T13:06:38Z</time>
      </trkpt>
      <trkpt lat="44.85277" lon="-0.38285">
        <ele>30.38</ele>
        <time>2019-06-02T13:06:53Z</time>
      </trkpt>
      <trkpt lat="44.85282" lon="-0.3828">
        <ele>30.19</ele>
        <time>2019-06-02T13:07:11Z</time>
      </trkpt>
      <trkpt lat="44.85293" lon="-0.3827">
        <ele>30.1</ele>
        <time>2019-06-02T13:07:20Z</time>
      </trkpt>
      <trkpt lat="44.85301" lon="-0.38267">
        <ele>30.94</ele>
        <time>2019-06-02T13:07:25Z</time>
      </trkpt>
      <trkpt lat="44.85312" lon="-0.38274">
        <ele>31.72</ele>
        <time>2019-06-02T13:07:32Z</time>
      </trkpt>
      <trkpt lat="44.85318" lon="-0.38289">
        <ele>33.27</ele>
        <time>2019-06-02T13:07:40Z</time>
      </trkpt>
      <trkpt lat="44.85331" lon="-0.38308">
        <ele>36.56</ele>
        <time>2019-06-02T13:07:51Z</time>
      </trkpt>
      <trkpt lat="44.85342" lon="-0.38317">
        <ele>40.36</ele>
        <time>2019-06-02T13:08:01Z</time>
      </trkpt>
      <trkpt lat="44.85349" lon="-0.38328">
        <ele>43.62</ele>
        <time>2019-06-02T13:08:09Z</time>
      </trkpt>
      <trkpt lat="44.85355" lon="-0.38316">
        <ele>43.01</ele>
        <time>2019-06-02T13:08:23Z</time>
      </trkpt>
      <trkpt lat="44.85356" lon="-0.38314">
        <ele>43.44</ele>
        <time>2019-06-02T13:09:07Z</time>
      </trkpt>
      <trkpt lat="44.85358" lon="-0.38309">
        <ele>43.34</ele>
        <time>2019-06-02T13:09:46Z</time>
      </trkpt>
      <trkpt lat="44.85358" lon="-0.38298">
        <ele>43.32</ele>
        <time>2019-06-02T13:09:52Z</time>
      </trkpt>
      <trkpt lat="44.8536" lon="-0.38284">
        <ele>43.3</ele>
        <time>2019-06-02T13:09:58Z</time>
      </trkpt>
      <trkpt lat="44.85362" lon="-0.38268">
        <ele>41.01</ele>
        <time>2019-06-02T13:10:03Z</time>
      </trkpt>
      <trkpt lat="44.85362" lon="-0.38255">
        <ele>40</ele>
        <time>2019-06-02T13:10:07Z</time>
      </trkpt>
      <trkpt lat="44.85357" lon="-0.38245">
        <ele>39.11</ele>
        <time>2019-06-02T13:10:13Z</time>
      </trkpt>
      <trkpt lat="44.85347" lon="-0.38241">
        <ele>37.06</ele>
        <time>2019-06-02T13:10:17Z</time>
      </trkpt>
      <trkpt lat="44.85336" lon="-0.3824">
        <ele>35.66</ele>
        <time>2019-06-02T13:10:20Z</time>
      </trkpt>
      <trkpt lat="44.85331" lon="-0.38238">
        <ele>34.22</ele>
        <time>2019-06-02T13:10:22Z</time>
      </trkpt>
      <trkpt lat="44.85324" lon="-0.38231">
        <ele>33.17</ele>
        <time>2019-06-02T13:10:25Z</time>
      </trkpt>
      <trkpt lat="44.85321" lon="-0.38226">
        <ele>32.08</ele>
        <time>2019-06-02T13:10:27Z</time>
      </trkpt>
      <trkpt lat="44.85316" lon="-0.3822">
        <ele>31.1</ele>
        <time>2019-06-02T13:10:31Z</time>
      </trkpt>
      <trkpt lat="44.85299" lon="-0.3821">
        <ele>30.32</ele>
        <time>2019-06-02T13:10:40Z</time>
      </trkpt>
      <trkpt lat="44.85291" lon="-0.38187">
        <ele>29.51</ele>
        <time>2019-06-02T13:10:54Z</time>
      </trkpt>
      <trkpt lat="44.85286" lon="-0.38181">
        <ele>28.58</ele>
        <time>2019-06-02T13:11:24Z</time>
      </trkpt>
      <trkpt lat="44.85284" lon="-0.38181">
        <ele>28.59</ele>
        <time>2019-06-02T13:11:25Z</time>
      </trkpt>
      <trkpt lat="44.85276" lon="-0.3818">
        <ele>27.79</ele>
        <time>2019-06-02T13:11:29Z</time>
      </trkpt>
      <trkpt lat="44.85256" lon="-0.38178">
        <ele>26.93</ele>
        <time>2019-06-02T13:11:36Z</time>
      </trkpt>
      <trkpt lat="44.85248" lon="-0.38177">
        <ele>26.94</ele>
        <time>2019-06-02T13:11:41Z</time>
      </trkpt>
      <trkpt lat="44.85246" lon="-0.38172">
        <ele>26.94</ele>
        <time>2019-06-02T13:11:44Z</time>
      </trkpt>
      <trkpt lat="44.85245" lon="-0.38164">
        <ele>26.93</ele>
        <time>2019-06-02T13:11:50Z</time>
      </trkpt>
      <trkpt lat="44.85232" lon="-0.38144">
        <ele>26.06</ele>
        <time>2019-06-02T13:12:01Z</time>
      </trkpt>
      <trkpt lat="44.85228" lon="-0.38138">
        <ele>26.04</ele>
        <time>2019-06-02T13:12:04Z</time>
      </trkpt>
      <trkpt lat="44.85218" lon="-0.38124">
        <ele>25.98</ele>
        <time>2019-06-02T13:12:14Z</time>
      </trkpt>
      <trkpt lat="44.85198" lon="-0.38129">
        <ele>25.91</ele>
        <time>2019-06-02T13:12:25Z</time>
      </trkpt>
      <trkpt lat="44.85197" lon="-0.38135">
        <ele>25.83</ele>
        <time>2019-06-02T13:12:28Z</time>
      </trkpt>
      <trkpt lat="44.85187" lon="-0.38168">
        <ele>25.02</ele>
        <time>2019-06-02T13:12:40Z</time>
      </trkpt>
      <trkpt lat="44.85185" lon="-0.38178">
        <ele>25</ele>
        <time>2019-06-02T13:12:42Z</time>
      </trkpt>
      <trkpt lat="44.85183" lon="-0.3819">
        <ele>23.71</ele>
        <time>2019-06-02T13:12:44Z</time>
      </trkpt>
      <trkpt lat="44.85181" lon="-0.38214">
        <ele>22.62</ele>
        <time>2019-06-02T13:12:49Z</time>
      </trkpt>
      <trkpt lat="44.85169" lon="-0.38222">
        <ele>22.46</ele>
        <time>2019-06-02T13:13:00Z</time>
      </trkpt>
      <trkpt lat="44.85155" lon="-0.38222">
        <ele>22.22</ele>
        <time>2019-06-02T13:13:34Z</time>
      </trkpt>
      <trkpt lat="44.85149" lon="-0.38225">
        <ele>22.2</ele>
        <time>2019-06-02T13:13:36Z</time>
      </trkpt>
      <trkpt lat="44.85124" lon="-0.38226">
        <ele>22.14</ele>
        <time>2019-06-02T13:13:47Z</time>
      </trkpt>
      <trkpt lat="44.8512" lon="-0.38218">
        <ele>22.13</ele>
        <time>2019-06-02T13:13:55Z</time>
      </trkpt>
      <trkpt lat="44.85124" lon="-0.38217">
        <ele>22.1</ele>
        <time>2019-06-02T13:13:58Z</time>
      </trkpt>
      <trkpt lat="44.85127" lon="-0.38216">
        <ele>22.09</ele>
        <time>2019-06-02T13:14:00Z</time>
      </trkpt>
      <trkpt lat="44.85131" lon="-0.38213">
        <ele>22.06</ele>
        <time>2019-06-02T13:14:03Z</time>
      </trkpt>
      <trkpt lat="44.85136" lon="-0.38194">
        <ele>22.09</ele>
        <time>2019-06-02T13:14:11Z</time>
      </trkpt>
      <trkpt lat="44.85135" lon="-0.38183">
        <ele>22.02</ele>
        <time>2019-06-02T13:14:15Z</time>
      </trkpt>
      <trkpt lat="44.85134" lon="-0.38165">
        <ele>24.25</ele>
        <time>2019-06-02T13:14:21Z</time>
      </trkpt>
      <trkpt lat="44.85123" lon="-0.38129">
        <ele>25.04</ele>
        <time>2019-06-02T13:14:33Z</time>
      </trkpt>
      <trkpt lat="44.85123" lon="-0.38124">
        <ele>25.11</ele>
        <time>2019-06-02T13:14:35Z</time>
      </trkpt>
      <trkpt lat="44.85117" lon="-0.38113">
        <ele>25.04</ele>
        <time>2019-06-02T13:14:39Z</time>
      </trkpt>
      <trkpt lat="44.85113" lon="-0.38098">
        <ele>25.03</ele>
        <time>2019-06-02T13:14:43Z</time>
      </trkpt>
      <trkpt lat="44.85125" lon="-0.38066">
        <ele>25.01</ele>
        <time>2019-06-02T13:14:53Z</time>
      </trkpt>
      <trkpt lat="44.85136" lon="-0.38068">
        <ele>25.03</ele>
        <time>2019-06-02T13:14:58Z</time>
      </trkpt>
      <trkpt lat="44.8516" lon="-0.38061">
        <ele>25.14</ele>
        <time>2019-06-02T13:15:10Z</time>
      </trkpt>
      <trkpt lat="44.85161" lon="-0.38062">
        <ele>25.14</ele>
        <time>2019-06-02T13:15:11Z</time>
      </trkpt>
      <trkpt lat="44.85188" lon="-0.38063">
        <ele>25</ele>
        <time>2019-06-02T13:15:22Z</time>
      </trkpt>
      <trkpt lat="44.8519" lon="-0.38064">
        <ele>24.99</ele>
        <time>2019-06-02T13:15:23Z</time>
      </trkpt>
      <trkpt lat="44.85206" lon="-0.38068">
        <ele>24.96</ele>
        <time>2019-06-02T13:15:30Z</time>
      </trkpt>
      <trkpt lat="44.85216" lon="-0.38086">
        <ele>25.03</ele>
        <time>2019-06-02T13:15:41Z</time>
      </trkpt>
      <trkpt lat="44.85228" lon="-0.38092">
        <ele>24.98</ele>
        <time>2019-06-02T13:15:47Z</time>
      </trkpt>
      <trkpt lat="44.85239" lon="-0.38098">
        <ele>24.89</ele>
        <time>2019-06-02T13:15:58Z</time>
      </trkpt>
      <trkpt lat="44.85254" lon="-0.38083">
        <ele>24.79</ele>
        <time>2019-06-02T13:16:07Z</time>
      </trkpt>
      <trkpt lat="44.85287" lon="-0.38085">
        <ele>26.46</ele>
        <time>2019-06-02T13:16:21Z</time>
      </trkpt>
      <trkpt lat="44.85308" lon="-0.38095">
        <ele>27.2</ele>
        <time>2019-06-02T13:16:31Z</time>
      </trkpt>
      <trkpt lat="44.85312" lon="-0.38092">
        <ele>28.11</ele>
        <time>2019-06-02T13:16:35Z</time>
      </trkpt>
      <trkpt lat="44.85332" lon="-0.38076">
        <ele>29.55</ele>
        <time>2019-06-02T13:16:49Z</time>
      </trkpt>
      <trkpt lat="44.85335" lon="-0.38075">
        <ele>29.53</ele>
        <time>2019-06-02T13:16:51Z</time>
      </trkpt>
      <trkpt lat="44.85343" lon="-0.38069">
        <ele>30.34</ele>
        <time>2019-06-02T13:16:56Z</time>
      </trkpt>
      <trkpt lat="44.85367" lon="-0.3807">
        <ele>33.33</ele>
        <time>2019-06-02T13:17:09Z</time>
      </trkpt>
      <trkpt lat="44.85373" lon="-0.38067">
        <ele>35.02</ele>
        <time>2019-06-02T13:17:18Z</time>
      </trkpt>
      <trkpt lat="44.8538" lon="-0.38053">
        <ele>35.63</ele>
        <time>2019-06-02T13:17:27Z</time>
      </trkpt>
      <trkpt lat="44.85385" lon="-0.38042">
        <ele>36.35</ele>
        <time>2019-06-02T13:17:34Z</time>
      </trkpt>
      <trkpt lat="44.85387" lon="-0.38036">
        <ele>37.13</ele>
        <time>2019-06-02T13:17:38Z</time>
      </trkpt>
      <trkpt lat="44.85389" lon="-0.38029">
        <ele>37.91</ele>
        <time>2019-06-02T13:17:42Z</time>
      </trkpt>
      <trkpt lat="44.85399" lon="-0.38013">
        <ele>41.65</ele>
        <time>2019-06-02T13:17:53Z</time>
      </trkpt>
      <trkpt lat="44.85408" lon="-0.38005">
        <ele>44.72</ele>
        <time>2019-06-02T13:18:09Z</time>
      </trkpt>
      <trkpt lat="44.85424" lon="-0.38002">
        <ele>47.13</ele>
        <time>2019-06-02T13:18:28Z</time>
      </trkpt>
      <trkpt lat="44.85434" lon="-0.37996">
        <ele>47.91</ele>
        <time>2019-06-02T13:18:44Z</time>
      </trkpt>
      <trkpt lat="44.85441" lon="-0.37993">
        <ele>48.9</ele>
        <time>2019-06-02T13:18:59Z</time>
      </trkpt>
      <trkpt lat="44.85448" lon="-0.3799">
        <ele>49.65</ele>
        <time>2019-06-02T13:19:17Z</time>
      </trkpt>
      <trkpt lat="44.8545" lon="-0.3799">
        <ele>49.69</ele>
        <time>2019-06-02T13:19:45Z</time>
      </trkpt>
      <trkpt lat="44.8545" lon="-0.37989">
        <ele>49.72</ele>
        <time>2019-06-02T13:20:18Z</time>
      </trkpt>
      <trkpt lat="44.85451" lon="-0.37987">
        <ele>49.79</ele>
        <time>2019-06-02T13:20:53Z</time>
      </trkpt>
      <trkpt lat="44.85453" lon="-0.37989">
        <ele>49.86</ele>
        <time>2019-06-02T13:21:35Z</time>
      </trkpt>
      <trkpt lat="44.85453" lon="-0.3799">
        <ele>49.88</ele>
        <time>2019-06-02T13:21:51Z</time>
      </trkpt>
      <trkpt lat="44.85461" lon="-0.37981">
        <ele>49.9</ele>
        <time>2019-06-02T13:21:58Z</time>
      </trkpt>
      <trkpt lat="44.85494" lon="-0.37961">
        <ele>51.67</ele>
        <time>2019-06-02T13:22:16Z</time>
      </trkpt>
      <trkpt lat="44.85541" lon="-0.37927">
        <ele>51.53</ele>
        <time>2019-06-02T13:22:34Z</time>
      </trkpt>
      <trkpt lat="44.85584" lon="-0.37898">
        <ele>51.61</ele>
        <time>2019-06-02T13:22:50Z</time>
      </trkpt>
      <trkpt lat="44.85623" lon="-0.37871">
        <ele>54.35</ele>
        <time>2019-06-02T13:23:06Z</time>
      </trkpt>
      <trkpt lat="44.85648" lon="-0.37882">
        <ele>57.02</ele>
        <time>2019-06-02T13:23:18Z</time>
      </trkpt>
      <trkpt lat="44.85672" lon="-0.37928">
        <ele>57.03</ele>
        <time>2019-06-02T13:23:34Z</time>
      </trkpt>
      <trkpt lat="44.85679" lon="-0.37941">
        <ele>57.81</ele>
        <time>2019-06-02T13:23:39Z</time>
      </trkpt>
      <trkpt lat="44.85681" lon="-0.37941">
        <ele>57.8</ele>
        <time>2019-06-02T13:23:40Z</time>
      </trkpt>
      <trkpt lat="44.85683" lon="-0.3794">
        <ele>57.8</ele>
        <time>2019-06-02T13:23:41Z</time>
      </trkpt>
      <trkpt lat="44.85693" lon="-0.37937">
        <ele>58.65</ele>
        <time>2019-06-02T13:23:52Z</time>
      </trkpt>
      <trkpt lat="44.85692" lon="-0.37937">
        <ele>58.62</ele>
        <time>2019-06-02T13:23:53Z</time>
      </trkpt>
      <trkpt lat="44.8569" lon="-0.37938">
        <ele>58.58</ele>
        <time>2019-06-02T13:23:54Z</time>
      </trkpt>
      <trkpt lat="44.85683" lon="-0.37944">
        <ele>58.55</ele>
        <time>2019-06-02T13:23:58Z</time>
      </trkpt>
      <trkpt lat="44.85682" lon="-0.37946">
        <ele>58.57</ele>
        <time>2019-06-02T13:23:59Z</time>
      </trkpt>
      <trkpt lat="44.85682" lon="-0.37949">
        <ele>58.56</ele>
        <time>2019-06-02T13:24:00Z</time>
      </trkpt>
      <trkpt lat="44.85682" lon="-0.37952">
        <ele>58.55</ele>
        <time>2019-06-02T13:24:01Z</time>
      </trkpt>
      <trkpt lat="44.85683" lon="-0.37956">
        <ele>58.55</ele>
        <time>2019-06-02T13:24:02Z</time>
      </trkpt>
      <trkpt lat="44.85688" lon="-0.37968">
        <ele>58.51</ele>
        <time>2019-06-02T13:24:06Z</time>
      </trkpt>
      <trkpt lat="44.8569" lon="-0.37969">
        <ele>58.49</ele>
        <time>2019-06-02T13:24:07Z</time>
      </trkpt>
      <trkpt lat="44.85693" lon="-0.3797">
        <ele>58.5</ele>
        <time>2019-06-02T13:24:08Z</time>
      </trkpt>
      <trkpt lat="44.85696" lon="-0.37969">
        <ele>58.49</ele>
        <time>2019-06-02T13:24:09Z</time>
      </trkpt>
      <trkpt lat="44.85698" lon="-0.37969">
        <ele>58.49</ele>
        <time>2019-06-02T13:24:10Z</time>
      </trkpt>
      <trkpt lat="44.85726" lon="-0.37952">
        <ele>59.4</ele>
        <time>2019-06-02T13:24:23Z</time>
      </trkpt>
      <trkpt lat="44.85733" lon="-0.37947">
        <ele>59.39</ele>
        <time>2019-06-02T13:24:26Z</time>
      </trkpt>
      <trkpt lat="44.85775" lon="-0.37939">
        <ele>62.01</ele>
        <time>2019-06-02T13:24:42Z</time>
      </trkpt>
      <trkpt lat="44.85805" lon="-0.37924">
        <ele>62.8</ele>
        <time>2019-06-02T13:24:55Z</time>
      </trkpt>
      <trkpt lat="44.85836" lon="-0.37911">
        <ele>63.6</ele>
        <time>2019-06-02T13:25:07Z</time>
      </trkpt>
      <trkpt lat="44.85871" lon="-0.37896">
        <ele>60.83</ele>
        <time>2019-06-02T13:25:18Z</time>
      </trkpt>
      <trkpt lat="44.85902" lon="-0.37888">
        <ele>58.99</ele>
        <time>2019-06-02T13:25:29Z</time>
      </trkpt>
      <trkpt lat="44.85935" lon="-0.37883">
        <ele>58.2</ele>
        <time>2019-06-02T13:25:40Z</time>
      </trkpt>
      <trkpt lat="44.85971" lon="-0.37875">
        <ele>58.27</ele>
        <time>2019-06-02T13:25:52Z</time>
      </trkpt>
      <trkpt lat="44.8599" lon="-0.37871">
        <ele>58.27</ele>
        <time>2019-06-02T13:25:59Z</time>
      </trkpt>
      <trkpt lat="44.85997" lon="-0.37872">
        <ele>58.25</ele>
        <time>2019-06-02T13:26:15Z</time>
      </trkpt>
      <trkpt lat="44.85998" lon="-0.37872">
        <ele>58.21</ele>
        <time>2019-06-02T13:26:33Z</time>
      </trkpt>
      <trkpt lat="44.86" lon="-0.37866">
        <ele>58.22</ele>
        <time>2019-06-02T13:26:37Z</time>
      </trkpt>
      <trkpt lat="44.86005" lon="-0.3786">
        <ele>60.54</ele>
        <time>2019-06-02T13:26:41Z</time>
      </trkpt>
      <trkpt lat="44.86013" lon="-0.37853">
        <ele>61.37</ele>
        <time>2019-06-02T13:26:46Z</time>
      </trkpt>
      <trkpt lat="44.86036" lon="-0.37841">
        <ele>64.45</ele>
        <time>2019-06-02T13:26:58Z</time>
      </trkpt>
      <trkpt lat="44.86035" lon="-0.37833">
        <ele>64.37</ele>
        <time>2019-06-02T13:27:02Z</time>
      </trkpt>
      <trkpt lat="44.86024" lon="-0.37794">
        <ele>64.16</ele>
        <time>2019-06-02T13:27:12Z</time>
      </trkpt>
      <trkpt lat="44.86023" lon="-0.37775">
        <ele>61.57</ele>
        <time>2019-06-02T13:27:15Z</time>
      </trkpt>
      <trkpt lat="44.86022" lon="-0.3777">
        <ele>61.56</ele>
        <time>2019-06-02T13:27:16Z</time>
      </trkpt>
      <trkpt lat="44.86014" lon="-0.37728">
        <ele>60.65</ele>
        <time>2019-06-02T13:27:24Z</time>
      </trkpt>
      <trkpt lat="44.86013" lon="-0.37708">
        <ele>58.26</ele>
        <time>2019-06-02T13:27:27Z</time>
      </trkpt>
      <trkpt lat="44.86014" lon="-0.37697">
        <ele>57.1</ele>
        <time>2019-06-02T13:27:29Z</time>
      </trkpt>
      <trkpt lat="44.86025" lon="-0.37658">
        <ele>57.2</ele>
        <time>2019-06-02T13:27:41Z</time>
      </trkpt>
      <trkpt lat="44.86025" lon="-0.37653">
        <ele>59.59</ele>
        <time>2019-06-02T13:27:43Z</time>
      </trkpt>
      <trkpt lat="44.86006" lon="-0.37631">
        <ele>60.38</ele>
        <time>2019-06-02T13:27:56Z</time>
      </trkpt>
      <trkpt lat="44.85997" lon="-0.3763">
        <ele>60.3</ele>
        <time>2019-06-02T13:27:59Z</time>
      </trkpt>
      <trkpt lat="44.85983" lon="-0.3763">
        <ele>57.72</ele>
        <time>2019-06-02T13:28:02Z</time>
      </trkpt>
      <trkpt lat="44.85968" lon="-0.37621">
        <ele>56.63</ele>
        <time>2019-06-02T13:28:06Z</time>
      </trkpt>
      <trkpt lat="44.85964" lon="-0.37608">
        <ele>56.7</ele>
        <time>2019-06-02T13:28:24Z</time>
      </trkpt>
      <trkpt lat="44.85963" lon="-0.37608">
        <ele>56.57</ele>
        <time>2019-06-02T13:29:01Z</time>
      </trkpt>
      <trkpt lat="44.85961" lon="-0.37607">
        <ele>56.55</ele>
        <time>2019-06-02T13:29:07Z</time>
      </trkpt>
      <trkpt lat="44.85954" lon="-0.37608">
        <ele>56.53</ele>
        <time>2019-06-02T13:29:11Z</time>
      </trkpt>
      <trkpt lat="44.85949" lon="-0.37608">
        <ele>55.57</ele>
        <time>2019-06-02T13:29:13Z</time>
      </trkpt>
      <trkpt lat="44.85942" lon="-0.37615">
        <ele>53.09</ele>
        <time>2019-06-02T13:29:17Z</time>
      </trkpt>
      <trkpt lat="44.8594" lon="-0.37617">
        <ele>51.78</ele>
        <time>2019-06-02T13:29:18Z</time>
      </trkpt>
      <trkpt lat="44.85936" lon="-0.37619">
        <ele>50.88</ele>
        <time>2019-06-02T13:29:20Z</time>
      </trkpt>
      <trkpt lat="44.85931" lon="-0.37621">
        <ele>48.97</ele>
        <time>2019-06-02T13:29:23Z</time>
      </trkpt>
      <trkpt lat="44.85927" lon="-0.37627">
        <ele>47.42</ele>
        <time>2019-06-02T13:29:26Z</time>
      </trkpt>
      <trkpt lat="44.85916" lon="-0.37634">
        <ele>43.94</ele>
        <time>2019-06-02T13:29:31Z</time>
      </trkpt>
      <trkpt lat="44.85883" lon="-0.37646">
        <ele>46.72</ele>
        <time>2019-06-02T13:29:42Z</time>
      </trkpt>
      <trkpt lat="44.8587" lon="-0.37655">
        <ele>49.79</ele>
        <time>2019-06-02T13:29:49Z</time>
      </trkpt>
      <trkpt lat="44.85863" lon="-0.37661">
        <ele>50.66</ele>
        <time>2019-06-02T13:29:52Z</time>
      </trkpt>
      <trkpt lat="44.85853" lon="-0.37667">
        <ele>51.53</ele>
        <time>2019-06-02T13:29:57Z</time>
      </trkpt>
      <trkpt lat="44.8585" lon="-0.37668">
        <ele>52.82</ele>
        <time>2019-06-02T13:29:59Z</time>
      </trkpt>
      <trkpt lat="44.85843" lon="-0.3767">
        <ele>53.75</ele>
        <time>2019-06-02T13:30:03Z</time>
      </trkpt>
      <trkpt lat="44.85848" lon="-0.37659">
        <ele>54.34</ele>
        <time>2019-06-02T13:30:13Z</time>
      </trkpt>
      <trkpt lat="44.85852" lon="-0.37655">
        <ele>51.85</ele>
        <time>2019-06-02T13:30:17Z</time>
      </trkpt>
      <trkpt lat="44.85855" lon="-0.37654">
        <ele>50.71</ele>
        <time>2019-06-02T13:30:19Z</time>
      </trkpt>
      <trkpt lat="44.85867" lon="-0.37645">
        <ele>47.35</ele>
        <time>2019-06-02T13:30:25Z</time>
      </trkpt>
      <trkpt lat="44.85868" lon="-0.37644">
        <ele>47.33</ele>
        <time>2019-06-02T13:30:26Z</time>
      </trkpt>
      <trkpt lat="44.85867" lon="-0.37632">
        <ele>46.35</ele>
        <time>2019-06-02T13:30:30Z</time>
      </trkpt>
      <trkpt lat="44.8586" lon="-0.37609">
        <ele>44.77</ele>
        <time>2019-06-02T13:30:41Z</time>
      </trkpt>
      <trkpt lat="44.85857" lon="-0.37606">
        <ele>47.08</ele>
        <time>2019-06-02T13:30:47Z</time>
      </trkpt>
      <trkpt lat="44.8586" lon="-0.37606">
        <ele>46.76</ele>
        <time>2019-06-02T13:31:12Z</time>
      </trkpt>
      <trkpt lat="44.85859" lon="-0.37613">
        <ele>47.24</ele>
        <time>2019-06-02T13:31:48Z</time>
      </trkpt>
      <trkpt lat="44.85859" lon="-0.37614">
        <ele>47.24</ele>
        <time>2019-06-02T13:31:49Z</time>
      </trkpt>
      <trkpt lat="44.85859" lon="-0.37618">
        <ele>47.21</ele>
        <time>2019-06-02T13:31:52Z</time>
      </trkpt>
      <trkpt lat="44.85857" lon="-0.37627">
        <ele>47.21</ele>
        <time>2019-06-02T13:31:58Z</time>
      </trkpt>
      <trkpt lat="44.85841" lon="-0.37634">
        <ele>50.04</ele>
        <time>2019-06-02T13:32:06Z</time>
      </trkpt>
      <trkpt lat="44.85837" lon="-0.37633">
        <ele>51.74</ele>
        <time>2019-06-02T13:32:10Z</time>
      </trkpt>
      <trkpt lat="44.85844" lon="-0.3762">
        <ele>48.98</ele>
        <time>2019-06-02T13:32:18Z</time>
      </trkpt>
      <trkpt lat="44.85843" lon="-0.37616">
        <ele>48.88</ele>
        <time>2019-06-02T13:32:20Z</time>
      </trkpt>
      <trkpt lat="44.85845" lon="-0.37597">
        <ele>46.68</ele>
        <time>2019-06-02T13:32:28Z</time>
      </trkpt>
      <trkpt lat="44.85842" lon="-0.3759">
        <ele>45.94</ele>
        <time>2019-06-02T13:32:35Z</time>
      </trkpt>
      <trkpt lat="44.85842" lon="-0.37595">
        <ele>45.98</ele>
        <time>2019-06-02T13:32:39Z</time>
      </trkpt>
      <trkpt lat="44.85839" lon="-0.37595">
        <ele>48.34</ele>
        <time>2019-06-02T13:32:41Z</time>
      </trkpt>
      <trkpt lat="44.85837" lon="-0.37592">
        <ele>48.32</ele>
        <time>2019-06-02T13:32:44Z</time>
      </trkpt>
      <trkpt lat="44.85835" lon="-0.376">
        <ele>49.57</ele>
        <time>2019-06-02T13:32:50Z</time>
      </trkpt>
      <trkpt lat="44.85827" lon="-0.37603">
        <ele>50.34</ele>
        <time>2019-06-02T13:33:05Z</time>
      </trkpt>
      <trkpt lat="44.85823" lon="-0.37599">
        <ele>50.25</ele>
        <time>2019-06-02T13:33:15Z</time>
      </trkpt>
      <trkpt lat="44.85823" lon="-0.37589">
        <ele>50.21</ele>
        <time>2019-06-02T13:33:19Z</time>
      </trkpt>
      <trkpt lat="44.85825" lon="-0.37584">
        <ele>47.81</ele>
        <time>2019-06-02T13:33:21Z</time>
      </trkpt>
      <trkpt lat="44.85828" lon="-0.37581">
        <ele>46.7</ele>
        <time>2019-06-02T13:33:23Z</time>
      </trkpt>
      <trkpt lat="44.8583" lon="-0.37561">
        <ele>44.06</ele>
        <time>2019-06-02T13:33:29Z</time>
      </trkpt>
      <trkpt lat="44.85834" lon="-0.37531">
        <ele>41.67</ele>
        <time>2019-06-02T13:33:38Z</time>
      </trkpt>
      <trkpt lat="44.85834" lon="-0.37529">
        <ele>41.62</ele>
        <time>2019-06-02T13:33:39Z</time>
      </trkpt>
      <trkpt lat="44.8584" lon="-0.37521">
        <ele>40.87</ele>
        <time>2019-06-02T13:33:43Z</time>
      </trkpt>
      <trkpt lat="44.85842" lon="-0.37521">
        <ele>40.85</ele>
        <time>2019-06-02T13:33:46Z</time>
      </trkpt>
      <trkpt lat="44.85847" lon="-0.3752">
        <ele>40.85</ele>
        <time>2019-06-02T13:33:49Z</time>
      </trkpt>
      <trkpt lat="44.85861" lon="-0.37514">
        <ele>39.2</ele>
        <time>2019-06-02T13:33:55Z</time>
      </trkpt>
      <trkpt lat="44.85868" lon="-0.37515">
        <ele>39.18</ele>
        <time>2019-06-02T13:33:58Z</time>
      </trkpt>
      <trkpt lat="44.85881" lon="-0.37521">
        <ele>41.49</ele>
        <time>2019-06-02T13:34:07Z</time>
      </trkpt>
      <trkpt lat="44.85888" lon="-0.37521">
        <ele>42.26</ele>
        <time>2019-06-02T13:34:11Z</time>
      </trkpt>
      <trkpt lat="44.85893" lon="-0.37523">
        <ele>42.17</ele>
        <time>2019-06-02T13:34:19Z</time>
      </trkpt>
      <trkpt lat="44.85899" lon="-0.3752">
        <ele>42.11</ele>
        <time>2019-06-02T13:34:23Z</time>
      </trkpt>
      <trkpt lat="44.85906" lon="-0.37527">
        <ele>42.89</ele>
        <time>2019-06-02T13:34:28Z</time>
      </trkpt>
      <trkpt lat="44.85912" lon="-0.37526">
        <ele>44.09</ele>
        <time>2019-06-02T13:34:33Z</time>
      </trkpt>
      <trkpt lat="44.85912" lon="-0.37525">
        <ele>44.09</ele>
        <time>2019-06-02T13:34:34Z</time>
      </trkpt>
      <trkpt lat="44.85914" lon="-0.37519">
        <ele>44.06</ele>
        <time>2019-06-02T13:34:38Z</time>
      </trkpt>
      <trkpt lat="44.8592" lon="-0.37524">
        <ele>44.88</ele>
        <time>2019-06-02T13:34:43Z</time>
      </trkpt>
      <trkpt lat="44.8593" lon="-0.37538">
        <ele>47.92</ele>
        <time>2019-06-02T13:34:53Z</time>
      </trkpt>
      <trkpt lat="44.85938" lon="-0.37534">
        <ele>49.9</ele>
        <time>2019-06-02T13:35:02Z</time>
      </trkpt>
      <trkpt lat="44.8594" lon="-0.3753">
        <ele>50.73</ele>
        <time>2019-06-02T13:35:05Z</time>
      </trkpt>
      <trkpt lat="44.85952" lon="-0.37531">
        <ele>53.38</ele>
        <time>2019-06-02T13:35:13Z</time>
      </trkpt>
      <trkpt lat="44.85949" lon="-0.37519">
        <ele>53.24</ele>
        <time>2019-06-02T13:35:30Z</time>
      </trkpt>
      <trkpt lat="44.85946" lon="-0.37516">
        <ele>53.26</ele>
        <time>2019-06-02T13:36:08Z</time>
      </trkpt>
      <trkpt lat="44.85944" lon="-0.37514">
        <ele>53.41</ele>
        <time>2019-06-02T13:36:50Z</time>
      </trkpt>
      <trkpt lat="44.85946" lon="-0.37513">
        <ele>53.64</ele>
        <time>2019-06-02T13:37:38Z</time>
      </trkpt>
      <trkpt lat="44.85943" lon="-0.37509">
        <ele>53.83</ele>
        <time>2019-06-02T13:38:21Z</time>
      </trkpt>
      <trkpt lat="44.85939" lon="-0.37503">
        <ele>53.94</ele>
        <time>2019-06-02T13:38:50Z</time>
      </trkpt>
      <trkpt lat="44.85939" lon="-0.37501">
        <ele>53.94</ele>
        <time>2019-06-02T13:38:51Z</time>
      </trkpt>
      <trkpt lat="44.85937" lon="-0.37489">
        <ele>53.92</ele>
        <time>2019-06-02T13:38:56Z</time>
      </trkpt>
      <trkpt lat="44.85935" lon="-0.37484">
        <ele>51.52</ele>
        <time>2019-06-02T13:38:58Z</time>
      </trkpt>
      <trkpt lat="44.85932" lon="-0.37469">
        <ele>51.51</ele>
        <time>2019-06-02T13:39:02Z</time>
      </trkpt>
      <trkpt lat="44.85924" lon="-0.37437">
        <ele>50.79</ele>
        <time>2019-06-02T13:39:13Z</time>
      </trkpt>
      <trkpt lat="44.85922" lon="-0.37431">
        <ele>50.79</ele>
        <time>2019-06-02T13:39:15Z</time>
      </trkpt>
      <trkpt lat="44.85909" lon="-0.37423">
        <ele>47.43</ele>
        <time>2019-06-02T13:39:21Z</time>
      </trkpt>
      <trkpt lat="44.85907" lon="-0.37424">
        <ele>46.28</ele>
        <time>2019-06-02T13:39:22Z</time>
      </trkpt>
      <trkpt lat="44.85905" lon="-0.37425">
        <ele>45.1</ele>
        <time>2019-06-02T13:39:24Z</time>
      </trkpt>
      <trkpt lat="44.859" lon="-0.37423">
        <ele>43.85</ele>
        <time>2019-06-02T13:39:27Z</time>
      </trkpt>
      <trkpt lat="44.85899" lon="-0.37421">
        <ele>42.45</ele>
        <time>2019-06-02T13:39:28Z</time>
      </trkpt>
      <trkpt lat="44.85896" lon="-0.37417">
        <ele>42.45</ele>
        <time>2019-06-02T13:39:30Z</time>
      </trkpt>
      <trkpt lat="44.85892" lon="-0.37411">
        <ele>40.55</ele>
        <time>2019-06-02T13:39:33Z</time>
      </trkpt>
      <trkpt lat="44.85877" lon="-0.37396">
        <ele>38.67</ele>
        <time>2019-06-02T13:39:39Z</time>
      </trkpt>
      <trkpt lat="44.85873" lon="-0.37403">
        <ele>37.58</ele>
        <time>2019-06-02T13:39:43Z</time>
      </trkpt>
      <trkpt lat="44.85869" lon="-0.37413">
        <ele>36.69</ele>
        <time>2019-06-02T13:39:47Z</time>
      </trkpt>
      <trkpt lat="44.85864" lon="-0.37415">
        <ele>35.65</ele>
        <time>2019-06-02T13:39:50Z</time>
      </trkpt>
      <trkpt lat="44.85864" lon="-0.37429">
        <ele>35.65</ele>
        <time>2019-06-02T13:40:01Z</time>
      </trkpt>
      <trkpt lat="44.85864" lon="-0.37429">
        <ele>35.64</ele>
        <time>2019-06-02T13:40:02Z</time>
      </trkpt>
      <trkpt lat="44.85855" lon="-0.37442">
        <ele>35.47</ele>
        <time>2019-06-02T13:40:18Z</time>
      </trkpt>
      <trkpt lat="44.85852" lon="-0.37445">
        <ele>37.85</ele>
        <time>2019-06-02T13:40:21Z</time>
      </trkpt>
      <trkpt lat="44.85851" lon="-0.37445">
        <ele>37.82</ele>
        <time>2019-06-02T13:40:23Z</time>
      </trkpt>
      <trkpt lat="44.85841" lon="-0.37434">
        <ele>37.75</ele>
        <time>2019-06-02T13:40:30Z</time>
      </trkpt>
      <trkpt lat="44.85835" lon="-0.37445">
        <ele>40.25</ele>
        <time>2019-06-02T13:40:41Z</time>
      </trkpt>
      <trkpt lat="44.85835" lon="-0.37457">
        <ele>40.98</ele>
        <time>2019-06-02T13:40:49Z</time>
      </trkpt>
      <trkpt lat="44.85844" lon="-0.37479">
        <ele>41.45</ele>
        <time>2019-06-02T13:41:05Z</time>
      </trkpt>
      <trkpt lat="44.85844" lon="-0.37497">
        <ele>42.1</ele>
        <time>2019-06-02T13:41:17Z</time>
      </trkpt>
      <trkpt lat="44.85839" lon="-0.37508">
        <ele>41.99</ele>
        <time>2019-06-02T13:41:25Z</time>
      </trkpt>
      <trkpt lat="44.85836" lon="-0.3753">
        <ele>42.6</ele>
        <time>2019-06-02T13:41:40Z</time>
      </trkpt>
      <trkpt lat="44.8583" lon="-0.37554">
        <ele>45.12</ele>
        <time>2019-06-02T13:41:54Z</time>
      </trkpt>
      <trkpt lat="44.85827" lon="-0.37582">
        <ele>47.54</ele>
        <time>2019-06-02T13:42:06Z</time>
      </trkpt>
      <trkpt lat="44.85821" lon="-0.37591">
        <ele>48.27</ele>
        <time>2019-06-02T13:42:11Z</time>
      </trkpt>
      <trkpt lat="44.85813" lon="-0.376">
        <ele>49.06</ele>
        <time>2019-06-02T13:42:23Z</time>
      </trkpt>
      <trkpt lat="44.85811" lon="-0.37599">
        <ele>48.98</ele>
        <time>2019-06-02T13:42:30Z</time>
      </trkpt>
      <trkpt lat="44.85805" lon="-0.37578">
        <ele>46.32</ele>
        <time>2019-06-02T13:42:39Z</time>
      </trkpt>
      <trkpt lat="44.85806" lon="-0.37572">
        <ele>45.01</ele>
        <time>2019-06-02T13:42:41Z</time>
      </trkpt>
      <trkpt lat="44.85806" lon="-0.37564">
        <ele>43.77</ele>
        <time>2019-06-02T13:42:43Z</time>
      </trkpt>
      <trkpt lat="44.85806" lon="-0.37553">
        <ele>43.76</ele>
        <time>2019-06-02T13:42:46Z</time>
      </trkpt>
      <trkpt lat="44.85809" lon="-0.37541">
        <ele>43.74</ele>
        <time>2019-06-02T13:42:50Z</time>
      </trkpt>
      <trkpt lat="44.8581" lon="-0.37531">
        <ele>43.71</ele>
        <time>2019-06-02T13:42:54Z</time>
      </trkpt>
      <trkpt lat="44.85806" lon="-0.37517">
        <ele>41.79</ele>
        <time>2019-06-02T13:42:59Z</time>
      </trkpt>
      <trkpt lat="44.85798" lon="-0.37482">
        <ele>39.92</ele>
        <time>2019-06-02T13:43:11Z</time>
      </trkpt>
      <trkpt lat="44.85797" lon="-0.37483">
        <ele>39.9</ele>
        <time>2019-06-02T13:43:12Z</time>
      </trkpt>
      <trkpt lat="44.85797" lon="-0.3748">
        <ele>39.88</ele>
        <time>2019-06-02T13:43:14Z</time>
      </trkpt>
      <trkpt lat="44.85793" lon="-0.37482">
        <ele>42.19</ele>
        <time>2019-06-02T13:43:21Z</time>
      </trkpt>
      <trkpt lat="44.8578" lon="-0.37481">
        <ele>43</ele>
        <time>2019-06-02T13:43:31Z</time>
      </trkpt>
      <trkpt lat="44.85772" lon="-0.37482">
        <ele>42.95</ele>
        <time>2019-06-02T13:43:35Z</time>
      </trkpt>
      <trkpt lat="44.85753" lon="-0.37483">
        <ele>45.52</ele>
        <time>2019-06-02T13:43:45Z</time>
      </trkpt>
      <trkpt lat="44.85751" lon="-0.37481">
        <ele>45.5</ele>
        <time>2019-06-02T13:43:47Z</time>
      </trkpt>
      <trkpt lat="44.85744" lon="-0.37475">
        <ele>47.2</ele>
        <time>2019-06-02T13:43:57Z</time>
      </trkpt>
      <trkpt lat="44.85741" lon="-0.37475">
        <ele>48.12</ele>
        <time>2019-06-02T13:44:02Z</time>
      </trkpt>
      <trkpt lat="44.85737" lon="-0.37475">
        <ele>48.9</ele>
        <time>2019-06-02T13:44:05Z</time>
      </trkpt>
      <trkpt lat="44.85734" lon="-0.37476">
        <ele>48.87</ele>
        <time>2019-06-02T13:44:07Z</time>
      </trkpt>
      <trkpt lat="44.85734" lon="-0.37457">
        <ele>48.81</ele>
        <time>2019-06-02T13:44:15Z</time>
      </trkpt>
      <trkpt lat="44.85735" lon="-0.37451">
        <ele>48.78</ele>
        <time>2019-06-02T13:44:18Z</time>
      </trkpt>
      <trkpt lat="44.85726" lon="-0.37442">
        <ele>48.75</ele>
        <time>2019-06-02T13:44:27Z</time>
      </trkpt>
      <trkpt lat="44.85716" lon="-0.37437">
        <ele>48.76</ele>
        <time>2019-06-02T13:45:15Z</time>
      </trkpt>
      <trkpt lat="44.85713" lon="-0.37436">
        <ele>48.84</ele>
        <time>2019-06-02T13:46:09Z</time>
      </trkpt>
      <trkpt lat="44.85713" lon="-0.37436">
        <ele>48.9</ele>
        <time>2019-06-02T13:46:47Z</time>
      </trkpt>
      <trkpt lat="44.85713" lon="-0.37432">
        <ele>48.91</ele>
        <time>2019-06-02T13:47:00Z</time>
      </trkpt>
      <trkpt lat="44.85719" lon="-0.37422">
        <ele>46.47</ele>
        <time>2019-06-02T13:47:08Z</time>
      </trkpt>
      <trkpt lat="44.8573" lon="-0.37429">
        <ele>46.49</ele>
        <time>2019-06-02T13:47:23Z</time>
      </trkpt>
      <trkpt lat="44.85735" lon="-0.37432">
        <ele>46.49</ele>
        <time>2019-06-02T13:47:26Z</time>
      </trkpt>
      <trkpt lat="44.85743" lon="-0.37434">
        <ele>44.32</ele>
        <time>2019-06-02T13:47:37Z</time>
      </trkpt>
      <trkpt lat="44.85746" lon="-0.37432">
        <ele>44.28</ele>
        <time>2019-06-02T13:47:50Z</time>
      </trkpt>
      <trkpt lat="44.85754" lon="-0.37428">
        <ele>42.07</ele>
        <time>2019-06-02T13:47:54Z</time>
      </trkpt>
      <trkpt lat="44.85758" lon="-0.37429">
        <ele>40.79</ele>
        <time>2019-06-02T13:47:56Z</time>
      </trkpt>
      <trkpt lat="44.85765" lon="-0.37426">
        <ele>39.97</ele>
        <time>2019-06-02T13:48:04Z</time>
      </trkpt>
      <trkpt lat="44.8577" lon="-0.37421">
        <ele>37.73</ele>
        <time>2019-06-02T13:48:07Z</time>
      </trkpt>
      <trkpt lat="44.85783" lon="-0.37414">
        <ele>35.5</ele>
        <time>2019-06-02T13:48:13Z</time>
      </trkpt>
      <trkpt lat="44.85788" lon="-0.37411">
        <ele>34.27</ele>
        <time>2019-06-02T13:48:15Z</time>
      </trkpt>
      <trkpt lat="44.858" lon="-0.37408">
        <ele>34.27</ele>
        <time>2019-06-02T13:48:19Z</time>
      </trkpt>
      <trkpt lat="44.85809" lon="-0.37399">
        <ele>33.12</ele>
        <time>2019-06-02T13:48:24Z</time>
      </trkpt>
      <trkpt lat="44.85809" lon="-0.37389">
        <ele>33.09</ele>
        <time>2019-06-02T13:48:29Z</time>
      </trkpt>
      <trkpt lat="44.85809" lon="-0.37385">
        <ele>33.1</ele>
        <time>2019-06-02T13:48:31Z</time>
      </trkpt>
      <trkpt lat="44.85808" lon="-0.37372">
        <ele>32.19</ele>
        <time>2019-06-02T13:48:47Z</time>
      </trkpt>
      <trkpt lat="44.85811" lon="-0.37362">
        <ele>32.14</ele>
        <time>2019-06-02T13:48:52Z</time>
      </trkpt>
      <trkpt lat="44.85804" lon="-0.37327">
        <ele>30.45</ele>
        <time>2019-06-02T13:49:02Z</time>
      </trkpt>
      <trkpt lat="44.85798" lon="-0.37311">
        <ele>29.61</ele>
        <time>2019-06-02T13:49:09Z</time>
      </trkpt>
      <trkpt lat="44.85793" lon="-0.37309">
        <ele>29.61</ele>
        <time>2019-06-02T13:49:12Z</time>
      </trkpt>
      <trkpt lat="44.85779" lon="-0.37304">
        <ele>29.54</ele>
        <time>2019-06-02T13:49:21Z</time>
      </trkpt>
      <trkpt lat="44.85776" lon="-0.37302">
        <ele>31.91</ele>
        <time>2019-06-02T13:49:25Z</time>
      </trkpt>
      <trkpt lat="44.85766" lon="-0.37299">
        <ele>35.67</ele>
        <time>2019-06-02T13:49:33Z</time>
      </trkpt>
      <trkpt lat="44.85758" lon="-0.37305">
        <ele>37.63</ele>
        <time>2019-06-02T13:49:39Z</time>
      </trkpt>
      <trkpt lat="44.85746" lon="-0.3731">
        <ele>41.14</ele>
        <time>2019-06-02T13:49:49Z</time>
      </trkpt>
      <trkpt lat="44.85736" lon="-0.37323">
        <ele>43.45</ele>
        <time>2019-06-02T13:50:03Z</time>
      </trkpt>
      <trkpt lat="44.85735" lon="-0.37327">
        <ele>43.39</ele>
        <time>2019-06-02T13:50:06Z</time>
      </trkpt>
      <trkpt lat="44.85726" lon="-0.3735">
        <ele>42.95</ele>
        <time>2019-06-02T13:50:41Z</time>
      </trkpt>
      <trkpt lat="44.85722" lon="-0.37354">
        <ele>42.83</ele>
        <time>2019-06-02T13:51:21Z</time>
      </trkpt>
      <trkpt lat="44.85721" lon="-0.37359">
        <ele>42.9</ele>
        <time>2019-06-02T13:51:55Z</time>
      </trkpt>
      <trkpt lat="44.85721" lon="-0.37362">
        <ele>43.78</ele>
        <time>2019-06-02T13:51:57Z</time>
      </trkpt>
      <trkpt lat="44.85732" lon="-0.37363">
        <ele>43.79</ele>
        <time>2019-06-02T13:52:04Z</time>
      </trkpt>
      <trkpt lat="44.85745" lon="-0.37352">
        <ele>37.46</ele>
        <time>2019-06-02T13:52:16Z</time>
      </trkpt>
      <trkpt lat="44.85748" lon="-0.37351">
        <ele>36.53</ele>
        <time>2019-06-02T13:52:18Z</time>
      </trkpt>
      <trkpt lat="44.85752" lon="-0.37355">
        <ele>34.55</ele>
        <time>2019-06-02T13:52:21Z</time>
      </trkpt>
      <trkpt lat="44.85754" lon="-0.37362">
        <ele>34.53</ele>
        <time>2019-06-02T13:52:25Z</time>
      </trkpt>
      <trkpt lat="44.85754" lon="-0.37367">
        <ele>34.52</ele>
        <time>2019-06-02T13:52:27Z</time>
      </trkpt>
      <trkpt lat="44.85757" lon="-0.37376">
        <ele>34.48</ele>
        <time>2019-06-02T13:52:31Z</time>
      </trkpt>
      <trkpt lat="44.85761" lon="-0.3739">
        <ele>37.51</ele>
        <time>2019-06-02T13:52:39Z</time>
      </trkpt>
      <trkpt lat="44.85761" lon="-0.37391">
        <ele>37.73</ele>
        <time>2019-06-02T13:52:40Z</time>
      </trkpt>
      <trkpt lat="44.85762" lon="-0.374">
        <ele>38.31</ele>
        <time>2019-06-02T13:52:45Z</time>
      </trkpt>
      <trkpt lat="44.85762" lon="-0.37404">
        <ele>38.47</ele>
        <time>2019-06-02T13:52:47Z</time>
      </trkpt>
      <trkpt lat="44.8576" lon="-0.37405">
        <ele>39.23</ele>
        <time>2019-06-02T13:52:49Z</time>
      </trkpt>
      <trkpt lat="44.85756" lon="-0.37402">
        <ele>39.77</ele>
        <time>2019-06-02T13:52:55Z</time>
      </trkpt>
      <trkpt lat="44.85747" lon="-0.37397">
        <ele>42.37</ele>
        <time>2019-06-02T13:53:08Z</time>
      </trkpt>
      <trkpt lat="44.85741" lon="-0.37397">
        <ele>43.13</ele>
        <time>2019-06-02T13:53:13Z</time>
      </trkpt>
      <trkpt lat="44.85739" lon="-0.37399">
        <ele>43.78</ele>
        <time>2019-06-02T13:53:15Z</time>
      </trkpt>
      <trkpt lat="44.8573" lon="-0.37392">
        <ele>45.44</ele>
        <time>2019-06-02T13:53:25Z</time>
      </trkpt>
      <trkpt lat="44.85723" lon="-0.3737">
        <ele>45.01</ele>
        <time>2019-06-02T13:53:37Z</time>
      </trkpt>
      <trkpt lat="44.85713" lon="-0.37375">
        <ele>44.53</ele>
        <time>2019-06-02T13:53:54Z</time>
      </trkpt>
      <trkpt lat="44.85707" lon="-0.37375">
        <ele>43.9</ele>
        <time>2019-06-02T13:54:30Z</time>
      </trkpt>
      <trkpt lat="44.85703" lon="-0.37371">
        <ele>43.49</ele>
        <time>2019-06-02T13:55:00Z</time>
      </trkpt>
      <trkpt lat="44.857" lon="-0.37371">
        <ele>43.47</ele>
        <time>2019-06-02T13:55:03Z</time>
      </trkpt>
      <trkpt lat="44.85691" lon="-0.3737">
        <ele>43.46</ele>
        <time>2019-06-02T13:55:12Z</time>
      </trkpt>
      <trkpt lat="44.85684" lon="-0.37368">
        <ele>43.44</ele>
        <time>2019-06-02T13:55:17Z</time>
      </trkpt>
      <trkpt lat="44.85689" lon="-0.37357">
        <ele>43.37</ele>
        <time>2019-06-02T13:55:25Z</time>
      </trkpt>
      <trkpt lat="44.85694" lon="-0.37353">
        <ele>43.3</ele>
        <time>2019-06-02T13:55:29Z</time>
      </trkpt>
      <trkpt lat="44.85697" lon="-0.37344">
        <ele>39.97</ele>
        <time>2019-06-02T13:55:33Z</time>
      </trkpt>
      <trkpt lat="44.85697" lon="-0.37343">
        <ele>39.81</ele>
        <time>2019-06-02T13:55:34Z</time>
      </trkpt>
      <trkpt lat="44.85707" lon="-0.37332">
        <ele>38.67</ele>
        <time>2019-06-02T13:55:43Z</time>
      </trkpt>
      <trkpt lat="44.85709" lon="-0.37327">
        <ele>37.86</ele>
        <time>2019-06-02T13:55:45Z</time>
      </trkpt>
      <trkpt lat="44.85719" lon="-0.37324">
        <ele>36.84</ele>
        <time>2019-06-02T13:55:50Z</time>
      </trkpt>
      <trkpt lat="44.85726" lon="-0.37315">
        <ele>34.62</ele>
        <time>2019-06-02T13:55:54Z</time>
      </trkpt>
      <trkpt lat="44.8573" lon="-0.37316">
        <ele>32.43</ele>
        <time>2019-06-02T13:55:57Z</time>
      </trkpt>
      <trkpt lat="44.85737" lon="-0.37312">
        <ele>30.79</ele>
        <time>2019-06-02T13:56:01Z</time>
      </trkpt>
      <trkpt lat="44.85741" lon="-0.37315">
        <ele>29.55</ele>
        <time>2019-06-02T13:56:04Z</time>
      </trkpt>
      <trkpt lat="44.85744" lon="-0.37314">
        <ele>29.47</ele>
        <time>2019-06-02T13:56:06Z</time>
      </trkpt>
      <trkpt lat="44.85748" lon="-0.37312">
        <ele>28.18</ele>
        <time>2019-06-02T13:56:09Z</time>
      </trkpt>
      <trkpt lat="44.85751" lon="-0.37312">
        <ele>27.28</ele>
        <time>2019-06-02T13:56:12Z</time>
      </trkpt>
      <trkpt lat="44.85758" lon="-0.373">
        <ele>25.48</ele>
        <time>2019-06-02T13:56:23Z</time>
      </trkpt>
      <trkpt lat="44.8577" lon="-0.37291">
        <ele>25.01</ele>
        <time>2019-06-02T13:56:56Z</time>
      </trkpt>
      <trkpt lat="44.85766" lon="-0.37289">
        <ele>24.62</ele>
        <time>2019-06-02T13:57:23Z</time>
      </trkpt>
      <trkpt lat="44.85764" lon="-0.37294">
        <ele>24.59</ele>
        <time>2019-06-02T13:57:26Z</time>
      </trkpt>
      <trkpt lat="44.85756" lon="-0.37292">
        <ele>27.01</ele>
        <time>2019-06-02T13:57:33Z</time>
      </trkpt>
      <trkpt lat="44.85754" lon="-0.37293">
        <ele>27.8</ele>
        <time>2019-06-02T13:57:36Z</time>
      </trkpt>
      <trkpt lat="44.85752" lon="-0.37298">
        <ele>27.76</ele>
        <time>2019-06-02T13:57:39Z</time>
      </trkpt>
      <trkpt lat="44.85751" lon="-0.373">
        <ele>27.77</ele>
        <time>2019-06-02T13:57:41Z</time>
      </trkpt>
      <trkpt lat="44.85741" lon="-0.37305">
        <ele>30.53</ele>
        <time>2019-06-02T13:57:53Z</time>
      </trkpt>
      <trkpt lat="44.85732" lon="-0.37303">
        <ele>32.02</ele>
        <time>2019-06-02T13:58:09Z</time>
      </trkpt>
      <trkpt lat="44.85729" lon="-0.37299">
        <ele>31.74</ele>
        <time>2019-06-02T13:58:26Z</time>
      </trkpt>
      <trkpt lat="44.8572" lon="-0.37303">
        <ele>33.52</ele>
        <time>2019-06-02T13:58:39Z</time>
      </trkpt>
      <trkpt lat="44.85714" lon="-0.37308">
        <ele>34.49</ele>
        <time>2019-06-02T13:58:48Z</time>
      </trkpt>
      <trkpt lat="44.85706" lon="-0.37323">
        <ele>36.19</ele>
        <time>2019-06-02T13:58:59Z</time>
      </trkpt>
      <trkpt lat="44.85698" lon="-0.37326">
        <ele>36.92</ele>
        <time>2019-06-02T13:59:04Z</time>
      </trkpt>
      <trkpt lat="44.85695" lon="-0.37328">
        <ele>36.9</ele>
        <time>2019-06-02T13:59:07Z</time>
      </trkpt>
      <trkpt lat="44.85691" lon="-0.37336">
        <ele>37.61</ele>
        <time>2019-06-02T13:59:11Z</time>
      </trkpt>
      <trkpt lat="44.85679" lon="-0.3734">
        <ele>38.36</ele>
        <time>2019-06-02T13:59:21Z</time>
      </trkpt>
      <trkpt lat="44.85675" lon="-0.3734">
        <ele>38.33</ele>
        <time>2019-06-02T13:59:23Z</time>
      </trkpt>
      <trkpt lat="44.85671" lon="-0.37337">
        <ele>39.13</ele>
        <time>2019-06-02T13:59:28Z</time>
      </trkpt>
      <trkpt lat="44.8567" lon="-0.37344">
        <ele>39.02</ele>
        <time>2019-06-02T13:59:34Z</time>
      </trkpt>
      <trkpt lat="44.85668" lon="-0.37349">
        <ele>39</ele>
        <time>2019-06-02T13:59:37Z</time>
      </trkpt>
      <trkpt lat="44.85657" lon="-0.37347">
        <ele>39.78</ele>
        <time>2019-06-02T13:59:44Z</time>
      </trkpt>
      <trkpt lat="44.8565" lon="-0.3734">
        <ele>39.76</ele>
        <time>2019-06-02T13:59:48Z</time>
      </trkpt>
      <trkpt lat="44.85637" lon="-0.3732">
        <ele>39.56</ele>
        <time>2019-06-02T13:59:55Z</time>
      </trkpt>
      <trkpt lat="44.85629" lon="-0.37317">
        <ele>39.53</ele>
        <time>2019-06-02T13:59:57Z</time>
      </trkpt>
      <trkpt lat="44.85624" lon="-0.37318">
        <ele>37.18</ele>
        <time>2019-06-02T14:00:01Z</time>
      </trkpt>
      <trkpt lat="44.8562" lon="-0.37316">
        <ele>37.23</ele>
        <time>2019-06-02T14:00:14Z</time>
      </trkpt>
      <trkpt lat="44.85615" lon="-0.37311">
        <ele>37.32</ele>
        <time>2019-06-02T14:00:45Z</time>
      </trkpt>
      <trkpt lat="44.85611" lon="-0.37309">
        <ele>37.51</ele>
        <time>2019-06-02T14:01:20Z</time>
      </trkpt>
      <trkpt lat="44.8561" lon="-0.37308">
        <ele>36.17</ele>
        <time>2019-06-02T14:01:42Z</time>
      </trkpt>
      <trkpt lat="44.8561" lon="-0.37308">
        <ele>38.59</ele>
        <time>2019-06-02T14:01:47Z</time>
      </trkpt>
      <trkpt lat="44.85611" lon="-0.37307">
        <ele>38.84</ele>
        <time>2019-06-02T14:02:21Z</time>
      </trkpt>
      <trkpt lat="44.85612" lon="-0.37308">
        <ele>39.1</ele>
        <time>2019-06-02T14:02:52Z</time>
      </trkpt>
      <trkpt lat="44.85615" lon="-0.37317">
        <ele>34.59</ele>
        <time>2019-06-02T14:03:11Z</time>
      </trkpt>
      <trkpt lat="44.85618" lon="-0.37325">
        <ele>38.64</ele>
        <time>2019-06-02T14:03:15Z</time>
      </trkpt>
      <trkpt lat="44.85629" lon="-0.37352">
        <ele>39.76</ele>
        <time>2019-06-02T14:03:28Z</time>
      </trkpt>
      <trkpt lat="44.85643" lon="-0.37384">
        <ele>39.93</ele>
        <time>2019-06-02T14:03:42Z</time>
      </trkpt>
      <trkpt lat="44.85669" lon="-0.37381">
        <ele>40.73</ele>
        <time>2019-06-02T14:03:56Z</time>
      </trkpt>
      <trkpt lat="44.85684" lon="-0.37376">
        <ele>40.76</ele>
        <time>2019-06-02T14:04:04Z</time>
      </trkpt>
      <trkpt lat="44.85704" lon="-0.37417">
        <ele>40.87</ele>
        <time>2019-06-02T14:04:19Z</time>
      </trkpt>
      <trkpt lat="44.85722" lon="-0.37466">
        <ele>41.73</ele>
        <time>2019-06-02T14:04:35Z</time>
      </trkpt>
      <trkpt lat="44.85742" lon="-0.37529">
        <ele>43.39</ele>
        <time>2019-06-02T14:04:53Z</time>
      </trkpt>
      <trkpt lat="44.85758" lon="-0.376">
        <ele>43.36</ele>
        <time>2019-06-02T14:05:11Z</time>
      </trkpt>
      <trkpt lat="44.85772" lon="-0.37635">
        <ele>43.4</ele>
        <time>2019-06-02T14:05:23Z</time>
      </trkpt>
      <trkpt lat="44.85785" lon="-0.37629">
        <ele>43.42</ele>
        <time>2019-06-02T14:05:27Z</time>
      </trkpt>
      <trkpt lat="44.85796" lon="-0.37623">
        <ele>43.43</ele>
        <time>2019-06-02T14:05:30Z</time>
      </trkpt>
      <trkpt lat="44.85819" lon="-0.37624">
        <ele>43.39</ele>
        <time>2019-06-02T14:05:36Z</time>
      </trkpt>
      <trkpt lat="44.8584" lon="-0.37686">
        <ele>43.64</ele>
        <time>2019-06-02T14:05:52Z</time>
      </trkpt>
      <trkpt lat="44.85866" lon="-0.37742">
        <ele>43.69</ele>
        <time>2019-06-02T14:06:06Z</time>
      </trkpt>
      <trkpt lat="44.85885" lon="-0.37811">
        <ele>45.59</ele>
        <time>2019-06-02T14:06:21Z</time>
      </trkpt>
      <trkpt lat="44.85897" lon="-0.37857">
        <ele>48.04</ele>
        <time>2019-06-02T14:06:33Z</time>
      </trkpt>
      <trkpt lat="44.85906" lon="-0.37883">
        <ele>48.02</ele>
        <time>2019-06-02T14:06:43Z</time>
      </trkpt>
      <trkpt lat="44.85906" lon="-0.37883">
        <ele>48.02</ele>
        <time>2019-06-02T14:07:04Z</time>
      </trkpt>
      <trkpt lat="44.85907" lon="-0.37887">
        <ele>48.1</ele>
        <time>2019-06-02T14:07:35Z</time>
      </trkpt>
      <trkpt lat="44.85907" lon="-0.37885">
        <ele>48.19</ele>
        <time>2019-06-02T14:08:05Z</time>
      </trkpt>
      <trkpt lat="44.85909" lon="-0.37884">
        <ele>48.18</ele>
        <time>2019-06-02T14:08:06Z</time>
      </trkpt>
      <trkpt lat="44.85918" lon="-0.37883">
        <ele>48.21</ele>
        <time>2019-06-02T14:08:14Z</time>
      </trkpt>
      <trkpt lat="44.85919" lon="-0.37883">
        <ele>48.2</ele>
        <time>2019-06-02T14:08:15Z</time>
      </trkpt>
      <trkpt lat="44.85951" lon="-0.37877">
        <ele>48.29</ele>
        <time>2019-06-02T14:08:29Z</time>
      </trkpt>
      <trkpt lat="44.8599" lon="-0.3787">
        <ele>48.42</ele>
        <time>2019-06-02T14:08:43Z</time>
      </trkpt>
      <trkpt lat="44.85997" lon="-0.37867">
        <ele>48.46</ele>
        <time>2019-06-02T14:08:46Z</time>
      </trkpt>
      <trkpt lat="44.86031" lon="-0.37865">
        <ele>51.12</ele>
        <time>2019-06-02T14:09:01Z</time>
      </trkpt>
      <trkpt lat="44.86061" lon="-0.37865">
        <ele>54.37</ele>
        <time>2019-06-02T14:09:16Z</time>
      </trkpt>
      <trkpt lat="44.86103" lon="-0.37864">
        <ele>55.4</ele>
        <time>2019-06-02T14:09:36Z</time>
      </trkpt>
      <trkpt lat="44.86138" lon="-0.37864">
        <ele>57.92</ele>
        <time>2019-06-02T14:09:53Z</time>
      </trkpt>
      <trkpt lat="44.86139" lon="-0.37869">
        <ele>57.94</ele>
        <time>2019-06-02T14:09:55Z</time>
      </trkpt>
      <trkpt lat="44.86139" lon="-0.37872">
        <ele>57.94</ele>
        <time>2019-06-02T14:09:56Z</time>
      </trkpt>
      <trkpt lat="44.86138" lon="-0.37875">
        <ele>57.94</ele>
        <time>2019-06-02T14:09:57Z</time>
      </trkpt>
      <trkpt lat="44.86137" lon="-0.37877">
        <ele>57.95</ele>
        <time>2019-06-02T14:09:58Z</time>
      </trkpt>
      <trkpt lat="44.86137" lon="-0.3788">
        <ele>57.94</ele>
        <time>2019-06-02T14:09:59Z</time>
      </trkpt>
      <trkpt lat="44.8612" lon="-0.37925">
        <ele>55.51</ele>
        <time>2019-06-02T14:10:12Z</time>
      </trkpt>
      <trkpt lat="44.86113" lon="-0.37949">
        <ele>53.95</ele>
        <time>2019-06-02T14:10:19Z</time>
      </trkpt>
      <trkpt lat="44.86113" lon="-0.37952">
        <ele>57.53</ele>
        <time>2019-06-02T14:10:20Z</time>
      </trkpt>
      <trkpt lat="44.86114" lon="-0.37954">
        <ele>57.57</ele>
        <time>2019-06-02T14:10:21Z</time>
      </trkpt>
      <trkpt lat="44.86152" lon="-0.37974">
        <ele>57.73</ele>
        <time>2019-06-02T14:10:39Z</time>
      </trkpt>
      <trkpt lat="44.86198" lon="-0.38003">
        <ele>58.7</ele>
        <time>2019-06-02T14:10:59Z</time>
      </trkpt>
      <trkpt lat="44.86226" lon="-0.38046">
        <ele>58.79</ele>
        <time>2019-06-02T14:11:13Z</time>
      </trkpt>
      <trkpt lat="44.86238" lon="-0.38094">
        <ele>58.84</ele>
        <time>2019-06-02T14:11:27Z</time>
      </trkpt>
      <trkpt lat="44.8623" lon="-0.38175">
        <ele>59.09</ele>
        <time>2019-06-02T14:11:49Z</time>
      </trkpt>
      <trkpt lat="44.86224" lon="-0.38253">
        <ele>60.01</ele>
        <time>2019-06-02T14:12:09Z</time>
      </trkpt>
      <trkpt lat="44.86224" lon="-0.38264">
        <ele>60.01</ele>
        <time>2019-06-02T14:12:12Z</time>
      </trkpt>
      <trkpt lat="44.86226" lon="-0.38267">
        <ele>60</ele>
        <time>2019-06-02T14:12:13Z</time>
      </trkpt>
      <trkpt lat="44.86228" lon="-0.38269">
        <ele>60</ele>
        <time>2019-06-02T14:12:14Z</time>
      </trkpt>
      <trkpt lat="44.86231" lon="-0.3827">
        <ele>60</ele>
        <time>2019-06-02T14:12:15Z</time>
      </trkpt>
      <trkpt lat="44.86234" lon="-0.3827">
        <ele>60.01</ele>
        <time>2019-06-02T14:12:16Z</time>
      </trkpt>
      <trkpt lat="44.86287" lon="-0.38278">
        <ele>60.04</ele>
        <time>2019-06-02T14:12:31Z</time>
      </trkpt>
      <trkpt lat="44.86298" lon="-0.38283">
        <ele>60.07</ele>
        <time>2019-06-02T14:12:34Z</time>
      </trkpt>
      <trkpt lat="44.86299" lon="-0.38286">
        <ele>60.07</ele>
        <time>2019-06-02T14:12:35Z</time>
      </trkpt>
      <trkpt lat="44.863" lon="-0.38291">
        <ele>60.08</ele>
        <time>2019-06-02T14:12:36Z</time>
      </trkpt>
      <trkpt lat="44.863" lon="-0.38295">
        <ele>60.09</ele>
        <time>2019-06-02T14:12:37Z</time>
      </trkpt>
      <trkpt lat="44.86299" lon="-0.38299">
        <ele>60.11</ele>
        <time>2019-06-02T14:12:38Z</time>
      </trkpt>
      <trkpt lat="44.86297" lon="-0.38302">
        <ele>60.11</ele>
        <time>2019-06-02T14:12:39Z</time>
      </trkpt>
      <trkpt lat="44.86296" lon="-0.38305">
        <ele>60.11</ele>
        <time>2019-06-02T14:12:40Z</time>
      </trkpt>
      <trkpt lat="44.8628" lon="-0.38335">
        <ele>57.75</ele>
        <time>2019-06-02T14:12:47Z</time>
      </trkpt>
      <trkpt lat="44.86278" lon="-0.3834">
        <ele>57.76</ele>
        <time>2019-06-02T14:12:48Z</time>
      </trkpt>
      <trkpt lat="44.86263" lon="-0.38373">
        <ele>55.72</ele>
        <time>2019-06-02T14:12:54Z</time>
      </trkpt>
      <trkpt lat="44.86238" lon="-0.38441">
        <ele>52.52</ele>
        <time>2019-06-02T14:13:04Z</time>
      </trkpt>
      <trkpt lat="44.86233" lon="-0.38456">
        <ele>52.56</ele>
        <time>2019-06-02T14:13:06Z</time>
      </trkpt>
      <trkpt lat="44.86196" lon="-0.38533">
        <ele>50.91</ele>
        <time>2019-06-02T14:13:17Z</time>
      </trkpt>
      <trkpt lat="44.86193" lon="-0.3854">
        <ele>50.92</ele>
        <time>2019-06-02T14:13:18Z</time>
      </trkpt>
      <trkpt lat="44.86191" lon="-0.38546">
        <ele>50.05</ele>
        <time>2019-06-02T14:13:19Z</time>
      </trkpt>
      <trkpt lat="44.86189" lon="-0.38553">
        <ele>50.1</ele>
        <time>2019-06-02T14:13:20Z</time>
      </trkpt>
      <trkpt lat="44.86184" lon="-0.38584">
        <ele>50.11</ele>
        <time>2019-06-02T14:13:25Z</time>
      </trkpt>
      <trkpt lat="44.86172" lon="-0.3867">
        <ele>49.51</ele>
        <time>2019-06-02T14:13:39Z</time>
      </trkpt>
      <trkpt lat="44.86161" lon="-0.38725">
        <ele>49.57</ele>
        <time>2019-06-02T14:13:48Z</time>
      </trkpt>
      <trkpt lat="44.8616" lon="-0.38732">
        <ele>49.56</ele>
        <time>2019-06-02T14:13:49Z</time>
      </trkpt>
      <trkpt lat="44.86159" lon="-0.38738">
        <ele>49.56</ele>
        <time>2019-06-02T14:13:50Z</time>
      </trkpt>
      <trkpt lat="44.86156" lon="-0.38763">
        <ele>49.6</ele>
        <time>2019-06-02T14:13:54Z</time>
      </trkpt>
      <trkpt lat="44.86155" lon="-0.38774">
        <ele>49.59</ele>
        <time>2019-06-02T14:13:56Z</time>
      </trkpt>
      <trkpt lat="44.86157" lon="-0.38839">
        <ele>52.01</ele>
        <time>2019-06-02T14:14:08Z</time>
      </trkpt>
      <trkpt lat="44.86157" lon="-0.38844">
        <ele>52.02</ele>
        <time>2019-06-02T14:14:09Z</time>
      </trkpt>
      <trkpt lat="44.86159" lon="-0.38896">
        <ele>52.94</ele>
        <time>2019-06-02T14:14:21Z</time>
      </trkpt>
      <trkpt lat="44.86161" lon="-0.38982">
        <ele>53.89</ele>
        <time>2019-06-02T14:14:36Z</time>
      </trkpt>
      <trkpt lat="44.86163" lon="-0.39016">
        <ele>53.84</ele>
        <time>2019-06-02T14:14:41Z</time>
      </trkpt>
      <trkpt lat="44.86165" lon="-0.39029">
        <ele>53.84</ele>
        <time>2019-06-02T14:14:43Z</time>
      </trkpt>
      <trkpt lat="44.86165" lon="-0.39041">
        <ele>53.84</ele>
        <time>2019-06-02T14:14:45Z</time>
      </trkpt>
      <trkpt lat="44.86166" lon="-0.39047">
        <ele>53.84</ele>
        <time>2019-06-02T14:14:46Z</time>
      </trkpt>
      <trkpt lat="44.86166" lon="-0.39066">
        <ele>53.83</ele>
        <time>2019-06-02T14:14:49Z</time>
      </trkpt>
      <trkpt lat="44.86166" lon="-0.39073">
        <ele>53.85</ele>
        <time>2019-06-02T14:14:50Z</time>
      </trkpt>
      <trkpt lat="44.86166" lon="-0.39085">
        <ele>51.58</ele>
        <time>2019-06-02T14:14:52Z</time>
      </trkpt>
      <trkpt lat="44.86165" lon="-0.39108">
        <ele>51.6</ele>
        <time>2019-06-02T14:14:56Z</time>
      </trkpt>
      <trkpt lat="44.86166" lon="-0.39115">
        <ele>51.6</ele>
        <time>2019-06-02T14:14:57Z</time>
      </trkpt>
      <trkpt lat="44.86166" lon="-0.39122">
        <ele>50.77</ele>
        <time>2019-06-02T14:14:58Z</time>
      </trkpt>
      <trkpt lat="44.86168" lon="-0.39202">
        <ele>50.81</ele>
        <time>2019-06-02T14:15:10Z</time>
      </trkpt>
      <trkpt lat="44.86168" lon="-0.39235">
        <ele>47.36</ele>
        <time>2019-06-02T14:15:15Z</time>
      </trkpt>
      <trkpt lat="44.86168" lon="-0.39247">
        <ele>50.62</ele>
        <time>2019-06-02T14:15:17Z</time>
      </trkpt>
      <trkpt lat="44.86167" lon="-0.39253">
        <ele>50.61</ele>
        <time>2019-06-02T14:15:18Z</time>
      </trkpt>
      <trkpt lat="44.86167" lon="-0.3926">
        <ele>50.61</ele>
        <time>2019-06-02T14:15:19Z</time>
      </trkpt>
      <trkpt lat="44.86166" lon="-0.39278">
        <ele>51.86</ele>
        <time>2019-06-02T14:15:22Z</time>
      </trkpt>
      <trkpt lat="44.86167" lon="-0.39345">
        <ele>49.14</ele>
        <time>2019-06-02T14:15:33Z</time>
      </trkpt>
      <trkpt lat="44.86167" lon="-0.39371">
        <ele>51.59</ele>
        <time>2019-06-02T14:15:38Z</time>
      </trkpt>
      <trkpt lat="44.86167" lon="-0.39383">
        <ele>53.04</ele>
        <time>2019-06-02T14:15:40Z</time>
      </trkpt>
      <trkpt lat="44.86166" lon="-0.39403">
        <ele>53.01</ele>
        <time>2019-06-02T14:15:43Z</time>
      </trkpt>
      <trkpt lat="44.86165" lon="-0.39409">
        <ele>53.01</ele>
        <time>2019-06-02T14:15:44Z</time>
      </trkpt>
      <trkpt lat="44.86162" lon="-0.39477">
        <ele>52.97</ele>
        <time>2019-06-02T14:15:56Z</time>
      </trkpt>
      <trkpt lat="44.86155" lon="-0.39569">
        <ele>55.67</ele>
        <time>2019-06-02T14:16:12Z</time>
      </trkpt>
      <trkpt lat="44.86147" lon="-0.39646">
        <ele>56.58</ele>
        <time>2019-06-02T14:16:28Z</time>
      </trkpt>
      <trkpt lat="44.86146" lon="-0.39655">
        <ele>57.57</ele>
        <time>2019-06-02T14:16:31Z</time>
      </trkpt>
      <trkpt lat="44.86147" lon="-0.39657">
        <ele>57.57</ele>
        <time>2019-06-02T14:16:32Z</time>
      </trkpt>
      <trkpt lat="44.86149" lon="-0.39658">
        <ele>57.57</ele>
        <time>2019-06-02T14:16:33Z</time>
      </trkpt>
      <trkpt lat="44.86151" lon="-0.39658">
        <ele>58.44</ele>
        <time>2019-06-02T14:16:34Z</time>
      </trkpt>
      <trkpt lat="44.86154" lon="-0.39658">
        <ele>58.43</ele>
        <time>2019-06-02T14:16:35Z</time>
      </trkpt>
      <trkpt lat="44.86157" lon="-0.39658">
        <ele>58.44</ele>
        <time>2019-06-02T14:16:36Z</time>
      </trkpt>
      <trkpt lat="44.8616" lon="-0.39659">
        <ele>59.32</ele>
        <time>2019-06-02T14:16:37Z</time>
      </trkpt>
      <trkpt lat="44.86178" lon="-0.39659">
        <ele>55.73</ele>
        <time>2019-06-02T14:16:42Z</time>
      </trkpt>
      <trkpt lat="44.86182" lon="-0.39659">
        <ele>55.73</ele>
        <time>2019-06-02T14:16:43Z</time>
      </trkpt>
      <trkpt lat="44.86213" lon="-0.39661">
        <ele>55.77</ele>
        <time>2019-06-02T14:16:53Z</time>
      </trkpt>
      <trkpt lat="44.86212" lon="-0.39663">
        <ele>55.79</ele>
        <time>2019-06-02T14:16:54Z</time>
      </trkpt>
      <trkpt lat="44.8621" lon="-0.39664">
        <ele>55.8</ele>
        <time>2019-06-02T14:16:55Z</time>
      </trkpt>
      <trkpt lat="44.86208" lon="-0.39665">
        <ele>55.8</ele>
        <time>2019-06-02T14:16:56Z</time>
      </trkpt>
      <trkpt lat="44.86205" lon="-0.39665">
        <ele>55.81</ele>
        <time>2019-06-02T14:16:57Z</time>
      </trkpt>
      <trkpt lat="44.862" lon="-0.39667">
        <ele>55.82</ele>
        <time>2019-06-02T14:16:59Z</time>
      </trkpt>
      <trkpt lat="44.86199" lon="-0.3967">
        <ele>55.82</ele>
        <time>2019-06-02T14:17:00Z</time>
      </trkpt>
      <trkpt lat="44.862" lon="-0.39673">
        <ele>55.84</ele>
        <time>2019-06-02T14:17:01Z</time>
      </trkpt>
      <trkpt lat="44.86202" lon="-0.39683">
        <ele>55.86</ele>
        <time>2019-06-02T14:17:04Z</time>
      </trkpt>
      <trkpt lat="44.86203" lon="-0.39689">
        <ele>58.2</ele>
        <time>2019-06-02T14:17:06Z</time>
      </trkpt>
      <trkpt lat="44.86208" lon="-0.39732">
        <ele>58.28</ele>
        <time>2019-06-02T14:17:20Z</time>
      </trkpt>
      <trkpt lat="44.86215" lon="-0.3978">
        <ele>59.25</ele>
        <time>2019-06-02T14:17:37Z</time>
      </trkpt>
      <trkpt lat="44.86219" lon="-0.39825">
        <ele>59.31</ele>
        <time>2019-06-02T14:17:51Z</time>
      </trkpt>
      <trkpt lat="44.86227" lon="-0.39882">
        <ele>59.41</ele>
        <time>2019-06-02T14:18:06Z</time>
      </trkpt>
      <trkpt lat="44.8624" lon="-0.39946">
        <ele>57.17</ele>
        <time>2019-06-02T14:18:22Z</time>
      </trkpt>
      <trkpt lat="44.86241" lon="-0.3995">
        <ele>57.18</ele>
        <time>2019-06-02T14:18:23Z</time>
      </trkpt>
      <trkpt lat="44.86252" lon="-0.40007">
        <ele>57.25</ele>
        <time>2019-06-02T14:18:38Z</time>
      </trkpt>
      <trkpt lat="44.86264" lon="-0.40009">
        <ele>56.51</ele>
        <time>2019-06-02T14:18:45Z</time>
      </trkpt>
      <trkpt lat="44.86295" lon="-0.39997">
        <ele>56.59</ele>
        <time>2019-06-02T14:18:58Z</time>
      </trkpt>
      <trkpt lat="44.86309" lon="-0.39993">
        <ele>55.84</ele>
        <time>2019-06-02T14:19:04Z</time>
      </trkpt>
      <trkpt lat="44.86312" lon="-0.39995">
        <ele>55.86</ele>
        <time>2019-06-02T14:19:08Z</time>
      </trkpt>
      <trkpt lat="44.86319" lon="-0.4001">
        <ele>55.1</ele>
        <time>2019-06-02T14:19:18Z</time>
      </trkpt>
      <trkpt lat="44.86322" lon="-0.40023">
        <ele>50.38</ele>
        <time>2019-06-02T14:19:24Z</time>
      </trkpt>
      <trkpt lat="44.86322" lon="-0.40025">
        <ele>55.26</ele>
        <time>2019-06-02T14:19:25Z</time>
      </trkpt>
      <trkpt lat="44.86328" lon="-0.40062">
        <ele>55.6</ele>
        <time>2019-06-02T14:19:39Z</time>
      </trkpt>
      <trkpt lat="44.86329" lon="-0.40065">
        <ele>55.59</ele>
        <time>2019-06-02T14:19:40Z</time>
      </trkpt>
      <trkpt lat="44.86335" lon="-0.40068">
        <ele>55.54</ele>
        <time>2019-06-02T14:19:44Z</time>
      </trkpt>
      <trkpt lat="44.86344" lon="-0.40066">
        <ele>53.08</ele>
        <time>2019-06-02T14:19:47Z</time>
      </trkpt>
      <trkpt lat="44.86363" lon="-0.40061">
        <ele>49.26</ele>
        <time>2019-06-02T14:19:52Z</time>
      </trkpt>
      <trkpt lat="44.86366" lon="-0.4006">
        <ele>49.33</ele>
        <time>2019-06-02T14:19:53Z</time>
      </trkpt>
      <trkpt lat="44.86391" lon="-0.40051">
        <ele>49.29</ele>
        <time>2019-06-02T14:19:59Z</time>
      </trkpt>
      <trkpt lat="44.86424" lon="-0.40037">
        <ele>46.08</ele>
        <time>2019-06-02T14:20:05Z</time>
      </trkpt>
      <trkpt lat="44.86445" lon="-0.4003">
        <ele>44.09</ele>
        <time>2019-06-02T14:20:08Z</time>
      </trkpt>
      <trkpt lat="44.86459" lon="-0.40026">
        <ele>43.03</ele>
        <time>2019-06-02T14:20:10Z</time>
      </trkpt>
      <trkpt lat="44.86477" lon="-0.4">
        <ele>42.24</ele>
        <time>2019-06-02T14:20:16Z</time>
      </trkpt>
      <trkpt lat="44.86474" lon="-0.39973">
        <ele>44.72</ele>
        <time>2019-06-02T14:20:22Z</time>
      </trkpt>
      <trkpt lat="44.86469" lon="-0.39937">
        <ele>46.54</ele>
        <time>2019-06-02T14:20:32Z</time>
      </trkpt>
      <trkpt lat="44.86473" lon="-0.39935">
        <ele>47.47</ele>
        <time>2019-06-02T14:20:35Z</time>
      </trkpt>
      <trkpt lat="44.86474" lon="-0.39937">
        <ele>47.47</ele>
        <time>2019-06-02T14:20:36Z</time>
      </trkpt>
      <trkpt lat="44.86475" lon="-0.3994">
        <ele>47.48</ele>
        <time>2019-06-02T14:20:37Z</time>
      </trkpt>
      <trkpt lat="44.86477" lon="-0.39952">
        <ele>47.45</ele>
        <time>2019-06-02T14:20:40Z</time>
      </trkpt>
      <trkpt lat="44.86484" lon="-0.40003">
        <ele>44.36</ele>
        <time>2019-06-02T14:20:51Z</time>
      </trkpt>
      <trkpt lat="44.86484" lon="-0.40008">
        <ele>44.38</ele>
        <time>2019-06-02T14:20:52Z</time>
      </trkpt>
      <trkpt lat="44.86487" lon="-0.40029">
        <ele>44.42</ele>
        <time>2019-06-02T14:20:56Z</time>
      </trkpt>
      <trkpt lat="44.86496" lon="-0.40077">
        <ele>41.5</ele>
        <time>2019-06-02T14:21:03Z</time>
      </trkpt>
      <trkpt lat="44.86519" lon="-0.4009">
        <ele>40.61</ele>
        <time>2019-06-02T14:21:10Z</time>
      </trkpt>
      <trkpt lat="44.86522" lon="-0.40088">
        <ele>40.62</ele>
        <time>2019-06-02T14:21:11Z</time>
      </trkpt>
      <trkpt lat="44.86547" lon="-0.40071">
        <ele>43.06</ele>
        <time>2019-06-02T14:21:22Z</time>
      </trkpt>
      <trkpt lat="44.86579" lon="-0.40053">
        <ele>45.76</ele>
        <time>2019-06-02T14:21:39Z</time>
      </trkpt>
      <trkpt lat="44.86598" lon="-0.40045">
        <ele>47.58</ele>
        <time>2019-06-02T14:21:49Z</time>
      </trkpt>
      <trkpt lat="44.86611" lon="-0.4005">
        <ele>48.72</ele>
        <time>2019-06-02T14:21:56Z</time>
      </trkpt>
      <trkpt lat="44.86612" lon="-0.40052">
        <ele>48.74</ele>
        <time>2019-06-02T14:21:57Z</time>
      </trkpt>
      <trkpt lat="44.86619" lon="-0.40122">
        <ele>48.77</ele>
        <time>2019-06-02T14:22:16Z</time>
      </trkpt>
      <trkpt lat="44.86622" lon="-0.40167">
        <ele>43.85</ele>
        <time>2019-06-02T14:22:26Z</time>
      </trkpt>
      <trkpt lat="44.86623" lon="-0.40172">
        <ele>46.31</ele>
        <time>2019-06-02T14:22:27Z</time>
      </trkpt>
      <trkpt lat="44.86626" lon="-0.40185">
        <ele>48.28</ele>
        <time>2019-06-02T14:22:30Z</time>
      </trkpt>
      <trkpt lat="44.86631" lon="-0.40198">
        <ele>49.68</ele>
        <time>2019-06-02T14:22:33Z</time>
      </trkpt>
      <trkpt lat="44.86635" lon="-0.40206">
        <ele>47.2</ele>
        <time>2019-06-02T14:22:35Z</time>
      </trkpt>
      <trkpt lat="44.86638" lon="-0.40214">
        <ele>49.61</ele>
        <time>2019-06-02T14:22:37Z</time>
      </trkpt>
      <trkpt lat="44.86666" lon="-0.4028">
        <ele>47.28</ele>
        <time>2019-06-02T14:22:52Z</time>
      </trkpt>
      <trkpt lat="44.86678" lon="-0.40316">
        <ele>43.36</ele>
        <time>2019-06-02T14:22:57Z</time>
      </trkpt>
      <trkpt lat="44.86681" lon="-0.40325">
        <ele>43.37</ele>
        <time>2019-06-02T14:22:58Z</time>
      </trkpt>
      <trkpt lat="44.8669" lon="-0.40355">
        <ele>39.97</ele>
        <time>2019-06-02T14:23:01Z</time>
      </trkpt>
      <trkpt lat="44.86692" lon="-0.40366">
        <ele>38.84</ele>
        <time>2019-06-02T14:23:02Z</time>
      </trkpt>
      <trkpt lat="44.86693" lon="-0.40377">
        <ele>37.5</ele>
        <time>2019-06-02T14:23:03Z</time>
      </trkpt>
      <trkpt lat="44.86697" lon="-0.40411">
        <ele>35.86</ele>
        <time>2019-06-02T14:23:06Z</time>
      </trkpt>
      <trkpt lat="44.86711" lon="-0.4046">
        <ele>33.8</ele>
        <time>2019-06-02T14:23:11Z</time>
      </trkpt>
      <trkpt lat="44.86714" lon="-0.40466">
        <ele>33.8</ele>
        <time>2019-06-02T14:23:12Z</time>
      </trkpt>
      <trkpt lat="44.86717" lon="-0.40472">
        <ele>33.81</ele>
        <time>2019-06-02T14:23:13Z</time>
      </trkpt>
      <trkpt lat="44.86718" lon="-0.40477">
        <ele>33.82</ele>
        <time>2019-06-02T14:23:14Z</time>
      </trkpt>
      <trkpt lat="44.86718" lon="-0.40483">
        <ele>33.84</ele>
        <time>2019-06-02T14:23:15Z</time>
      </trkpt>
      <trkpt lat="44.86716" lon="-0.40488">
        <ele>33.09</ele>
        <time>2019-06-02T14:23:16Z</time>
      </trkpt>
      <trkpt lat="44.86712" lon="-0.40494">
        <ele>33.09</ele>
        <time>2019-06-02T14:23:17Z</time>
      </trkpt>
      <trkpt lat="44.86709" lon="-0.405">
        <ele>31.16</ele>
        <time>2019-06-02T14:23:18Z</time>
      </trkpt>
      <trkpt lat="44.86706" lon="-0.40506">
        <ele>30.4</ele>
        <time>2019-06-02T14:23:19Z</time>
      </trkpt>
      <trkpt lat="44.86704" lon="-0.40512">
        <ele>30.43</ele>
        <time>2019-06-02T14:23:20Z</time>
      </trkpt>
      <trkpt lat="44.86708" lon="-0.40537">
        <ele>29.58</ele>
        <time>2019-06-02T14:23:24Z</time>
      </trkpt>
      <trkpt lat="44.86742" lon="-0.40582">
        <ele>29.73</ele>
        <time>2019-06-02T14:23:38Z</time>
      </trkpt>
      <trkpt lat="44.86772" lon="-0.4062">
        <ele>29.79</ele>
        <time>2019-06-02T14:23:50Z</time>
      </trkpt>
      <trkpt lat="44.86813" lon="-0.40711">
        <ele>29.05</ele>
        <time>2019-06-02T14:24:07Z</time>
      </trkpt>
      <trkpt lat="44.86834" lon="-0.40755">
        <ele>26.24</ele>
        <time>2019-06-02T14:24:13Z</time>
      </trkpt>
      <trkpt lat="44.8684" lon="-0.40763">
        <ele>24.77</ele>
        <time>2019-06-02T14:24:14Z</time>
      </trkpt>
      <trkpt lat="44.86846" lon="-0.40768">
        <ele>23.71</ele>
        <time>2019-06-02T14:24:15Z</time>
      </trkpt>
      <trkpt lat="44.86854" lon="-0.40771">
        <ele>22.61</ele>
        <time>2019-06-02T14:24:16Z</time>
      </trkpt>
      <trkpt lat="44.86863" lon="-0.40771">
        <ele>21.12</ele>
        <time>2019-06-02T14:24:17Z</time>
      </trkpt>
      <trkpt lat="44.86872" lon="-0.40772">
        <ele>18.93</ele>
        <time>2019-06-02T14:24:18Z</time>
      </trkpt>
      <trkpt lat="44.86882" lon="-0.40775">
        <ele>17.85</ele>
        <time>2019-06-02T14:24:19Z</time>
      </trkpt>
      <trkpt lat="44.86891" lon="-0.4078">
        <ele>17.89</ele>
        <time>2019-06-02T14:24:20Z</time>
      </trkpt>
      <trkpt lat="44.86901" lon="-0.40786">
        <ele>16.76</ele>
        <time>2019-06-02T14:24:21Z</time>
      </trkpt>
      <trkpt lat="44.8691" lon="-0.40793">
        <ele>16.82</ele>
        <time>2019-06-02T14:24:22Z</time>
      </trkpt>
      <trkpt lat="44.86928" lon="-0.40808">
        <ele>15.51</ele>
        <time>2019-06-02T14:24:24Z</time>
      </trkpt>
      <trkpt lat="44.86937" lon="-0.40817">
        <ele>14.44</ele>
        <time>2019-06-02T14:24:25Z</time>
      </trkpt>
      <trkpt lat="44.86944" lon="-0.40828">
        <ele>12.13</ele>
        <time>2019-06-02T14:24:26Z</time>
      </trkpt>
      <trkpt lat="44.86951" lon="-0.40841">
        <ele>10.25</ele>
        <time>2019-06-02T14:24:27Z</time>
      </trkpt>
      <trkpt lat="44.86957" lon="-0.40855">
        <ele>8.84</ele>
        <time>2019-06-02T14:24:28Z</time>
      </trkpt>
      <trkpt lat="44.86968" lon="-0.40886">
        <ele>5.33</ele>
        <time>2019-06-02T14:24:30Z</time>
      </trkpt>
      <trkpt lat="44.86985" lon="-0.40933">
        <ele>2.98</ele>
        <time>2019-06-02T14:24:33Z</time>
      </trkpt>
      <trkpt lat="44.87004" lon="-0.40979">
        <ele>-0.06</ele>
        <time>2019-06-02T14:24:36Z</time>
      </trkpt>
      <trkpt lat="44.87015" lon="-0.4101">
        <ele>-1.16</ele>
        <time>2019-06-02T14:24:38Z</time>
      </trkpt>
      <trkpt lat="44.87036" lon="-0.4108">
        <ele>0.35</ele>
        <time>2019-06-02T14:24:43Z</time>
      </trkpt>
      <trkpt lat="44.87038" lon="-0.41093">
        <ele>0.38</ele>
        <time>2019-06-02T14:24:44Z</time>
      </trkpt>
      <trkpt lat="44.87046" lon="-0.41145">
        <ele>1.69</ele>
        <time>2019-06-02T14:24:49Z</time>
      </trkpt>
      <trkpt lat="44.87048" lon="-0.41161">
        <ele>3.24</ele>
        <time>2019-06-02T14:24:51Z</time>
      </trkpt>
      <trkpt lat="44.8705" lon="-0.41173">
        <ele>4.52</ele>
        <time>2019-06-02T14:24:53Z</time>
      </trkpt>
      <trkpt lat="44.87059" lon="-0.41232">
        <ele>6.14</ele>
        <time>2019-06-02T14:25:06Z</time>
      </trkpt>
      <trkpt lat="44.87059" lon="-0.41235">
        <ele>7.14</ele>
        <time>2019-06-02T14:25:07Z</time>
      </trkpt>
      <trkpt lat="44.87058" lon="-0.41238">
        <ele>7.14</ele>
        <time>2019-06-02T14:25:08Z</time>
      </trkpt>
      <trkpt lat="44.87056" lon="-0.41241">
        <ele>7.12</ele>
        <time>2019-06-02T14:25:09Z</time>
      </trkpt>
      <trkpt lat="44.87054" lon="-0.41243">
        <ele>7.13</ele>
        <time>2019-06-02T14:25:10Z</time>
      </trkpt>
      <trkpt lat="44.87051" lon="-0.41244">
        <ele>7.13</ele>
        <time>2019-06-02T14:25:11Z</time>
      </trkpt>
      <trkpt lat="44.87049" lon="-0.41245">
        <ele>7.13</ele>
        <time>2019-06-02T14:25:12Z</time>
      </trkpt>
      <trkpt lat="44.87007" lon="-0.41269">
        <ele>7.18</ele>
        <time>2019-06-02T14:25:27Z</time>
      </trkpt>
      <trkpt lat="44.86964" lon="-0.41293">
        <ele>9.14</ele>
        <time>2019-06-02T14:25:41Z</time>
      </trkpt>
      <trkpt lat="44.86911" lon="-0.41324">
        <ele>10.85</ele>
        <time>2019-06-02T14:25:58Z</time>
      </trkpt>
      <trkpt lat="44.86877" lon="-0.41347">
        <ele>11.63</ele>
        <time>2019-06-02T14:26:10Z</time>
      </trkpt>
      <trkpt lat="44.86846" lon="-0.41375">
        <ele>12.56</ele>
        <time>2019-06-02T14:26:22Z</time>
      </trkpt>
      <trkpt lat="44.86814" lon="-0.41404">
        <ele>12.5</ele>
        <time>2019-06-02T14:26:32Z</time>
      </trkpt>
      <trkpt lat="44.86814" lon="-0.41407">
        <ele>12.49</ele>
        <time>2019-06-02T14:26:33Z</time>
      </trkpt>
      <trkpt lat="44.86815" lon="-0.41409">
        <ele>12.49</ele>
        <time>2019-06-02T14:26:34Z</time>
      </trkpt>
      <trkpt lat="44.86816" lon="-0.41412">
        <ele>12.49</ele>
        <time>2019-06-02T14:26:35Z</time>
      </trkpt>
      <trkpt lat="44.86817" lon="-0.41415">
        <ele>13.33</ele>
        <time>2019-06-02T14:26:36Z</time>
      </trkpt>
      <trkpt lat="44.86819" lon="-0.41418">
        <ele>13.33</ele>
        <time>2019-06-02T14:26:37Z</time>
      </trkpt>
      <trkpt lat="44.8682" lon="-0.41421">
        <ele>13.32</ele>
        <time>2019-06-02T14:26:38Z</time>
      </trkpt>
      <trkpt lat="44.86821" lon="-0.41423">
        <ele>13.32</ele>
        <time>2019-06-02T14:26:39Z</time>
      </trkpt>
      <trkpt lat="44.86826" lon="-0.41431">
        <ele>14.28</ele>
        <time>2019-06-02T14:26:42Z</time>
      </trkpt>
      <trkpt lat="44.86841" lon="-0.41466">
        <ele>17.78</ele>
        <time>2019-06-02T14:26:53Z</time>
      </trkpt>
      <trkpt lat="44.86855" lon="-0.41495">
        <ele>20.53</ele>
        <time>2019-06-02T14:27:04Z</time>
      </trkpt>
      <trkpt lat="44.86866" lon="-0.41517">
        <ele>22.5</ele>
        <time>2019-06-02T14:27:13Z</time>
      </trkpt>
      <trkpt lat="44.86867" lon="-0.41519">
        <ele>22.27</ele>
        <time>2019-06-02T14:27:14Z</time>
      </trkpt>
      <trkpt lat="44.86868" lon="-0.41522">
        <ele>22.26</ele>
        <time>2019-06-02T14:27:15Z</time>
      </trkpt>
      <trkpt lat="44.86869" lon="-0.41524">
        <ele>22.24</ele>
        <time>2019-06-02T14:27:16Z</time>
      </trkpt>
      <trkpt lat="44.8687" lon="-0.41527">
        <ele>23.16</ele>
        <time>2019-06-02T14:27:17Z</time>
      </trkpt>
      <trkpt lat="44.86871" lon="-0.4153">
        <ele>23.15</ele>
        <time>2019-06-02T14:27:18Z</time>
      </trkpt>
      <trkpt lat="44.86872" lon="-0.41534">
        <ele>23.13</ele>
        <time>2019-06-02T14:27:19Z</time>
      </trkpt>
      <trkpt lat="44.86874" lon="-0.41536">
        <ele>23.11</ele>
        <time>2019-06-02T14:27:20Z</time>
      </trkpt>
      <trkpt lat="44.86876" lon="-0.41543">
        <ele>23.08</ele>
        <time>2019-06-02T14:27:22Z</time>
      </trkpt>
      <trkpt lat="44.86895" lon="-0.41569">
        <ele>27.06</ele>
        <time>2019-06-02T14:27:33Z</time>
      </trkpt>
      <trkpt lat="44.86896" lon="-0.41571">
        <ele>27.02</ele>
        <time>2019-06-02T14:27:34Z</time>
      </trkpt>
      <trkpt lat="44.86897" lon="-0.41575">
        <ele>27.04</ele>
        <time>2019-06-02T14:27:35Z</time>
      </trkpt>
      <trkpt lat="44.86901" lon="-0.416">
        <ele>30.59</ele>
        <time>2019-06-02T14:27:44Z</time>
      </trkpt>
      <trkpt lat="44.86903" lon="-0.41628">
        <ele>34.05</ele>
        <time>2019-06-02T14:27:55Z</time>
      </trkpt>
      <trkpt lat="44.86904" lon="-0.41675">
        <ele>37.57</ele>
        <time>2019-06-02T14:28:09Z</time>
      </trkpt>
      <trkpt lat="44.86902" lon="-0.41712">
        <ele>38.42</ele>
        <time>2019-06-02T14:28:25Z</time>
      </trkpt>
      <trkpt lat="44.86898" lon="-0.41745">
        <ele>39.22</ele>
        <time>2019-06-02T14:28:40Z</time>
      </trkpt>
      <trkpt lat="44.86892" lon="-0.41792">
        <ele>39.35</ele>
        <time>2019-06-02T14:28:59Z</time>
      </trkpt>
      <trkpt lat="44.86891" lon="-0.41846">
        <ele>40.27</ele>
        <time>2019-06-02T14:29:21Z</time>
      </trkpt>
      <trkpt lat="44.86889" lon="-0.41884">
        <ele>41.16</ele>
        <time>2019-06-02T14:29:38Z</time>
      </trkpt>
      <trkpt lat="44.86888" lon="-0.41888">
        <ele>41.17</ele>
        <time>2019-06-02T14:29:40Z</time>
      </trkpt>
      <trkpt lat="44.86888" lon="-0.41891">
        <ele>41.18</ele>
        <time>2019-06-02T14:29:41Z</time>
      </trkpt>
      <trkpt lat="44.86888" lon="-0.41893">
        <ele>41.18</ele>
        <time>2019-06-02T14:29:42Z</time>
      </trkpt>
      <trkpt lat="44.86887" lon="-0.41895">
        <ele>41.18</ele>
        <time>2019-06-02T14:29:43Z</time>
      </trkpt>
      <trkpt lat="44.86887" lon="-0.41898">
        <ele>41.19</ele>
        <time>2019-06-02T14:29:44Z</time>
      </trkpt>
      <trkpt lat="44.86887" lon="-0.419">
        <ele>41.19</ele>
        <time>2019-06-02T14:29:45Z</time>
      </trkpt>
      <trkpt lat="44.86886" lon="-0.41902">
        <ele>41.2</ele>
        <time>2019-06-02T14:29:46Z</time>
      </trkpt>
      <trkpt lat="44.86886" lon="-0.41904">
        <ele>41.2</ele>
        <time>2019-06-02T14:29:47Z</time>
      </trkpt>
      <trkpt lat="44.86886" lon="-0.41906">
        <ele>41.21</ele>
        <time>2019-06-02T14:29:48Z</time>
      </trkpt>
      <trkpt lat="44.86885" lon="-0.41911">
        <ele>42</ele>
        <time>2019-06-02T14:29:52Z</time>
      </trkpt>
      <trkpt lat="44.86885" lon="-0.41912">
        <ele>42.01</ele>
        <time>2019-06-02T14:29:53Z</time>
      </trkpt>
      <trkpt lat="44.86884" lon="-0.41914">
        <ele>42.01</ele>
        <time>2019-06-02T14:29:54Z</time>
      </trkpt>
      <trkpt lat="44.86883" lon="-0.41919">
        <ele>42.03</ele>
        <time>2019-06-02T14:29:57Z</time>
      </trkpt>
      <trkpt lat="44.86883" lon="-0.41921">
        <ele>42.03</ele>
        <time>2019-06-02T14:29:58Z</time>
      </trkpt>
      <trkpt lat="44.86878" lon="-0.41955">
        <ele>42.11</ele>
        <time>2019-06-02T14:30:15Z</time>
      </trkpt>
      <trkpt lat="44.86878" lon="-0.41957">
        <ele>42.11</ele>
        <time>2019-06-02T14:30:16Z</time>
      </trkpt>
      <trkpt lat="44.86879" lon="-0.41959">
        <ele>42.12</ele>
        <time>2019-06-02T14:30:17Z</time>
      </trkpt>
      <trkpt lat="44.86879" lon="-0.41961">
        <ele>42.13</ele>
        <time>2019-06-02T14:30:18Z</time>
      </trkpt>
      <trkpt lat="44.86879" lon="-0.41964">
        <ele>42.13</ele>
        <time>2019-06-02T14:30:19Z</time>
      </trkpt>
      <trkpt lat="44.86878" lon="-0.41966">
        <ele>42.13</ele>
        <time>2019-06-02T14:30:20Z</time>
      </trkpt>
      <trkpt lat="44.86877" lon="-0.42011">
        <ele>42.21</ele>
        <time>2019-06-02T14:30:38Z</time>
      </trkpt>
      <trkpt lat="44.86876" lon="-0.42034">
        <ele>43.17</ele>
        <time>2019-06-02T14:30:53Z</time>
      </trkpt>
      <trkpt lat="44.86876" lon="-0.42034">
        <ele>43.28</ele>
        <time>2019-06-02T14:31:23Z</time>
      </trkpt>
      <trkpt lat="44.86876" lon="-0.42038">
        <ele>43.42</ele>
        <time>2019-06-02T14:32:02Z</time>
      </trkpt>
      <trkpt lat="44.8687" lon="-0.42066">
        <ele>43.46</ele>
        <time>2019-06-02T14:32:11Z</time>
      </trkpt>
      <trkpt lat="44.86868" lon="-0.42069">
        <ele>43.46</ele>
        <time>2019-06-02T14:32:12Z</time>
      </trkpt>
      <trkpt lat="44.86822" lon="-0.42074">
        <ele>43.52</ele>
        <time>2019-06-02T14:32:26Z</time>
      </trkpt>
      <trkpt lat="44.86784" lon="-0.42063">
        <ele>41.12</ele>
        <time>2019-06-02T14:32:38Z</time>
      </trkpt>
      <trkpt lat="44.86732" lon="-0.42046">
        <ele>39.76</ele>
        <time>2019-06-02T14:32:52Z</time>
      </trkpt>
      <trkpt lat="44.86662" lon="-0.4204">
        <ele>39.84</ele>
        <time>2019-06-02T14:33:10Z</time>
      </trkpt>
      <trkpt lat="44.8664" lon="-0.42042">
        <ele>42.17</ele>
        <time>2019-06-02T14:33:17Z</time>
      </trkpt>
      <trkpt lat="44.86626" lon="-0.42046">
        <ele>43.24</ele>
        <time>2019-06-02T14:33:22Z</time>
      </trkpt>
      <trkpt lat="44.86625" lon="-0.42049">
        <ele>43.25</ele>
        <time>2019-06-02T14:33:23Z</time>
      </trkpt>
      <trkpt lat="44.86635" lon="-0.42082">
        <ele>46.2</ele>
        <time>2019-06-02T14:33:34Z</time>
      </trkpt>
      <trkpt lat="44.86644" lon="-0.42127">
        <ele>46.08</ele>
        <time>2019-06-02T14:33:47Z</time>
      </trkpt>
      <trkpt lat="44.86648" lon="-0.42156">
        <ele>46.96</ele>
        <time>2019-06-02T14:33:57Z</time>
      </trkpt>
      <trkpt lat="44.86655" lon="-0.42166">
        <ele>46.96</ele>
        <time>2019-06-02T14:34:03Z</time>
      </trkpt>
      <trkpt lat="44.86658" lon="-0.42188">
        <ele>46.95</ele>
        <time>2019-06-02T14:34:11Z</time>
      </trkpt>
      <trkpt lat="44.86662" lon="-0.42205">
        <ele>46.93</ele>
        <time>2019-06-02T14:34:17Z</time>
      </trkpt>
      <trkpt lat="44.86663" lon="-0.42227">
        <ele>46.9</ele>
        <time>2019-06-02T14:34:24Z</time>
      </trkpt>
      <trkpt lat="44.8666" lon="-0.42252">
        <ele>46.84</ele>
        <time>2019-06-02T14:34:34Z</time>
      </trkpt>
      <trkpt lat="44.86658" lon="-0.42251">
        <ele>46.84</ele>
        <time>2019-06-02T14:34:35Z</time>
      </trkpt>
      <trkpt lat="44.86641" lon="-0.42255">
        <ele>46.81</ele>
        <time>2019-06-02T14:34:42Z</time>
      </trkpt>
      <trkpt lat="44.86595" lon="-0.42295">
        <ele>46.82</ele>
        <time>2019-06-02T14:35:01Z</time>
      </trkpt>
      <trkpt lat="44.86588" lon="-0.42305">
        <ele>46.83</ele>
        <time>2019-06-02T14:35:05Z</time>
      </trkpt>
      <trkpt lat="44.86545" lon="-0.42343">
        <ele>44.29</ele>
        <time>2019-06-02T14:35:20Z</time>
      </trkpt>
      <trkpt lat="44.86515" lon="-0.4237">
        <ele>43.25</ele>
        <time>2019-06-02T14:35:30Z</time>
      </trkpt>
      <trkpt lat="44.86515" lon="-0.42373">
        <ele>43.26</ele>
        <time>2019-06-02T14:35:31Z</time>
      </trkpt>
      <trkpt lat="44.86515" lon="-0.42376">
        <ele>43.29</ele>
        <time>2019-06-02T14:35:32Z</time>
      </trkpt>
      <trkpt lat="44.86527" lon="-0.42435">
        <ele>45.96</ele>
        <time>2019-06-02T14:35:48Z</time>
      </trkpt>
      <trkpt lat="44.86544" lon="-0.42509">
        <ele>45.98</ele>
        <time>2019-06-02T14:36:05Z</time>
      </trkpt>
      <trkpt lat="44.86564" lon="-0.42598">
        <ele>46.84</ele>
        <time>2019-06-02T14:36:23Z</time>
      </trkpt>
      <trkpt lat="44.86571" lon="-0.4263">
        <ele>46.87</ele>
        <time>2019-06-02T14:36:29Z</time>
      </trkpt>
      <trkpt lat="44.86572" lon="-0.42635">
        <ele>46.88</ele>
        <time>2019-06-02T14:36:30Z</time>
      </trkpt>
      <trkpt lat="44.86585" lon="-0.42681">
        <ele>47.71</ele>
        <time>2019-06-02T14:36:39Z</time>
      </trkpt>
      <trkpt lat="44.86607" lon="-0.42784">
        <ele>47.78</ele>
        <time>2019-06-02T14:36:56Z</time>
      </trkpt>
      <trkpt lat="44.86635" lon="-0.42912">
        <ele>47.9</ele>
        <time>2019-06-02T14:37:18Z</time>
      </trkpt>
      <trkpt lat="44.86644" lon="-0.42976">
        <ele>48.74</ele>
        <time>2019-06-02T14:37:30Z</time>
      </trkpt>
      <trkpt lat="44.86641" lon="-0.42978">
        <ele>48.75</ele>
        <time>2019-06-02T14:37:31Z</time>
      </trkpt>
      <trkpt lat="44.86638" lon="-0.42979">
        <ele>48.75</ele>
        <time>2019-06-02T14:37:32Z</time>
      </trkpt>
      <trkpt lat="44.8657" lon="-0.43002">
        <ele>49.64</ele>
        <time>2019-06-02T14:37:48Z</time>
      </trkpt>
      <trkpt lat="44.86545" lon="-0.43012">
        <ele>49.64</ele>
        <time>2019-06-02T14:37:54Z</time>
      </trkpt>
      <trkpt lat="44.86541" lon="-0.43015">
        <ele>49.65</ele>
        <time>2019-06-02T14:37:55Z</time>
      </trkpt>
      <trkpt lat="44.86537" lon="-0.43018">
        <ele>49.65</ele>
        <time>2019-06-02T14:37:56Z</time>
      </trkpt>
      <trkpt lat="44.86522" lon="-0.43028">
        <ele>47.24</ele>
        <time>2019-06-02T14:38:00Z</time>
      </trkpt>
      <trkpt lat="44.86498" lon="-0.43039">
        <ele>45.95</ele>
        <time>2019-06-02T14:38:05Z</time>
      </trkpt>
      <trkpt lat="44.86474" lon="-0.43043">
        <ele>42.93</ele>
        <time>2019-06-02T14:38:09Z</time>
      </trkpt>
      <trkpt lat="44.8645" lon="-0.43042">
        <ele>39.39</ele>
        <time>2019-06-02T14:38:12Z</time>
      </trkpt>
      <trkpt lat="44.86442" lon="-0.43041">
        <ele>38.05</ele>
        <time>2019-06-02T14:38:13Z</time>
      </trkpt>
      <trkpt lat="44.86435" lon="-0.43041">
        <ele>37.07</ele>
        <time>2019-06-02T14:38:14Z</time>
      </trkpt>
      <trkpt lat="44.86429" lon="-0.4304">
        <ele>37.01</ele>
        <time>2019-06-02T14:38:15Z</time>
      </trkpt>
      <trkpt lat="44.86423" lon="-0.43041">
        <ele>36.02</ele>
        <time>2019-06-02T14:38:16Z</time>
      </trkpt>
      <trkpt lat="44.86416" lon="-0.43044">
        <ele>35.97</ele>
        <time>2019-06-02T14:38:17Z</time>
      </trkpt>
      <trkpt lat="44.86409" lon="-0.43049">
        <ele>34.34</ele>
        <time>2019-06-02T14:38:18Z</time>
      </trkpt>
      <trkpt lat="44.86404" lon="-0.43054">
        <ele>34.4</ele>
        <time>2019-06-02T14:38:19Z</time>
      </trkpt>
      <trkpt lat="44.86392" lon="-0.43065">
        <ele>33.11</ele>
        <time>2019-06-02T14:38:21Z</time>
      </trkpt>
      <trkpt lat="44.86387" lon="-0.43071">
        <ele>32.29</ele>
        <time>2019-06-02T14:38:22Z</time>
      </trkpt>
      <trkpt lat="44.8638" lon="-0.43082">
        <ele>32.27</ele>
        <time>2019-06-02T14:38:24Z</time>
      </trkpt>
      <trkpt lat="44.86373" lon="-0.43097">
        <ele>34.99</ele>
        <time>2019-06-02T14:38:29Z</time>
      </trkpt>
      <trkpt lat="44.86371" lon="-0.43103">
        <ele>36.51</ele>
        <time>2019-06-02T14:38:31Z</time>
      </trkpt>
      <trkpt lat="44.86369" lon="-0.43107">
        <ele>37.77</ele>
        <time>2019-06-02T14:38:33Z</time>
      </trkpt>
      <trkpt lat="44.86367" lon="-0.43112">
        <ele>38.89</ele>
        <time>2019-06-02T14:38:35Z</time>
      </trkpt>
      <trkpt lat="44.86365" lon="-0.43114">
        <ele>40.21</ele>
        <time>2019-06-02T14:38:36Z</time>
      </trkpt>
      <trkpt lat="44.86364" lon="-0.43116">
        <ele>40.27</ele>
        <time>2019-06-02T14:38:37Z</time>
      </trkpt>
      <trkpt lat="44.86345" lon="-0.43155">
        <ele>42.65</ele>
        <time>2019-06-02T14:38:52Z</time>
      </trkpt>
      <trkpt lat="44.86328" lon="-0.4318">
        <ele>43.96</ele>
        <time>2019-06-02T14:39:05Z</time>
      </trkpt>
      <trkpt lat="44.8631" lon="-0.43204">
        <ele>44.54</ele>
        <time>2019-06-02T14:39:18Z</time>
      </trkpt>
      <trkpt lat="44.86286" lon="-0.43233">
        <ele>45.14</ele>
        <time>2019-06-02T14:39:33Z</time>
      </trkpt>
      <trkpt lat="44.86268" lon="-0.43259">
        <ele>46.72</ele>
        <time>2019-06-02T14:39:46Z</time>
      </trkpt>
      <trkpt lat="44.86243" lon="-0.43292">
        <ele>47.45</ele>
        <time>2019-06-02T14:40:03Z</time>
      </trkpt>
      <trkpt lat="44.86235" lon="-0.43303">
        <ele>47.38</ele>
        <time>2019-06-02T14:40:18Z</time>
      </trkpt>
      <trkpt lat="44.86235" lon="-0.43301">
        <ele>47.46</ele>
        <time>2019-06-02T14:40:58Z</time>
      </trkpt>
      <trkpt lat="44.86233" lon="-0.433">
        <ele>47.59</ele>
        <time>2019-06-02T14:41:29Z</time>
      </trkpt>
      <trkpt lat="44.8623" lon="-0.433">
        <ele>47.59</ele>
        <time>2019-06-02T14:41:32Z</time>
      </trkpt>
      <trkpt lat="44.86229" lon="-0.43301">
        <ele>47.58</ele>
        <time>2019-06-02T14:41:33Z</time>
      </trkpt>
      <trkpt lat="44.86203" lon="-0.43312">
        <ele>45.22</ele>
        <time>2019-06-02T14:41:41Z</time>
      </trkpt>
      <trkpt lat="44.86182" lon="-0.43322">
        <ele>41.6</ele>
        <time>2019-06-02T14:41:44Z</time>
      </trkpt>
      <trkpt lat="44.86156" lon="-0.43334">
        <ele>37.32</ele>
        <time>2019-06-02T14:41:47Z</time>
      </trkpt>
      <trkpt lat="44.86127" lon="-0.43346">
        <ele>33.64</ele>
        <time>2019-06-02T14:41:50Z</time>
      </trkpt>
      <trkpt lat="44.86104" lon="-0.43355">
        <ele>29.59</ele>
        <time>2019-06-02T14:41:52Z</time>
      </trkpt>
      <trkpt lat="44.86092" lon="-0.43359">
        <ele>27.28</ele>
        <time>2019-06-02T14:41:53Z</time>
      </trkpt>
      <trkpt lat="44.8608" lon="-0.43361">
        <ele>25.37</ele>
        <time>2019-06-02T14:41:54Z</time>
      </trkpt>
      <trkpt lat="44.86068" lon="-0.43362">
        <ele>24.2</ele>
        <time>2019-06-02T14:41:55Z</time>
      </trkpt>
      <trkpt lat="44.86057" lon="-0.43362">
        <ele>24.17</ele>
        <time>2019-06-02T14:41:56Z</time>
      </trkpt>
      <trkpt lat="44.86046" lon="-0.43361">
        <ele>24.22</ele>
        <time>2019-06-02T14:41:57Z</time>
      </trkpt>
      <trkpt lat="44.86001" lon="-0.43356">
        <ele>24.24</ele>
        <time>2019-06-02T14:42:02Z</time>
      </trkpt>
      <trkpt lat="44.85994" lon="-0.43358">
        <ele>27.35</ele>
        <time>2019-06-02T14:42:03Z</time>
      </trkpt>
      <trkpt lat="44.85989" lon="-0.43361">
        <ele>28.71</ele>
        <time>2019-06-02T14:42:04Z</time>
      </trkpt>
      <trkpt lat="44.85978" lon="-0.4337">
        <ele>30.23</ele>
        <time>2019-06-02T14:42:06Z</time>
      </trkpt>
      <trkpt lat="44.85968" lon="-0.4338">
        <ele>31.61</ele>
        <time>2019-06-02T14:42:08Z</time>
      </trkpt>
      <trkpt lat="44.85952" lon="-0.43393">
        <ele>32.53</ele>
        <time>2019-06-02T14:42:11Z</time>
      </trkpt>
      <trkpt lat="44.85946" lon="-0.43395">
        <ele>33.44</ele>
        <time>2019-06-02T14:42:12Z</time>
      </trkpt>
      <trkpt lat="44.85941" lon="-0.43397">
        <ele>33.47</ele>
        <time>2019-06-02T14:42:13Z</time>
      </trkpt>
      <trkpt lat="44.85935" lon="-0.43398">
        <ele>33.46</ele>
        <time>2019-06-02T14:42:14Z</time>
      </trkpt>
      <trkpt lat="44.85929" lon="-0.43399">
        <ele>34.34</ele>
        <time>2019-06-02T14:42:15Z</time>
      </trkpt>
      <trkpt lat="44.85865" lon="-0.43396">
        <ele>37.95</ele>
        <time>2019-06-02T14:42:28Z</time>
      </trkpt>
      <trkpt lat="44.85834" lon="-0.43385">
        <ele>39.83</ele>
        <time>2019-06-02T14:42:38Z</time>
      </trkpt>
      <trkpt lat="44.85823" lon="-0.4335">
        <ele>43.53</ele>
        <time>2019-06-02T14:42:46Z</time>
      </trkpt>
      <trkpt lat="44.8581" lon="-0.43294">
        <ele>45.18</ele>
        <time>2019-06-02T14:43:02Z</time>
      </trkpt>
      <trkpt lat="44.85806" lon="-0.43264">
        <ele>45.06</ele>
        <time>2019-06-02T14:43:12Z</time>
      </trkpt>
      <trkpt lat="44.85805" lon="-0.43261">
        <ele>45.07</ele>
        <time>2019-06-02T14:43:13Z</time>
      </trkpt>
      <trkpt lat="44.85804" lon="-0.43258">
        <ele>45.06</ele>
        <time>2019-06-02T14:43:14Z</time>
      </trkpt>
      <trkpt lat="44.85804" lon="-0.43256">
        <ele>45.04</ele>
        <time>2019-06-02T14:43:15Z</time>
      </trkpt>
      <trkpt lat="44.85804" lon="-0.43253">
        <ele>45.05</ele>
        <time>2019-06-02T14:43:16Z</time>
      </trkpt>
      <trkpt lat="44.85804" lon="-0.43251">
        <ele>45.05</ele>
        <time>2019-06-02T14:43:17Z</time>
      </trkpt>
      <trkpt lat="44.85804" lon="-0.43248">
        <ele>45.05</ele>
        <time>2019-06-02T14:43:18Z</time>
      </trkpt>
      <trkpt lat="44.85803" lon="-0.43245">
        <ele>45.05</ele>
        <time>2019-06-02T14:43:19Z</time>
      </trkpt>
      <trkpt lat="44.85802" lon="-0.43242">
        <ele>45.05</ele>
        <time>2019-06-02T14:43:20Z</time>
      </trkpt>
      <trkpt lat="44.85801" lon="-0.43238">
        <ele>42.72</ele>
        <time>2019-06-02T14:43:21Z</time>
      </trkpt>
      <trkpt lat="44.85801" lon="-0.43234">
        <ele>42.7</ele>
        <time>2019-06-02T14:43:22Z</time>
      </trkpt>
      <trkpt lat="44.85801" lon="-0.43231">
        <ele>42.69</ele>
        <time>2019-06-02T14:43:23Z</time>
      </trkpt>
      <trkpt lat="44.858" lon="-0.43228">
        <ele>42.71</ele>
        <time>2019-06-02T14:43:24Z</time>
      </trkpt>
      <trkpt lat="44.85798" lon="-0.43224">
        <ele>41.89</ele>
        <time>2019-06-02T14:43:25Z</time>
      </trkpt>
      <trkpt lat="44.85788" lon="-0.43208">
        <ele>41.86</ele>
        <time>2019-06-02T14:43:29Z</time>
      </trkpt>
      <trkpt lat="44.85784" lon="-0.43204">
        <ele>41.04</ele>
        <time>2019-06-02T14:43:30Z</time>
      </trkpt>
      <trkpt lat="44.85779" lon="-0.43201">
        <ele>41.03</ele>
        <time>2019-06-02T14:43:31Z</time>
      </trkpt>
      <trkpt lat="44.85762" lon="-0.43187">
        <ele>39.3</ele>
        <time>2019-06-02T14:43:35Z</time>
      </trkpt>
      <trkpt lat="44.85757" lon="-0.43181">
        <ele>39.28</ele>
        <time>2019-06-02T14:43:36Z</time>
      </trkpt>
      <trkpt lat="44.85753" lon="-0.43174">
        <ele>38.36</ele>
        <time>2019-06-02T14:43:37Z</time>
      </trkpt>
      <trkpt lat="44.85744" lon="-0.43158">
        <ele>37.53</ele>
        <time>2019-06-02T14:43:39Z</time>
      </trkpt>
      <trkpt lat="44.85735" lon="-0.43136">
        <ele>34.47</ele>
        <time>2019-06-02T14:43:41Z</time>
      </trkpt>
      <trkpt lat="44.85724" lon="-0.43113">
        <ele>31.38</ele>
        <time>2019-06-02T14:43:43Z</time>
      </trkpt>
      <trkpt lat="44.85719" lon="-0.431">
        <ele>29.83</ele>
        <time>2019-06-02T14:43:44Z</time>
      </trkpt>
      <trkpt lat="44.85715" lon="-0.43085">
        <ele>28.77</ele>
        <time>2019-06-02T14:43:45Z</time>
      </trkpt>
      <trkpt lat="44.85712" lon="-0.4307">
        <ele>27.35</ele>
        <time>2019-06-02T14:43:46Z</time>
      </trkpt>
      <trkpt lat="44.85706" lon="-0.43038">
        <ele>23.37</ele>
        <time>2019-06-02T14:43:48Z</time>
      </trkpt>
      <trkpt lat="44.85702" lon="-0.43022">
        <ele>21.55</ele>
        <time>2019-06-02T14:43:49Z</time>
      </trkpt>
      <trkpt lat="44.85688" lon="-0.42974">
        <ele>17.53</ele>
        <time>2019-06-02T14:43:52Z</time>
      </trkpt>
      <trkpt lat="44.85684" lon="-0.42958">
        <ele>17.63</ele>
        <time>2019-06-02T14:43:53Z</time>
      </trkpt>
      <trkpt lat="44.8567" lon="-0.42909">
        <ele>16.65</ele>
        <time>2019-06-02T14:43:58Z</time>
      </trkpt>
      <trkpt lat="44.85668" lon="-0.42906">
        <ele>16.76</ele>
        <time>2019-06-02T14:43:59Z</time>
      </trkpt>
      <trkpt lat="44.85666" lon="-0.42905">
        <ele>16.83</ele>
        <time>2019-06-02T14:44:00Z</time>
      </trkpt>
      <trkpt lat="44.85663" lon="-0.42906">
        <ele>19.43</ele>
        <time>2019-06-02T14:44:02Z</time>
      </trkpt>
      <trkpt lat="44.85654" lon="-0.42927">
        <ele>19.89</ele>
        <time>2019-06-02T14:44:13Z</time>
      </trkpt>
      <trkpt lat="44.85638" lon="-0.42953">
        <ele>19.81</ele>
        <time>2019-06-02T14:44:24Z</time>
      </trkpt>
      <trkpt lat="44.85607" lon="-0.42999">
        <ele>19.84</ele>
        <time>2019-06-02T14:44:38Z</time>
      </trkpt>
      <trkpt lat="44.85588" lon="-0.43028">
        <ele>19.9</ele>
        <time>2019-06-02T14:44:46Z</time>
      </trkpt>
      <trkpt lat="44.85577" lon="-0.43025">
        <ele>19.94</ele>
        <time>2019-06-02T14:44:50Z</time>
      </trkpt>
      <trkpt lat="44.85565" lon="-0.43018">
        <ele>17.31</ele>
        <time>2019-06-02T14:44:53Z</time>
      </trkpt>
      <trkpt lat="44.85507" lon="-0.42973">
        <ele>15.58</ele>
        <time>2019-06-02T14:45:09Z</time>
      </trkpt>
      <trkpt lat="44.85487" lon="-0.4296">
        <ele>15.69</ele>
        <time>2019-06-02T14:45:16Z</time>
      </trkpt>
      <trkpt lat="44.85474" lon="-0.42911">
        <ele>15.72</ele>
        <time>2019-06-02T14:45:27Z</time>
      </trkpt>
      <trkpt lat="44.85469" lon="-0.42877">
        <ele>15.72</ele>
        <time>2019-06-02T14:45:34Z</time>
      </trkpt>
      <trkpt lat="44.85461" lon="-0.42798">
        <ele>14.8</ele>
        <time>2019-06-02T14:45:49Z</time>
      </trkpt>
      <trkpt lat="44.85469" lon="-0.42781">
        <ele>14.82</ele>
        <time>2019-06-02T14:45:54Z</time>
      </trkpt>
      <trkpt lat="44.85467" lon="-0.42776">
        <ele>14.82</ele>
        <time>2019-06-02T14:45:56Z</time>
      </trkpt>
      <trkpt lat="44.85465" lon="-0.42775">
        <ele>14.82</ele>
        <time>2019-06-02T14:45:57Z</time>
      </trkpt>
      <trkpt lat="44.85464" lon="-0.42776">
        <ele>14.83</ele>
        <time>2019-06-02T14:45:58Z</time>
      </trkpt>
      <trkpt lat="44.85462" lon="-0.42778">
        <ele>14.83</ele>
        <time>2019-06-02T14:45:59Z</time>
      </trkpt>
      <trkpt lat="44.85414" lon="-0.42812">
        <ele>14.83</ele>
        <time>2019-06-02T14:46:18Z</time>
      </trkpt>
      <trkpt lat="44.85419" lon="-0.42801">
        <ele>14.86</ele>
        <time>2019-06-02T14:46:23Z</time>
      </trkpt>
      <trkpt lat="44.85413" lon="-0.428">
        <ele>14.86</ele>
        <time>2019-06-02T14:46:27Z</time>
      </trkpt>
      <trkpt lat="44.8538" lon="-0.42826">
        <ele>14.86</ele>
        <time>2019-06-02T14:46:40Z</time>
      </trkpt>
      <trkpt lat="44.8536" lon="-0.42838">
        <ele>16.17</ele>
        <time>2019-06-02T14:46:48Z</time>
      </trkpt>
      <trkpt lat="44.85356" lon="-0.42838">
        <ele>16.17</ele>
        <time>2019-06-02T14:46:50Z</time>
      </trkpt>
      <trkpt lat="44.85354" lon="-0.42836">
        <ele>16.18</ele>
        <time>2019-06-02T14:46:51Z</time>
      </trkpt>
      <trkpt lat="44.85327" lon="-0.42831">
        <ele>16.24</ele>
        <time>2019-06-02T14:47:02Z</time>
      </trkpt>
      <trkpt lat="44.85307" lon="-0.42806">
        <ele>19.62</ele>
        <time>2019-06-02T14:47:15Z</time>
      </trkpt>
      <trkpt lat="44.85299" lon="-0.42789">
        <ele>20.42</ele>
        <time>2019-06-02T14:47:22Z</time>
      </trkpt>
      <trkpt lat="44.85283" lon="-0.42761">
        <ele>21.08</ele>
        <time>2019-06-02T14:47:35Z</time>
      </trkpt>
      <trkpt lat="44.85257" lon="-0.42726">
        <ele>21</ele>
        <time>2019-06-02T14:47:48Z</time>
      </trkpt>
      <trkpt lat="44.85236" lon="-0.42701">
        <ele>20.97</ele>
        <time>2019-06-02T14:47:58Z</time>
      </trkpt>
      <trkpt lat="44.85211" lon="-0.42704">
        <ele>20.96</ele>
        <time>2019-06-02T14:48:08Z</time>
      </trkpt>
      <trkpt lat="44.85211" lon="-0.4273">
        <ele>20.92</ele>
        <time>2019-06-02T14:48:15Z</time>
      </trkpt>
      <trkpt lat="44.85213" lon="-0.42748">
        <ele>18.46</ele>
        <time>2019-06-02T14:48:18Z</time>
      </trkpt>
      <trkpt lat="44.85223" lon="-0.42771">
        <ele>16.4</ele>
        <time>2019-06-02T14:48:22Z</time>
      </trkpt>
      <trkpt lat="44.85222" lon="-0.42823">
        <ele>16.34</ele>
        <time>2019-06-02T14:48:31Z</time>
      </trkpt>
      <trkpt lat="44.852" lon="-0.4285">
        <ele>16.53</ele>
        <time>2019-06-02T14:48:42Z</time>
      </trkpt>
      <trkpt lat="44.8519" lon="-0.42863">
        <ele>16.52</ele>
        <time>2019-06-02T14:48:50Z</time>
      </trkpt>
      <trkpt lat="44.85188" lon="-0.42864">
        <ele>16.52</ele>
        <time>2019-06-02T14:48:51Z</time>
      </trkpt>
      <trkpt lat="44.85187" lon="-0.42866">
        <ele>16.51</ele>
        <time>2019-06-02T14:48:52Z</time>
      </trkpt>
      <trkpt lat="44.85186" lon="-0.42867">
        <ele>16.5</ele>
        <time>2019-06-02T14:48:53Z</time>
      </trkpt>
      <trkpt lat="44.85185" lon="-0.42869">
        <ele>18.82</ele>
        <time>2019-06-02T14:48:57Z</time>
      </trkpt>
      <trkpt lat="44.85179" lon="-0.42872">
        <ele>18.64</ele>
        <time>2019-06-02T14:49:20Z</time>
      </trkpt>
      <trkpt lat="44.85172" lon="-0.42871">
        <ele>18.5</ele>
        <time>2019-06-02T14:49:54Z</time>
      </trkpt>
      <trkpt lat="44.85172" lon="-0.42868">
        <ele>18.45</ele>
        <time>2019-06-02T14:50:31Z</time>
      </trkpt>
      <trkpt lat="44.8517" lon="-0.42876">
        <ele>18.49</ele>
        <time>2019-06-02T14:51:06Z</time>
      </trkpt>
      <trkpt lat="44.85173" lon="-0.42879">
        <ele>18.59</ele>
        <time>2019-06-02T14:51:43Z</time>
      </trkpt>
      <trkpt lat="44.85171" lon="-0.42877">
        <ele>18.69</ele>
        <time>2019-06-02T14:52:16Z</time>
      </trkpt>
      <trkpt lat="44.8516" lon="-0.42875">
        <ele>18.81</ele>
        <time>2019-06-02T14:52:43Z</time>
      </trkpt>
      <trkpt lat="44.85158" lon="-0.42876">
        <ele>18.81</ele>
        <time>2019-06-02T14:52:44Z</time>
      </trkpt>
      <trkpt lat="44.85157" lon="-0.42877">
        <ele>18.82</ele>
        <time>2019-06-02T14:52:45Z</time>
      </trkpt>
      <trkpt lat="44.85155" lon="-0.42877">
        <ele>18.82</ele>
        <time>2019-06-02T14:52:46Z</time>
      </trkpt>
      <trkpt lat="44.85153" lon="-0.42878">
        <ele>18.83</ele>
        <time>2019-06-02T14:52:47Z</time>
      </trkpt>
      <trkpt lat="44.85151" lon="-0.42878">
        <ele>18.84</ele>
        <time>2019-06-02T14:52:48Z</time>
      </trkpt>
      <trkpt lat="44.85149" lon="-0.42879">
        <ele>18.84</ele>
        <time>2019-06-02T14:52:49Z</time>
      </trkpt>
      <trkpt lat="44.85146" lon="-0.42879">
        <ele>18.85</ele>
        <time>2019-06-02T14:52:50Z</time>
      </trkpt>
      <trkpt lat="44.85144" lon="-0.42879">
        <ele>18.86</ele>
        <time>2019-06-02T14:52:51Z</time>
      </trkpt>
      <trkpt lat="44.85111" lon="-0.42881">
        <ele>18.95</ele>
        <time>2019-06-02T14:53:05Z</time>
      </trkpt>
      <trkpt lat="44.85073" lon="-0.42892">
        <ele>19.9</ele>
        <time>2019-06-02T14:53:20Z</time>
      </trkpt>
      <trkpt lat="44.85036" lon="-0.42914">
        <ele>19.97</ele>
        <time>2019-06-02T14:53:34Z</time>
      </trkpt>
      <trkpt lat="44.84995" lon="-0.42947">
        <ele>20.09</ele>
        <time>2019-06-02T14:53:51Z</time>
      </trkpt>
      <trkpt lat="44.84978" lon="-0.42959">
        <ele>21</ele>
        <time>2019-06-02T14:54:00Z</time>
      </trkpt>
      <trkpt lat="44.84978" lon="-0.42964">
        <ele>21.83</ele>
        <time>2019-06-02T14:54:12Z</time>
      </trkpt>
      <trkpt lat="44.84978" lon="-0.42966">
        <ele>21.84</ele>
        <time>2019-06-02T14:54:13Z</time>
      </trkpt>
      <trkpt lat="44.84978" lon="-0.42968">
        <ele>21.84</ele>
        <time>2019-06-02T14:54:14Z</time>
      </trkpt>
      <trkpt lat="44.84958" lon="-0.42987">
        <ele>23.42</ele>
        <time>2019-06-02T14:54:28Z</time>
      </trkpt>
      <trkpt lat="44.84941" lon="-0.4295">
        <ele>23.45</ele>
        <time>2019-06-02T14:54:39Z</time>
      </trkpt>
      <trkpt lat="44.84933" lon="-0.42934">
        <ele>23.45</ele>
        <time>2019-06-02T14:54:51Z</time>
      </trkpt>
      <trkpt lat="44.84932" lon="-0.4293">
        <ele>24.21</ele>
        <time>2019-06-02T14:55:23Z</time>
      </trkpt>
      <trkpt lat="44.84932" lon="-0.42931">
        <ele>24.17</ele>
        <time>2019-06-02T14:55:48Z</time>
      </trkpt>
      <trkpt lat="44.84931" lon="-0.42932">
        <ele>24.07</ele>
        <time>2019-06-02T14:56:26Z</time>
      </trkpt>
      <trkpt lat="44.84932" lon="-0.42922">
        <ele>23.98</ele>
        <time>2019-06-02T14:56:50Z</time>
      </trkpt>
      <trkpt lat="44.84933" lon="-0.42921">
        <ele>23.98</ele>
        <time>2019-06-02T14:56:52Z</time>
      </trkpt>
      <trkpt lat="44.84937" lon="-0.42921">
        <ele>23.96</ele>
        <time>2019-06-02T14:56:56Z</time>
      </trkpt>
      <trkpt lat="44.84953" lon="-0.42898">
        <ele>23.91</ele>
        <time>2019-06-02T14:57:07Z</time>
      </trkpt>
      <trkpt lat="44.8496" lon="-0.42891">
        <ele>21</ele>
        <time>2019-06-02T14:57:10Z</time>
      </trkpt>
      <trkpt lat="44.8498" lon="-0.42862">
        <ele>20.98</ele>
        <time>2019-06-02T14:57:24Z</time>
      </trkpt>
      <trkpt lat="44.84993" lon="-0.42846">
        <ele>23.39</ele>
        <time>2019-06-02T14:57:32Z</time>
      </trkpt>
      <trkpt lat="44.85021" lon="-0.42815">
        <ele>23.38</ele>
        <time>2019-06-02T14:57:48Z</time>
      </trkpt>
      <trkpt lat="44.85042" lon="-0.42791">
        <ele>23.38</ele>
        <time>2019-06-02T14:58:00Z</time>
      </trkpt>
      <trkpt lat="44.85042" lon="-0.42756">
        <ele>25.27</ele>
        <time>2019-06-02T14:58:12Z</time>
      </trkpt>
      <trkpt lat="44.85048" lon="-0.42743">
        <ele>26.16</ele>
        <time>2019-06-02T14:58:17Z</time>
      </trkpt>
      <trkpt lat="44.85056" lon="-0.42746">
        <ele>26.17</ele>
        <time>2019-06-02T14:58:22Z</time>
      </trkpt>
      <trkpt lat="44.8506" lon="-0.42758">
        <ele>26.16</ele>
        <time>2019-06-02T14:58:26Z</time>
      </trkpt>
      <trkpt lat="44.85064" lon="-0.42763">
        <ele>26.13</ele>
        <time>2019-06-02T14:58:31Z</time>
      </trkpt>
      <trkpt lat="44.8507" lon="-0.42766">
        <ele>23.38</ele>
        <time>2019-06-02T14:58:35Z</time>
      </trkpt>
      <trkpt lat="44.85074" lon="-0.4277">
        <ele>23.38</ele>
        <time>2019-06-02T14:58:40Z</time>
      </trkpt>
      <trkpt lat="44.85081" lon="-0.42776">
        <ele>23.33</ele>
        <time>2019-06-02T14:58:54Z</time>
      </trkpt>
      <trkpt lat="44.85086" lon="-0.42781">
        <ele>23.05</ele>
        <time>2019-06-02T14:59:32Z</time>
      </trkpt>
      <trkpt lat="44.85089" lon="-0.42781">
        <ele>23.03</ele>
        <time>2019-06-02T14:59:34Z</time>
      </trkpt>
      <trkpt lat="44.85105" lon="-0.42786">
        <ele>22.2</ele>
        <time>2019-06-02T14:59:43Z</time>
      </trkpt>
      <trkpt lat="44.85111" lon="-0.42771">
        <ele>24.91</ele>
        <time>2019-06-02T14:59:52Z</time>
      </trkpt>
      <trkpt lat="44.85111" lon="-0.42768">
        <ele>25.74</ele>
        <time>2019-06-02T14:59:54Z</time>
      </trkpt>
      <trkpt lat="44.85111" lon="-0.42755">
        <ele>27.72</ele>
        <time>2019-06-02T14:59:59Z</time>
      </trkpt>
      <trkpt lat="44.85112" lon="-0.42747">
        <ele>28.6</ele>
        <time>2019-06-02T15:00:02Z</time>
      </trkpt>
      <trkpt lat="44.85121" lon="-0.42737">
        <ele>29.35</ele>
        <time>2019-06-02T15:00:09Z</time>
      </trkpt>
      <trkpt lat="44.85125" lon="-0.42733">
        <ele>30.05</ele>
        <time>2019-06-02T15:00:27Z</time>
      </trkpt>
      <trkpt lat="44.85128" lon="-0.42733">
        <ele>30.83</ele>
        <time>2019-06-02T15:00:37Z</time>
      </trkpt>
      <trkpt lat="44.85133" lon="-0.42736">
        <ele>30.81</ele>
        <time>2019-06-02T15:00:40Z</time>
      </trkpt>
      <trkpt lat="44.85131" lon="-0.42743">
        <ele>30.77</ele>
        <time>2019-06-02T15:00:46Z</time>
      </trkpt>
      <trkpt lat="44.85128" lon="-0.42753">
        <ele>27.75</ele>
        <time>2019-06-02T15:00:51Z</time>
      </trkpt>
      <trkpt lat="44.85129" lon="-0.42762">
        <ele>25.92</ele>
        <time>2019-06-02T15:00:54Z</time>
      </trkpt>
      <trkpt lat="44.85127" lon="-0.42777">
        <ele>22.68</ele>
        <time>2019-06-02T15:00:59Z</time>
      </trkpt>
      <trkpt lat="44.85127" lon="-0.42779">
        <ele>22.68</ele>
        <time>2019-06-02T15:01:00Z</time>
      </trkpt>
      <trkpt lat="44.85132" lon="-0.4278">
        <ele>21.75</ele>
        <time>2019-06-02T15:01:11Z</time>
      </trkpt>
      <trkpt lat="44.85147" lon="-0.4278">
        <ele>21.8</ele>
        <time>2019-06-02T15:01:25Z</time>
      </trkpt>
      <trkpt lat="44.85145" lon="-0.42776">
        <ele>21.68</ele>
        <time>2019-06-02T15:02:03Z</time>
      </trkpt>
      <trkpt lat="44.85145" lon="-0.42776">
        <ele>21.7</ele>
        <time>2019-06-02T15:02:42Z</time>
      </trkpt>
      <trkpt lat="44.85154" lon="-0.42768">
        <ele>21.73</ele>
        <time>2019-06-02T15:02:49Z</time>
      </trkpt>
      <trkpt lat="44.85162" lon="-0.4277">
        <ele>21.72</ele>
        <time>2019-06-02T15:02:53Z</time>
      </trkpt>
      <trkpt lat="44.85184" lon="-0.42762">
        <ele>21.75</ele>
        <time>2019-06-02T15:03:03Z</time>
      </trkpt>
      <trkpt lat="44.85192" lon="-0.42754">
        <ele>21.73</ele>
        <time>2019-06-02T15:03:09Z</time>
      </trkpt>
      <trkpt lat="44.85192" lon="-0.42743">
        <ele>21.72</ele>
        <time>2019-06-02T15:03:13Z</time>
      </trkpt>
      <trkpt lat="44.85185" lon="-0.42742">
        <ele>24.69</ele>
        <time>2019-06-02T15:03:20Z</time>
      </trkpt>
      <trkpt lat="44.85177" lon="-0.42739">
        <ele>27.48</ele>
        <time>2019-06-02T15:03:38Z</time>
      </trkpt>
      <trkpt lat="44.85171" lon="-0.42739">
        <ele>28.21</ele>
        <time>2019-06-02T15:03:51Z</time>
      </trkpt>
      <trkpt lat="44.85165" lon="-0.42747">
        <ele>29.81</ele>
        <time>2019-06-02T15:04:00Z</time>
      </trkpt>
      <trkpt lat="44.85161" lon="-0.42747">
        <ele>29.81</ele>
        <time>2019-06-02T15:04:03Z</time>
      </trkpt>
      <trkpt lat="44.85157" lon="-0.42731">
        <ele>29.78</ele>
        <time>2019-06-02T15:04:13Z</time>
      </trkpt>
      <trkpt lat="44.85163" lon="-0.42726">
        <ele>29.76</ele>
        <time>2019-06-02T15:04:17Z</time>
      </trkpt>
      <trkpt lat="44.85166" lon="-0.42726">
        <ele>29.75</ele>
        <time>2019-06-02T15:04:19Z</time>
      </trkpt>
      <trkpt lat="44.85171" lon="-0.42725">
        <ele>29.75</ele>
        <time>2019-06-02T15:04:23Z</time>
      </trkpt>
      <trkpt lat="44.85174" lon="-0.42722">
        <ele>27.1</ele>
        <time>2019-06-02T15:04:26Z</time>
      </trkpt>
      <trkpt lat="44.85177" lon="-0.42723">
        <ele>25.8</ele>
        <time>2019-06-02T15:04:30Z</time>
      </trkpt>
      <trkpt lat="44.85179" lon="-0.42723">
        <ele>25.02</ele>
        <time>2019-06-02T15:04:34Z</time>
      </trkpt>
      <trkpt lat="44.85179" lon="-0.42711">
        <ele>23.22</ele>
        <time>2019-06-02T15:04:39Z</time>
      </trkpt>
      <trkpt lat="44.85184" lon="-0.42709">
        <ele>21.61</ele>
        <time>2019-06-02T15:04:47Z</time>
      </trkpt>
      <trkpt lat="44.85189" lon="-0.42711">
        <ele>21.61</ele>
        <time>2019-06-02T15:05:02Z</time>
      </trkpt>
      <trkpt lat="44.8519" lon="-0.42718">
        <ele>21.51</ele>
        <time>2019-06-02T15:05:37Z</time>
      </trkpt>
      <trkpt lat="44.85183" lon="-0.42708">
        <ele>21.43</ele>
        <time>2019-06-02T15:05:54Z</time>
      </trkpt>
      <trkpt lat="44.85181" lon="-0.42706">
        <ele>20.61</ele>
        <time>2019-06-02T15:05:57Z</time>
      </trkpt>
      <trkpt lat="44.85176" lon="-0.42698">
        <ele>20.59</ele>
        <time>2019-06-02T15:06:05Z</time>
      </trkpt>
      <trkpt lat="44.85161" lon="-0.42683">
        <ele>20.55</ele>
        <time>2019-06-02T15:06:21Z</time>
      </trkpt>
      <trkpt lat="44.85152" lon="-0.42672">
        <ele>20.39</ele>
        <time>2019-06-02T15:06:44Z</time>
      </trkpt>
      <trkpt lat="44.85144" lon="-0.42675">
        <ele>23.69</ele>
        <time>2019-06-02T15:06:50Z</time>
      </trkpt>
      <trkpt lat="44.85143" lon="-0.42675">
        <ele>24.49</ele>
        <time>2019-06-02T15:06:52Z</time>
      </trkpt>
      <trkpt lat="44.85144" lon="-0.42685">
        <ele>26.79</ele>
        <time>2019-06-02T15:07:10Z</time>
      </trkpt>
      <trkpt lat="44.85143" lon="-0.4269">
        <ele>28.27</ele>
        <time>2019-06-02T15:07:31Z</time>
      </trkpt>
      <trkpt lat="44.85142" lon="-0.42692">
        <ele>28.25</ele>
        <time>2019-06-02T15:07:36Z</time>
      </trkpt>
      <trkpt lat="44.85134" lon="-0.427">
        <ele>30.13</ele>
        <time>2019-06-02T15:07:44Z</time>
      </trkpt>
      <trkpt lat="44.85117" lon="-0.42702">
        <ele>30.11</ele>
        <time>2019-06-02T15:07:56Z</time>
      </trkpt>
      <trkpt lat="44.85112" lon="-0.42691">
        <ele>30.97</ele>
        <time>2019-06-02T15:08:03Z</time>
      </trkpt>
      <trkpt lat="44.85113" lon="-0.42678">
        <ele>30.94</ele>
        <time>2019-06-02T15:08:08Z</time>
      </trkpt>
      <trkpt lat="44.85114" lon="-0.42672">
        <ele>30.94</ele>
        <time>2019-06-02T15:08:10Z</time>
      </trkpt>
      <trkpt lat="44.85118" lon="-0.42666">
        <ele>30.92</ele>
        <time>2019-06-02T15:08:14Z</time>
      </trkpt>
      <trkpt lat="44.85122" lon="-0.42658">
        <ele>26.08</ele>
        <time>2019-06-02T15:08:17Z</time>
      </trkpt>
      <trkpt lat="44.85123" lon="-0.42654">
        <ele>26.07</ele>
        <time>2019-06-02T15:08:18Z</time>
      </trkpt>
      <trkpt lat="44.85127" lon="-0.42649">
        <ele>23.75</ele>
        <time>2019-06-02T15:08:30Z</time>
      </trkpt>
      <trkpt lat="44.85133" lon="-0.42643">
        <ele>22.94</ele>
        <time>2019-06-02T15:09:05Z</time>
      </trkpt>
      <trkpt lat="44.85133" lon="-0.42643">
        <ele>22.96</ele>
        <time>2019-06-02T15:09:38Z</time>
      </trkpt>
      <trkpt lat="44.85135" lon="-0.42644">
        <ele>23.03</ele>
        <time>2019-06-02T15:10:13Z</time>
      </trkpt>
      <trkpt lat="44.85136" lon="-0.42644">
        <ele>23.03</ele>
        <time>2019-06-02T15:10:16Z</time>
      </trkpt>
      <trkpt lat="44.85138" lon="-0.42643">
        <ele>23.04</ele>
        <time>2019-06-02T15:10:18Z</time>
      </trkpt>
      <trkpt lat="44.85137" lon="-0.42633">
        <ele>23.05</ele>
        <time>2019-06-02T15:10:24Z</time>
      </trkpt>
      <trkpt lat="44.85142" lon="-0.42613">
        <ele>23.07</ele>
        <time>2019-06-02T15:10:32Z</time>
      </trkpt>
      <trkpt lat="44.85138" lon="-0.42589">
        <ele>23.05</ele>
        <time>2019-06-02T15:10:44Z</time>
      </trkpt>
      <trkpt lat="44.8514" lon="-0.42584">
        <ele>25.38</ele>
        <time>2019-06-02T15:10:46Z</time>
      </trkpt>
      <trkpt lat="44.85142" lon="-0.42577">
        <ele>26.64</ele>
        <time>2019-06-02T15:10:49Z</time>
      </trkpt>
      <trkpt lat="44.85142" lon="-0.42575">
        <ele>26.6</ele>
        <time>2019-06-02T15:10:50Z</time>
      </trkpt>
      <trkpt lat="44.85152" lon="-0.42571">
        <ele>26.58</ele>
        <time>2019-06-02T15:10:59Z</time>
      </trkpt>
      <trkpt lat="44.85162" lon="-0.42566">
        <ele>26.56</ele>
        <time>2019-06-02T15:11:05Z</time>
      </trkpt>
      <trkpt lat="44.85178" lon="-0.42567">
        <ele>26.52</ele>
        <time>2019-06-02T15:11:12Z</time>
      </trkpt>
      <trkpt lat="44.8518" lon="-0.42569">
        <ele>26.51</ele>
        <time>2019-06-02T15:11:13Z</time>
      </trkpt>
      <trkpt lat="44.85182" lon="-0.4257">
        <ele>26.51</ele>
        <time>2019-06-02T15:11:14Z</time>
      </trkpt>
      <trkpt lat="44.85188" lon="-0.42575">
        <ele>26.5</ele>
        <time>2019-06-02T15:11:19Z</time>
      </trkpt>
      <trkpt lat="44.85193" lon="-0.42564">
        <ele>28.47</ele>
        <time>2019-06-02T15:11:25Z</time>
      </trkpt>
      <trkpt lat="44.85193" lon="-0.42561">
        <ele>29.96</ele>
        <time>2019-06-02T15:11:27Z</time>
      </trkpt>
      <trkpt lat="44.852" lon="-0.42559">
        <ele>30.71</ele>
        <time>2019-06-02T15:11:38Z</time>
      </trkpt>
      <trkpt lat="44.85201" lon="-0.42562">
        <ele>30.59</ele>
        <time>2019-06-02T15:12:15Z</time>
      </trkpt>
      <trkpt lat="44.85208" lon="-0.42566">
        <ele>30.66</ele>
        <time>2019-06-02T15:12:41Z</time>
      </trkpt>
      <trkpt lat="44.85217" lon="-0.42568">
        <ele>30.66</ele>
        <time>2019-06-02T15:12:45Z</time>
      </trkpt>
      <trkpt lat="44.8523" lon="-0.42569">
        <ele>30.69</ele>
        <time>2019-06-02T15:12:51Z</time>
      </trkpt>
      <trkpt lat="44.85238" lon="-0.4257">
        <ele>30.7</ele>
        <time>2019-06-02T15:12:55Z</time>
      </trkpt>
      <trkpt lat="44.85256" lon="-0.42578">
        <ele>30.72</ele>
        <time>2019-06-02T15:13:02Z</time>
      </trkpt>
      <trkpt lat="44.8527" lon="-0.4259">
        <ele>30.74</ele>
        <time>2019-06-02T15:13:10Z</time>
      </trkpt>
      <trkpt lat="44.85282" lon="-0.42582">
        <ele>30.77</ele>
        <time>2019-06-02T15:13:19Z</time>
      </trkpt>
      <trkpt lat="44.85288" lon="-0.42566">
        <ele>31.59</ele>
        <time>2019-06-02T15:13:32Z</time>
      </trkpt>
      <trkpt lat="44.85288" lon="-0.42566">
        <ele>31.6</ele>
        <time>2019-06-02T15:13:33Z</time>
      </trkpt>
      <trkpt lat="44.85286" lon="-0.4256">
        <ele>31.59</ele>
        <time>2019-06-02T15:13:37Z</time>
      </trkpt>
      <trkpt lat="44.85286" lon="-0.42549">
        <ele>32.38</ele>
        <time>2019-06-02T15:13:47Z</time>
      </trkpt>
      <trkpt lat="44.85282" lon="-0.42531">
        <ele>30.48</ele>
        <time>2019-06-02T15:13:58Z</time>
      </trkpt>
      <trkpt lat="44.85281" lon="-0.42528">
        <ele>33.54</ele>
        <time>2019-06-02T15:13:59Z</time>
      </trkpt>
      <trkpt lat="44.85281" lon="-0.42525">
        <ele>33.6</ele>
        <time>2019-06-02T15:14:00Z</time>
      </trkpt>
      <trkpt lat="44.8528" lon="-0.42522">
        <ele>33.54</ele>
        <time>2019-06-02T15:14:01Z</time>
      </trkpt>
      <trkpt lat="44.8528" lon="-0.42516">
        <ele>33.53</ele>
        <time>2019-06-02T15:14:03Z</time>
      </trkpt>
      <trkpt lat="44.85277" lon="-0.4251">
        <ele>33.52</ele>
        <time>2019-06-02T15:14:06Z</time>
      </trkpt>
      <trkpt lat="44.85276" lon="-0.42503">
        <ele>33.51</ele>
        <time>2019-06-02T15:14:08Z</time>
      </trkpt>
      <trkpt lat="44.85278" lon="-0.42497">
        <ele>33.53</ele>
        <time>2019-06-02T15:14:11Z</time>
      </trkpt>
      <trkpt lat="44.85274" lon="-0.42489">
        <ele>33.49</ele>
        <time>2019-06-02T15:14:15Z</time>
      </trkpt>
      <trkpt lat="44.85258" lon="-0.42471">
        <ele>34.78</ele>
        <time>2019-06-02T15:14:26Z</time>
      </trkpt>
      <trkpt lat="44.85257" lon="-0.42469">
        <ele>34.78</ele>
        <time>2019-06-02T15:14:27Z</time>
      </trkpt>
      <trkpt lat="44.85255" lon="-0.42463">
        <ele>35.74</ele>
        <time>2019-06-02T15:14:30Z</time>
      </trkpt>
      <trkpt lat="44.85255" lon="-0.42456">
        <ele>36.5</ele>
        <time>2019-06-02T15:14:33Z</time>
      </trkpt>
      <trkpt lat="44.85254" lon="-0.42443">
        <ele>37.42</ele>
        <time>2019-06-02T15:14:50Z</time>
      </trkpt>
      <trkpt lat="44.85254" lon="-0.4244">
        <ele>37.3</ele>
        <time>2019-06-02T15:15:25Z</time>
      </trkpt>
      <trkpt lat="44.85256" lon="-0.42438">
        <ele>37.21</ele>
        <time>2019-06-02T15:16:07Z</time>
      </trkpt>
      <trkpt lat="44.85259" lon="-0.42436">
        <ele>37.19</ele>
        <time>2019-06-02T15:16:19Z</time>
      </trkpt>
      <trkpt lat="44.8527" lon="-0.42428">
        <ele>38.04</ele>
        <time>2019-06-02T15:16:28Z</time>
      </trkpt>
      <trkpt lat="44.85271" lon="-0.4241">
        <ele>39.71</ele>
        <time>2019-06-02T15:16:39Z</time>
      </trkpt>
      <trkpt lat="44.85267" lon="-0.42403">
        <ele>39.69</ele>
        <time>2019-06-02T15:16:44Z</time>
      </trkpt>
      <trkpt lat="44.85265" lon="-0.42395">
        <ele>40.41</ele>
        <time>2019-06-02T15:16:48Z</time>
      </trkpt>
      <trkpt lat="44.8526" lon="-0.42388">
        <ele>40.38</ele>
        <time>2019-06-02T15:16:53Z</time>
      </trkpt>
      <trkpt lat="44.8525" lon="-0.42385">
        <ele>40.3</ele>
        <time>2019-06-02T15:17:00Z</time>
      </trkpt>
      <trkpt lat="44.85246" lon="-0.42387">
        <ele>40.27</ele>
        <time>2019-06-02T15:17:03Z</time>
      </trkpt>
      <trkpt lat="44.85229" lon="-0.42387">
        <ele>40.19</ele>
        <time>2019-06-02T15:17:12Z</time>
      </trkpt>
      <trkpt lat="44.85225" lon="-0.42389">
        <ele>40.17</ele>
        <time>2019-06-02T15:17:15Z</time>
      </trkpt>
      <trkpt lat="44.85216" lon="-0.42391">
        <ele>40.14</ele>
        <time>2019-06-02T15:17:20Z</time>
      </trkpt>
      <trkpt lat="44.8521" lon="-0.42376">
        <ele>40.14</ele>
        <time>2019-06-02T15:17:30Z</time>
      </trkpt>
      <trkpt lat="44.85217" lon="-0.42359">
        <ele>40.24</ele>
        <time>2019-06-02T15:17:40Z</time>
      </trkpt>
      <trkpt lat="44.85219" lon="-0.42355">
        <ele>40.24</ele>
        <time>2019-06-02T15:17:42Z</time>
      </trkpt>
      <trkpt lat="44.85224" lon="-0.42347">
        <ele>41.07</ele>
        <time>2019-06-02T15:17:47Z</time>
      </trkpt>
      <trkpt lat="44.85234" lon="-0.42325">
        <ele>42.88</ele>
        <time>2019-06-02T15:17:57Z</time>
      </trkpt>
      <trkpt lat="44.85235" lon="-0.42318">
        <ele>42.83</ele>
        <time>2019-06-02T15:18:01Z</time>
      </trkpt>
      <trkpt lat="44.85237" lon="-0.4231">
        <ele>43.66</ele>
        <time>2019-06-02T15:18:05Z</time>
      </trkpt>
      <trkpt lat="44.85237" lon="-0.42283">
        <ele>44.24</ele>
        <time>2019-06-02T15:18:17Z</time>
      </trkpt>
      <trkpt lat="44.85235" lon="-0.42251">
        <ele>44.94</ele>
        <time>2019-06-02T15:18:29Z</time>
      </trkpt>
      <trkpt lat="44.85236" lon="-0.42244">
        <ele>44.92</ele>
        <time>2019-06-02T15:18:32Z</time>
      </trkpt>
      <trkpt lat="44.85232" lon="-0.42234">
        <ele>44.85</ele>
        <time>2019-06-02T15:18:39Z</time>
      </trkpt>
      <trkpt lat="44.85235" lon="-0.42225">
        <ele>45.5</ele>
        <time>2019-06-02T15:18:52Z</time>
      </trkpt>
      <trkpt lat="44.8524" lon="-0.4222">
        <ele>45.28</ele>
        <time>2019-06-02T15:19:29Z</time>
      </trkpt>
      <trkpt lat="44.85235" lon="-0.42216">
        <ele>46.32</ele>
        <time>2019-06-02T15:19:36Z</time>
      </trkpt>
      <trkpt lat="44.85232" lon="-0.42218">
        <ele>46.32</ele>
        <time>2019-06-02T15:19:38Z</time>
      </trkpt>
      <trkpt lat="44.85223" lon="-0.42225">
        <ele>46.24</ele>
        <time>2019-06-02T15:19:44Z</time>
      </trkpt>
      <trkpt lat="44.85223" lon="-0.42237">
        <ele>46.21</ele>
        <time>2019-06-02T15:19:49Z</time>
      </trkpt>
      <trkpt lat="44.8522" lon="-0.42247">
        <ele>43.79</ele>
        <time>2019-06-02T15:19:53Z</time>
      </trkpt>
      <trkpt lat="44.85209" lon="-0.42256">
        <ele>43.76</ele>
        <time>2019-06-02T15:19:57Z</time>
      </trkpt>
      <trkpt lat="44.85205" lon="-0.42271">
        <ele>42.88</ele>
        <time>2019-06-02T15:20:02Z</time>
      </trkpt>
      <trkpt lat="44.85197" lon="-0.42287">
        <ele>41.92</ele>
        <time>2019-06-02T15:20:08Z</time>
      </trkpt>
      <trkpt lat="44.85194" lon="-0.42295">
        <ele>41.87</ele>
        <time>2019-06-02T15:20:10Z</time>
      </trkpt>
      <trkpt lat="44.85183" lon="-0.42311">
        <ele>39.87</ele>
        <time>2019-06-02T15:20:16Z</time>
      </trkpt>
      <trkpt lat="44.85185" lon="-0.42324">
        <ele>39.89</ele>
        <time>2019-06-02T15:20:19Z</time>
      </trkpt>
      <trkpt lat="44.85172" lon="-0.42355">
        <ele>37.95</ele>
        <time>2019-06-02T15:20:28Z</time>
      </trkpt>
      <trkpt lat="44.85161" lon="-0.42357">
        <ele>36.37</ele>
        <time>2019-06-02T15:20:33Z</time>
      </trkpt>
      <trkpt lat="44.85159" lon="-0.42361">
        <ele>36.33</ele>
        <time>2019-06-02T15:20:34Z</time>
      </trkpt>
      <trkpt lat="44.85157" lon="-0.42364">
        <ele>35.4</ele>
        <time>2019-06-02T15:20:35Z</time>
      </trkpt>
      <trkpt lat="44.85154" lon="-0.42365">
        <ele>35.39</ele>
        <time>2019-06-02T15:20:36Z</time>
      </trkpt>
      <trkpt lat="44.8515" lon="-0.42366">
        <ele>35.36</ele>
        <time>2019-06-02T15:20:37Z</time>
      </trkpt>
      <trkpt lat="44.85148" lon="-0.42369">
        <ele>34.55</ele>
        <time>2019-06-02T15:20:38Z</time>
      </trkpt>
      <trkpt lat="44.85148" lon="-0.42371">
        <ele>34.54</ele>
        <time>2019-06-02T15:20:39Z</time>
      </trkpt>
      <trkpt lat="44.85148" lon="-0.42373">
        <ele>34.58</ele>
        <time>2019-06-02T15:20:40Z</time>
      </trkpt>
      <trkpt lat="44.85159" lon="-0.42395">
        <ele>30.41</ele>
        <time>2019-06-02T15:20:44Z</time>
      </trkpt>
      <trkpt lat="44.8516" lon="-0.42399">
        <ele>30.37</ele>
        <time>2019-06-02T15:20:45Z</time>
      </trkpt>
      <trkpt lat="44.85162" lon="-0.42405">
        <ele>30.41</ele>
        <time>2019-06-02T15:20:47Z</time>
      </trkpt>
      <trkpt lat="44.85182" lon="-0.42409">
        <ele>30.63</ele>
        <time>2019-06-02T15:21:01Z</time>
      </trkpt>
      <trkpt lat="44.85184" lon="-0.42409">
        <ele>33.02</ele>
        <time>2019-06-02T15:21:03Z</time>
      </trkpt>
      <trkpt lat="44.85186" lon="-0.42409">
        <ele>33.02</ele>
        <time>2019-06-02T15:21:04Z</time>
      </trkpt>
      <trkpt lat="44.8519" lon="-0.42409">
        <ele>33.91</ele>
        <time>2019-06-02T15:21:06Z</time>
      </trkpt>
      <trkpt lat="44.85198" lon="-0.42406">
        <ele>34.81</ele>
        <time>2019-06-02T15:21:12Z</time>
      </trkpt>
      <trkpt lat="44.85205" lon="-0.42407">
        <ele>34.75</ele>
        <time>2019-06-02T15:21:16Z</time>
      </trkpt>
      <trkpt lat="44.85218" lon="-0.42408">
        <ele>34.72</ele>
        <time>2019-06-02T15:21:22Z</time>
      </trkpt>
      <trkpt lat="44.85244" lon="-0.42412">
        <ele>34.65</ele>
        <time>2019-06-02T15:21:34Z</time>
      </trkpt>
      <trkpt lat="44.85248" lon="-0.4242">
        <ele>34.66</ele>
        <time>2019-06-02T15:21:38Z</time>
      </trkpt>
      <trkpt lat="44.85248" lon="-0.4243">
        <ele>34.64</ele>
        <time>2019-06-02T15:21:42Z</time>
      </trkpt>
      <trkpt lat="44.85249" lon="-0.42436">
        <ele>34.64</ele>
        <time>2019-06-02T15:21:48Z</time>
      </trkpt>
      <trkpt lat="44.85246" lon="-0.42438">
        <ele>34.63</ele>
        <time>2019-06-02T15:21:50Z</time>
      </trkpt>
      <trkpt lat="44.85237" lon="-0.42435">
        <ele>32.21</ele>
        <time>2019-06-02T15:21:54Z</time>
      </trkpt>
      <trkpt lat="44.85236" lon="-0.42436">
        <ele>32.22</ele>
        <time>2019-06-02T15:22:05Z</time>
      </trkpt>
      <trkpt lat="44.85233" lon="-0.42438">
        <ele>31.66</ele>
        <time>2019-06-02T15:22:47Z</time>
      </trkpt>
      <trkpt lat="44.85233" lon="-0.42439">
        <ele>31.88</ele>
        <time>2019-06-02T15:23:31Z</time>
      </trkpt>
      <trkpt lat="44.85233" lon="-0.42441">
        <ele>32.08</ele>
        <time>2019-06-02T15:24:07Z</time>
      </trkpt>
      <trkpt lat="44.85232" lon="-0.42441">
        <ele>32.26</ele>
        <time>2019-06-02T15:24:41Z</time>
      </trkpt>
      <trkpt lat="44.85232" lon="-0.4244">
        <ele>32.38</ele>
        <time>2019-06-02T15:25:11Z</time>
      </trkpt>
      <trkpt lat="44.85232" lon="-0.42442">
        <ele>32.51</ele>
        <time>2019-06-02T15:25:41Z</time>
      </trkpt>
      <trkpt lat="44.85224" lon="-0.42448">
        <ele>32.53</ele>
        <time>2019-06-02T15:25:47Z</time>
      </trkpt>
      <trkpt lat="44.85219" lon="-0.42451">
        <ele>32.54</ele>
        <time>2019-06-02T15:25:50Z</time>
      </trkpt>
      <trkpt lat="44.85197" lon="-0.42479">
        <ele>31.67</ele>
        <time>2019-06-02T15:26:02Z</time>
      </trkpt>
      <trkpt lat="44.85189" lon="-0.42485">
        <ele>30.64</ele>
        <time>2019-06-02T15:26:04Z</time>
      </trkpt>
      <trkpt lat="44.85173" lon="-0.42492">
        <ele>29.86</ele>
        <time>2019-06-02T15:26:08Z</time>
      </trkpt>
      <trkpt lat="44.85165" lon="-0.42471">
        <ele>30.01</ele>
        <time>2019-06-02T15:26:16Z</time>
      </trkpt>
      <trkpt lat="44.85157" lon="-0.4245">
        <ele>30.06</ele>
        <time>2019-06-02T15:26:23Z</time>
      </trkpt>
      <trkpt lat="44.85149" lon="-0.42444">
        <ele>30.07</ele>
        <time>2019-06-02T15:26:26Z</time>
      </trkpt>
      <trkpt lat="44.85131" lon="-0.42451">
        <ele>30.06</ele>
        <time>2019-06-02T15:26:32Z</time>
      </trkpt>
      <trkpt lat="44.85114" lon="-0.42455">
        <ele>27.91</ele>
        <time>2019-06-02T15:26:37Z</time>
      </trkpt>
      <trkpt lat="44.85097" lon="-0.42436">
        <ele>26.99</ele>
        <time>2019-06-02T15:26:42Z</time>
      </trkpt>
      <trkpt lat="44.85096" lon="-0.42431">
        <ele>26.98</ele>
        <time>2019-06-02T15:26:43Z</time>
      </trkpt>
      <trkpt lat="44.85096" lon="-0.42426">
        <ele>27</ele>
        <time>2019-06-02T15:26:44Z</time>
      </trkpt>
      <trkpt lat="44.85095" lon="-0.4242">
        <ele>26.99</ele>
        <time>2019-06-02T15:26:45Z</time>
      </trkpt>
      <trkpt lat="44.85095" lon="-0.42415">
        <ele>26.99</ele>
        <time>2019-06-02T15:26:46Z</time>
      </trkpt>
      <trkpt lat="44.85104" lon="-0.42375">
        <ele>29.49</ele>
        <time>2019-06-02T15:26:57Z</time>
      </trkpt>
      <trkpt lat="44.85109" lon="-0.4237">
        <ele>30.81</ele>
        <time>2019-06-02T15:27:00Z</time>
      </trkpt>
      <trkpt lat="44.8512" lon="-0.4236">
        <ele>34.5</ele>
        <time>2019-06-02T15:27:09Z</time>
      </trkpt>
      <trkpt lat="44.85142" lon="-0.42347">
        <ele>36.21</ele>
        <time>2019-06-02T15:27:22Z</time>
      </trkpt>
      <trkpt lat="44.85154" lon="-0.4232">
        <ele>39.86</ele>
        <time>2019-06-02T15:27:36Z</time>
      </trkpt>
      <trkpt lat="44.85156" lon="-0.42286">
        <ele>40.56</ele>
        <time>2019-06-02T15:27:49Z</time>
      </trkpt>
      <trkpt lat="44.85172" lon="-0.42265">
        <ele>42.07</ele>
        <time>2019-06-02T15:28:01Z</time>
      </trkpt>
      <trkpt lat="44.85192" lon="-0.42235">
        <ele>43.64</ele>
        <time>2019-06-02T15:28:17Z</time>
      </trkpt>
      <trkpt lat="44.85202" lon="-0.42231">
        <ele>43.63</ele>
        <time>2019-06-02T15:28:23Z</time>
      </trkpt>
      <trkpt lat="44.85209" lon="-0.42217">
        <ele>44.37</ele>
        <time>2019-06-02T15:28:30Z</time>
      </trkpt>
      <trkpt lat="44.85221" lon="-0.42181">
        <ele>47.04</ele>
        <time>2019-06-02T15:28:41Z</time>
      </trkpt>
      <trkpt lat="44.85224" lon="-0.42176">
        <ele>47.04</ele>
        <time>2019-06-02T15:28:42Z</time>
      </trkpt>
      <trkpt lat="44.8523" lon="-0.42151">
        <ele>46.99</ele>
        <time>2019-06-02T15:28:50Z</time>
      </trkpt>
      <trkpt lat="44.85228" lon="-0.42119">
        <ele>46.98</ele>
        <time>2019-06-02T15:29:01Z</time>
      </trkpt>
      <trkpt lat="44.85227" lon="-0.42088">
        <ele>47.01</ele>
        <time>2019-06-02T15:29:15Z</time>
      </trkpt>
      <trkpt lat="44.85226" lon="-0.42087">
        <ele>47.06</ele>
        <time>2019-06-02T15:29:49Z</time>
      </trkpt>
      <trkpt lat="44.85222" lon="-0.42086">
        <ele>47.2</ele>
        <time>2019-06-02T15:30:31Z</time>
      </trkpt>
      <trkpt lat="44.85221" lon="-0.42081">
        <ele>47.21</ele>
        <time>2019-06-02T15:30:41Z</time>
      </trkpt>
      <trkpt lat="44.85222" lon="-0.42079">
        <ele>47.21</ele>
        <time>2019-06-02T15:30:42Z</time>
      </trkpt>
      <trkpt lat="44.85223" lon="-0.42076">
        <ele>47.21</ele>
        <time>2019-06-02T15:30:43Z</time>
      </trkpt>
      <trkpt lat="44.85224" lon="-0.42075">
        <ele>47.23</ele>
        <time>2019-06-02T15:30:44Z</time>
      </trkpt>
      <trkpt lat="44.85225" lon="-0.42074">
        <ele>47.24</ele>
        <time>2019-06-02T15:30:45Z</time>
      </trkpt>
      <trkpt lat="44.85226" lon="-0.42072">
        <ele>47.26</ele>
        <time>2019-06-02T15:30:46Z</time>
      </trkpt>
      <trkpt lat="44.85226" lon="-0.4207">
        <ele>47.26</ele>
        <time>2019-06-02T15:30:47Z</time>
      </trkpt>
      <trkpt lat="44.85235" lon="-0.4206">
        <ele>48.63</ele>
        <time>2019-06-02T15:30:53Z</time>
      </trkpt>
      <trkpt lat="44.85235" lon="-0.42057">
        <ele>48.63</ele>
        <time>2019-06-02T15:30:54Z</time>
      </trkpt>
      <trkpt lat="44.85235" lon="-0.42045">
        <ele>48.64</ele>
        <time>2019-06-02T15:30:59Z</time>
      </trkpt>
      <trkpt lat="44.85236" lon="-0.42032">
        <ele>48.66</ele>
        <time>2019-06-02T15:31:04Z</time>
      </trkpt>
      <trkpt lat="44.85237" lon="-0.42018">
        <ele>48.64</ele>
        <time>2019-06-02T15:31:11Z</time>
      </trkpt>
      <trkpt lat="44.85234" lon="-0.41989">
        <ele>49.45</ele>
        <time>2019-06-02T15:31:25Z</time>
      </trkpt>
      <trkpt lat="44.85232" lon="-0.41977">
        <ele>49.49</ele>
        <time>2019-06-02T15:31:37Z</time>
      </trkpt>
      <trkpt lat="44.85226" lon="-0.41934">
        <ele>49.58</ele>
        <time>2019-06-02T15:31:51Z</time>
      </trkpt>
      <trkpt lat="44.85226" lon="-0.41924">
        <ele>49.58</ele>
        <time>2019-06-02T15:31:55Z</time>
      </trkpt>
      <trkpt lat="44.85224" lon="-0.41918">
        <ele>49.61</ele>
        <time>2019-06-02T15:31:58Z</time>
      </trkpt>
      <trkpt lat="44.85216" lon="-0.41869">
        <ele>49.65</ele>
        <time>2019-06-02T15:32:12Z</time>
      </trkpt>
      <trkpt lat="44.85208" lon="-0.41813">
        <ele>49.69</ele>
        <time>2019-06-02T15:32:26Z</time>
      </trkpt>
      <trkpt lat="44.85199" lon="-0.41744">
        <ele>49.77</ele>
        <time>2019-06-02T15:32:43Z</time>
      </trkpt>
      <trkpt lat="44.85192" lon="-0.41685">
        <ele>50.67</ele>
        <time>2019-06-02T15:32:57Z</time>
      </trkpt>
      <trkpt lat="44.85181" lon="-0.41604">
        <ele>52.36</ele>
        <time>2019-06-02T15:33:16Z</time>
      </trkpt>
      <trkpt lat="44.85163" lon="-0.41501">
        <ele>53.24</ele>
        <time>2019-06-02T15:33:37Z</time>
      </trkpt>
      <trkpt lat="44.85156" lon="-0.4145">
        <ele>50.88</ele>
        <time>2019-06-02T15:33:44Z</time>
      </trkpt>
      <trkpt lat="44.85155" lon="-0.41401">
        <ele>49.9</ele>
        <time>2019-06-02T15:33:50Z</time>
      </trkpt>
      <trkpt lat="44.85165" lon="-0.41268">
        <ele>50.06</ele>
        <time>2019-06-02T15:34:07Z</time>
      </trkpt>
      <trkpt lat="44.8515" lon="-0.41125">
        <ele>50.15</ele>
        <time>2019-06-02T15:34:27Z</time>
      </trkpt>
      <trkpt lat="44.85149" lon="-0.41117">
        <ele>50.15</ele>
        <time>2019-06-02T15:34:28Z</time>
      </trkpt>
      <trkpt lat="44.8515" lon="-0.41109">
        <ele>49.14</ele>
        <time>2019-06-02T15:34:29Z</time>
      </trkpt>
      <trkpt lat="44.8515" lon="-0.411">
        <ele>49.14</ele>
        <time>2019-06-02T15:34:30Z</time>
      </trkpt>
      <trkpt lat="44.85151" lon="-0.41092">
        <ele>49.13</ele>
        <time>2019-06-02T15:34:31Z</time>
      </trkpt>
      <trkpt lat="44.85152" lon="-0.41085">
        <ele>49.15</ele>
        <time>2019-06-02T15:34:32Z</time>
      </trkpt>
      <trkpt lat="44.85153" lon="-0.41073">
        <ele>48.39</ele>
        <time>2019-06-02T15:34:35Z</time>
      </trkpt>
      <trkpt lat="44.85151" lon="-0.41072">
        <ele>48.37</ele>
        <time>2019-06-02T15:34:36Z</time>
      </trkpt>
      <trkpt lat="44.85148" lon="-0.41071">
        <ele>48.39</ele>
        <time>2019-06-02T15:34:37Z</time>
      </trkpt>
      <trkpt lat="44.85145" lon="-0.41071">
        <ele>48.39</ele>
        <time>2019-06-02T15:34:38Z</time>
      </trkpt>
      <trkpt lat="44.85143" lon="-0.4107">
        <ele>48.39</ele>
        <time>2019-06-02T15:34:39Z</time>
      </trkpt>
      <trkpt lat="44.85142" lon="-0.41068">
        <ele>48.41</ele>
        <time>2019-06-02T15:34:40Z</time>
      </trkpt>
      <trkpt lat="44.85142" lon="-0.4106">
        <ele>48.42</ele>
        <time>2019-06-02T15:34:43Z</time>
      </trkpt>
      <trkpt lat="44.85143" lon="-0.41057">
        <ele>48.43</ele>
        <time>2019-06-02T15:34:44Z</time>
      </trkpt>
      <trkpt lat="44.85145" lon="-0.41054">
        <ele>48.44</ele>
        <time>2019-06-02T15:34:45Z</time>
      </trkpt>
      <trkpt lat="44.85148" lon="-0.41051">
        <ele>48.44</ele>
        <time>2019-06-02T15:34:46Z</time>
      </trkpt>
      <trkpt lat="44.8515" lon="-0.41049">
        <ele>48.45</ele>
        <time>2019-06-02T15:34:47Z</time>
      </trkpt>
      <trkpt lat="44.85152" lon="-0.41048">
        <ele>48.45</ele>
        <time>2019-06-02T15:34:48Z</time>
      </trkpt>
      <trkpt lat="44.85154" lon="-0.41045">
        <ele>48.45</ele>
        <time>2019-06-02T15:34:49Z</time>
      </trkpt>
      <trkpt lat="44.85154" lon="-0.41042">
        <ele>48.45</ele>
        <time>2019-06-02T15:34:50Z</time>
      </trkpt>
      <trkpt lat="44.85155" lon="-0.41038">
        <ele>48.45</ele>
        <time>2019-06-02T15:34:51Z</time>
      </trkpt>
      <trkpt lat="44.85153" lon="-0.41016">
        <ele>48.43</ele>
        <time>2019-06-02T15:34:58Z</time>
      </trkpt>
      <trkpt lat="44.85159" lon="-0.41002">
        <ele>47.64</ele>
        <time>2019-06-02T15:35:01Z</time>
      </trkpt>
      <trkpt lat="44.85162" lon="-0.40997">
        <ele>47.62</ele>
        <time>2019-06-02T15:35:02Z</time>
      </trkpt>
      <trkpt lat="44.85172" lon="-0.40966">
        <ele>45.03</ele>
        <time>2019-06-02T15:35:06Z</time>
      </trkpt>
      <trkpt lat="44.85182" lon="-0.4093">
        <ele>42.35</ele>
        <time>2019-06-02T15:35:10Z</time>
      </trkpt>
      <trkpt lat="44.8519" lon="-0.40892">
        <ele>41.52</ele>
        <time>2019-06-02T15:35:14Z</time>
      </trkpt>
      <trkpt lat="44.85192" lon="-0.40883">
        <ele>40.73</ele>
        <time>2019-06-02T15:35:15Z</time>
      </trkpt>
      <trkpt lat="44.85193" lon="-0.40874">
        <ele>40.7</ele>
        <time>2019-06-02T15:35:16Z</time>
      </trkpt>
      <trkpt lat="44.85194" lon="-0.40865">
        <ele>40.78</ele>
        <time>2019-06-02T15:35:17Z</time>
      </trkpt>
      <trkpt lat="44.85195" lon="-0.40856">
        <ele>40.74</ele>
        <time>2019-06-02T15:35:18Z</time>
      </trkpt>
      <trkpt lat="44.85195" lon="-0.40849">
        <ele>40.73</ele>
        <time>2019-06-02T15:35:19Z</time>
      </trkpt>
      <trkpt lat="44.85192" lon="-0.40845">
        <ele>40.77</ele>
        <time>2019-06-02T15:35:20Z</time>
      </trkpt>
      <trkpt lat="44.85174" lon="-0.40847">
        <ele>40.87</ele>
        <time>2019-06-02T15:35:25Z</time>
      </trkpt>
      <trkpt lat="44.85115" lon="-0.40877">
        <ele>41.05</ele>
        <time>2019-06-02T15:35:46Z</time>
      </trkpt>
      <trkpt lat="44.85104" lon="-0.40883">
        <ele>43.36</ele>
        <time>2019-06-02T15:35:50Z</time>
      </trkpt>
      <trkpt lat="44.85043" lon="-0.40913">
        <ele>44.23</ele>
        <time>2019-06-02T15:36:12Z</time>
      </trkpt>
      <trkpt lat="44.84984" lon="-0.40944">
        <ele>45.85</ele>
        <time>2019-06-02T15:36:33Z</time>
      </trkpt>
      <trkpt lat="44.84937" lon="-0.40967">
        <ele>47.66</ele>
        <time>2019-06-02T15:36:51Z</time>
      </trkpt>
      <trkpt lat="44.84902" lon="-0.40981">
        <ele>48.54</ele>
        <time>2019-06-02T15:37:05Z</time>
      </trkpt>
      <trkpt lat="44.84907" lon="-0.40971">
        <ele>49.42</ele>
        <time>2019-06-02T15:37:12Z</time>
      </trkpt>
      <trkpt lat="44.8493" lon="-0.40953">
        <ele>49.44</ele>
        <time>2019-06-02T15:37:24Z</time>
      </trkpt>
      <trkpt lat="44.84929" lon="-0.40942">
        <ele>49.42</ele>
        <time>2019-06-02T15:37:28Z</time>
      </trkpt>
      <trkpt lat="44.84907" lon="-0.40895">
        <ele>49.52</ele>
        <time>2019-06-02T15:37:46Z</time>
      </trkpt>
      <trkpt lat="44.84891" lon="-0.40854">
        <ele>50.37</ele>
        <time>2019-06-02T15:38:00Z</time>
      </trkpt>
      <trkpt lat="44.84871" lon="-0.40812">
        <ele>52.05</ele>
        <time>2019-06-02T15:38:14Z</time>
      </trkpt>
      <trkpt lat="44.8485" lon="-0.40767">
        <ele>52.05</ele>
        <time>2019-06-02T15:38:23Z</time>
      </trkpt>
      <trkpt lat="44.84836" lon="-0.40733">
        <ele>49.46</ele>
        <time>2019-06-02T15:38:28Z</time>
      </trkpt>
      <trkpt lat="44.84805" lon="-0.40657">
        <ele>45.52</ele>
        <time>2019-06-02T15:38:37Z</time>
      </trkpt>
      <trkpt lat="44.84791" lon="-0.40622">
        <ele>44.37</ele>
        <time>2019-06-02T15:38:41Z</time>
      </trkpt>
      <trkpt lat="44.84782" lon="-0.40617">
        <ele>43.42</ele>
        <time>2019-06-02T15:38:44Z</time>
      </trkpt>
      <trkpt lat="44.84779" lon="-0.40621">
        <ele>43.39</ele>
        <time>2019-06-02T15:38:45Z</time>
      </trkpt>
      <trkpt lat="44.84777" lon="-0.40625">
        <ele>43.43</ele>
        <time>2019-06-02T15:38:46Z</time>
      </trkpt>
      <trkpt lat="44.84774" lon="-0.40629">
        <ele>43.46</ele>
        <time>2019-06-02T15:38:47Z</time>
      </trkpt>
      <trkpt lat="44.84767" lon="-0.40646">
        <ele>43.49</ele>
        <time>2019-06-02T15:38:51Z</time>
      </trkpt>
      <trkpt lat="44.84767" lon="-0.40651">
        <ele>43.51</ele>
        <time>2019-06-02T15:38:52Z</time>
      </trkpt>
      <trkpt lat="44.84768" lon="-0.40656">
        <ele>43.55</ele>
        <time>2019-06-02T15:38:53Z</time>
      </trkpt>
      <trkpt lat="44.8477" lon="-0.40661">
        <ele>43.56</ele>
        <time>2019-06-02T15:38:54Z</time>
      </trkpt>
      <trkpt lat="44.84771" lon="-0.40665">
        <ele>43.59</ele>
        <time>2019-06-02T15:38:55Z</time>
      </trkpt>
      <trkpt lat="44.84772" lon="-0.40678">
        <ele>43.61</ele>
        <time>2019-06-02T15:38:58Z</time>
      </trkpt>
      <trkpt lat="44.84771" lon="-0.40682">
        <ele>43.63</ele>
        <time>2019-06-02T15:38:59Z</time>
      </trkpt>
      <trkpt lat="44.84769" lon="-0.40685">
        <ele>43.65</ele>
        <time>2019-06-02T15:39:00Z</time>
      </trkpt>
      <trkpt lat="44.84766" lon="-0.40687">
        <ele>43.68</ele>
        <time>2019-06-02T15:39:01Z</time>
      </trkpt>
      <trkpt lat="44.84764" lon="-0.4069">
        <ele>43.68</ele>
        <time>2019-06-02T15:39:02Z</time>
      </trkpt>
      <trkpt lat="44.84761" lon="-0.40693">
        <ele>43.7</ele>
        <time>2019-06-02T15:39:03Z</time>
      </trkpt>
      <trkpt lat="44.84751" lon="-0.40702">
        <ele>46.05</ele>
        <time>2019-06-02T15:39:07Z</time>
      </trkpt>
      <trkpt lat="44.84696" lon="-0.40749">
        <ele>46.97</ele>
        <time>2019-06-02T15:39:25Z</time>
      </trkpt>
      <trkpt lat="44.8467" lon="-0.40773">
        <ele>46.99</ele>
        <time>2019-06-02T15:39:32Z</time>
      </trkpt>
      <trkpt lat="44.84662" lon="-0.40778">
        <ele>47</ele>
        <time>2019-06-02T15:39:34Z</time>
      </trkpt>
      <trkpt lat="44.84657" lon="-0.40779">
        <ele>47.01</ele>
        <time>2019-06-02T15:39:35Z</time>
      </trkpt>
      <trkpt lat="44.84653" lon="-0.4078">
        <ele>47.02</ele>
        <time>2019-06-02T15:39:36Z</time>
      </trkpt>
      <trkpt lat="44.84648" lon="-0.40781">
        <ele>47.02</ele>
        <time>2019-06-02T15:39:37Z</time>
      </trkpt>
      <trkpt lat="44.84644" lon="-0.40782">
        <ele>47.03</ele>
        <time>2019-06-02T15:39:38Z</time>
      </trkpt>
      <trkpt lat="44.84599" lon="-0.4079">
        <ele>47.88</ele>
        <time>2019-06-02T15:39:51Z</time>
      </trkpt>
      <trkpt lat="44.84552" lon="-0.40797">
        <ele>50.54</ele>
        <time>2019-06-02T15:40:07Z</time>
      </trkpt>
      <trkpt lat="44.8451" lon="-0.40804">
        <ele>54.01</ele>
        <time>2019-06-02T15:40:21Z</time>
      </trkpt>
      <trkpt lat="44.84496" lon="-0.40796">
        <ele>54.02</ele>
        <time>2019-06-02T15:40:26Z</time>
      </trkpt>
      <trkpt lat="44.84495" lon="-0.40792">
        <ele>54.02</ele>
        <time>2019-06-02T15:40:27Z</time>
      </trkpt>
      <trkpt lat="44.84494" lon="-0.40788">
        <ele>54</ele>
        <time>2019-06-02T15:40:28Z</time>
      </trkpt>
      <trkpt lat="44.84494" lon="-0.40783">
        <ele>54</ele>
        <time>2019-06-02T15:40:29Z</time>
      </trkpt>
      <trkpt lat="44.84494" lon="-0.40778">
        <ele>53.99</ele>
        <time>2019-06-02T15:40:30Z</time>
      </trkpt>
      <trkpt lat="44.84494" lon="-0.40773">
        <ele>54</ele>
        <time>2019-06-02T15:40:31Z</time>
      </trkpt>
      <trkpt lat="44.8449" lon="-0.40713">
        <ele>53.96</ele>
        <time>2019-06-02T15:40:41Z</time>
      </trkpt>
      <trkpt lat="44.8449" lon="-0.40707">
        <ele>51.58</ele>
        <time>2019-06-02T15:40:42Z</time>
      </trkpt>
      <trkpt lat="44.8449" lon="-0.407">
        <ele>51.58</ele>
        <time>2019-06-02T15:40:43Z</time>
      </trkpt>
      <trkpt lat="44.84489" lon="-0.40692">
        <ele>50.49</ele>
        <time>2019-06-02T15:40:44Z</time>
      </trkpt>
      <trkpt lat="44.84489" lon="-0.40685">
        <ele>50.48</ele>
        <time>2019-06-02T15:40:45Z</time>
      </trkpt>
      <trkpt lat="44.8449" lon="-0.40676">
        <ele>50.5</ele>
        <time>2019-06-02T15:40:46Z</time>
      </trkpt>
      <trkpt lat="44.84491" lon="-0.40658">
        <ele>49.13</ele>
        <time>2019-06-02T15:40:48Z</time>
      </trkpt>
      <trkpt lat="44.84493" lon="-0.4064">
        <ele>47.59</ele>
        <time>2019-06-02T15:40:50Z</time>
      </trkpt>
      <trkpt lat="44.84495" lon="-0.40621">
        <ele>46.32</ele>
        <time>2019-06-02T15:40:52Z</time>
      </trkpt>
      <trkpt lat="44.84496" lon="-0.40611">
        <ele>45.27</ele>
        <time>2019-06-02T15:40:53Z</time>
      </trkpt>
      <trkpt lat="44.84508" lon="-0.40586">
        <ele>44.2</ele>
        <time>2019-06-02T15:40:57Z</time>
      </trkpt>
      <trkpt lat="44.84521" lon="-0.40568">
        <ele>42.1</ele>
        <time>2019-06-02T15:41:00Z</time>
      </trkpt>
      <trkpt lat="44.84526" lon="-0.4055">
        <ele>40.94</ele>
        <time>2019-06-02T15:41:02Z</time>
      </trkpt>
      <trkpt lat="44.84529" lon="-0.40532">
        <ele>39.85</ele>
        <time>2019-06-02T15:41:04Z</time>
      </trkpt>
      <trkpt lat="44.84539" lon="-0.4051">
        <ele>39.9</ele>
        <time>2019-06-02T15:41:11Z</time>
      </trkpt>
      <trkpt lat="44.84555" lon="-0.40507">
        <ele>39.86</ele>
        <time>2019-06-02T15:41:15Z</time>
      </trkpt>
      <trkpt lat="44.84586" lon="-0.40479">
        <ele>42.24</ele>
        <time>2019-06-02T15:41:24Z</time>
      </trkpt>
      <trkpt lat="44.84587" lon="-0.40475">
        <ele>42.26</ele>
        <time>2019-06-02T15:41:25Z</time>
      </trkpt>
      <trkpt lat="44.84594" lon="-0.4046">
        <ele>44.46</ele>
        <time>2019-06-02T15:41:30Z</time>
      </trkpt>
      <trkpt lat="44.84606" lon="-0.40428">
        <ele>47.88</ele>
        <time>2019-06-02T15:41:40Z</time>
      </trkpt>
      <trkpt lat="44.84616" lon="-0.40401">
        <ele>48.52</ele>
        <time>2019-06-02T15:41:53Z</time>
      </trkpt>
      <trkpt lat="44.84622" lon="-0.40387">
        <ele>48.9</ele>
        <time>2019-06-02T15:42:08Z</time>
      </trkpt>
      <trkpt lat="44.84622" lon="-0.40373">
        <ele>48.32</ele>
        <time>2019-06-02T15:42:44Z</time>
      </trkpt>
      <trkpt lat="44.84621" lon="-0.40365">
        <ele>48.03</ele>
        <time>2019-06-02T15:43:19Z</time>
      </trkpt>
      <trkpt lat="44.84623" lon="-0.4035">
        <ele>47.98</ele>
        <time>2019-06-02T15:43:28Z</time>
      </trkpt>
      <trkpt lat="44.84628" lon="-0.4033">
        <ele>45.44</ele>
        <time>2019-06-02T15:43:31Z</time>
      </trkpt>
      <trkpt lat="44.84629" lon="-0.40323">
        <ele>41.73</ele>
        <time>2019-06-02T15:43:32Z</time>
      </trkpt>
      <trkpt lat="44.8463" lon="-0.40316">
        <ele>41.74</ele>
        <time>2019-06-02T15:43:33Z</time>
      </trkpt>
      <trkpt lat="44.84631" lon="-0.40308">
        <ele>44.65</ele>
        <time>2019-06-02T15:43:34Z</time>
      </trkpt>
      <trkpt lat="44.84636" lon="-0.40228">
        <ele>44.68</ele>
        <time>2019-06-02T15:43:47Z</time>
      </trkpt>
      <trkpt lat="44.84627" lon="-0.40177">
        <ele>46.41</ele>
        <time>2019-06-02T15:43:57Z</time>
      </trkpt>
      <trkpt lat="44.84619" lon="-0.40157">
        <ele>46.43</ele>
        <time>2019-06-02T15:44:01Z</time>
      </trkpt>
      <trkpt lat="44.84617" lon="-0.40153">
        <ele>46.42</ele>
        <time>2019-06-02T15:44:02Z</time>
      </trkpt>
      <trkpt lat="44.84595" lon="-0.40082">
        <ele>47.41</ele>
        <time>2019-06-02T15:44:18Z</time>
      </trkpt>
      <trkpt lat="44.84588" lon="-0.40063">
        <ele>47.45</ele>
        <time>2019-06-02T15:44:22Z</time>
      </trkpt>
      <trkpt lat="44.84584" lon="-0.40061">
        <ele>47.46</ele>
        <time>2019-06-02T15:44:23Z</time>
      </trkpt>
      <trkpt lat="44.8458" lon="-0.40062">
        <ele>47.46</ele>
        <time>2019-06-02T15:44:24Z</time>
      </trkpt>
      <trkpt lat="44.84577" lon="-0.40064">
        <ele>47.48</ele>
        <time>2019-06-02T15:44:25Z</time>
      </trkpt>
      <trkpt lat="44.84573" lon="-0.40066">
        <ele>47.49</ele>
        <time>2019-06-02T15:44:26Z</time>
      </trkpt>
      <trkpt lat="44.8457" lon="-0.40067">
        <ele>47.49</ele>
        <time>2019-06-02T15:44:27Z</time>
      </trkpt>
      <trkpt lat="44.84566" lon="-0.40068">
        <ele>48.53</ele>
        <time>2019-06-02T15:44:28Z</time>
      </trkpt>
      <trkpt lat="44.84563" lon="-0.40069">
        <ele>48.54</ele>
        <time>2019-06-02T15:44:29Z</time>
      </trkpt>
      <trkpt lat="44.84559" lon="-0.4007">
        <ele>48.54</ele>
        <time>2019-06-02T15:44:30Z</time>
      </trkpt>
      <trkpt lat="44.84499" lon="-0.40091">
        <ele>50.21</ele>
        <time>2019-06-02T15:44:47Z</time>
      </trkpt>
      <trkpt lat="44.84461" lon="-0.4009">
        <ele>51.04</ele>
        <time>2019-06-02T15:44:58Z</time>
      </trkpt>
      <trkpt lat="44.8444" lon="-0.4009">
        <ele>51.88</ele>
        <time>2019-06-02T15:45:09Z</time>
      </trkpt>
      <trkpt lat="44.84399" lon="-0.40089">
        <ele>51.95</ele>
        <time>2019-06-02T15:45:23Z</time>
      </trkpt>
      <trkpt lat="44.84347" lon="-0.40084">
        <ele>52.02</ele>
        <time>2019-06-02T15:45:38Z</time>
      </trkpt>
      <trkpt lat="44.84337" lon="-0.4004">
        <ele>52.06</ele>
        <time>2019-06-02T15:45:48Z</time>
      </trkpt>
      <trkpt lat="44.84335" lon="-0.39985">
        <ele>53.03</ele>
        <time>2019-06-02T15:46:00Z</time>
      </trkpt>
      <trkpt lat="44.84337" lon="-0.39972">
        <ele>50.73</ele>
        <time>2019-06-02T15:46:02Z</time>
      </trkpt>
      <trkpt lat="44.84337" lon="-0.39964">
        <ele>50.73</ele>
        <time>2019-06-02T15:46:03Z</time>
      </trkpt>
      <trkpt lat="44.84338" lon="-0.39927">
        <ele>46.89</ele>
        <time>2019-06-02T15:46:07Z</time>
      </trkpt>
      <trkpt lat="44.8434" lon="-0.39882">
        <ele>44.17</ele>
        <time>2019-06-02T15:46:11Z</time>
      </trkpt>
      <trkpt lat="44.84341" lon="-0.39797">
        <ele>42.36</ele>
        <time>2019-06-02T15:46:20Z</time>
      </trkpt>
      <trkpt lat="44.8434" lon="-0.3979">
        <ele>41.45</ele>
        <time>2019-06-02T15:46:21Z</time>
      </trkpt>
      <trkpt lat="44.84338" lon="-0.39783">
        <ele>41.46</ele>
        <time>2019-06-02T15:46:22Z</time>
      </trkpt>
      <trkpt lat="44.84336" lon="-0.39777">
        <ele>41.48</ele>
        <time>2019-06-02T15:46:23Z</time>
      </trkpt>
      <trkpt lat="44.84335" lon="-0.3977">
        <ele>40.11</ele>
        <time>2019-06-02T15:46:24Z</time>
      </trkpt>
      <trkpt lat="44.84334" lon="-0.39762">
        <ele>40.15</ele>
        <time>2019-06-02T15:46:25Z</time>
      </trkpt>
      <trkpt lat="44.84332" lon="-0.39755">
        <ele>39.12</ele>
        <time>2019-06-02T15:46:26Z</time>
      </trkpt>
      <trkpt lat="44.8433" lon="-0.39748">
        <ele>39.13</ele>
        <time>2019-06-02T15:46:27Z</time>
      </trkpt>
      <trkpt lat="44.84318" lon="-0.39726">
        <ele>39.13</ele>
        <time>2019-06-02T15:46:31Z</time>
      </trkpt>
      <trkpt lat="44.84311" lon="-0.39711">
        <ele>39.19</ele>
        <time>2019-06-02T15:46:34Z</time>
      </trkpt>
      <trkpt lat="44.84309" lon="-0.39693">
        <ele>39.24</ele>
        <time>2019-06-02T15:46:42Z</time>
      </trkpt>
      <trkpt lat="44.84308" lon="-0.39688">
        <ele>39.24</ele>
        <time>2019-06-02T15:46:50Z</time>
      </trkpt>
      <trkpt lat="44.84308" lon="-0.39663">
        <ele>39.22</ele>
        <time>2019-06-02T15:46:56Z</time>
      </trkpt>
      <trkpt lat="44.84301" lon="-0.39584">
        <ele>41.74</ele>
        <time>2019-06-02T15:47:10Z</time>
      </trkpt>
      <trkpt lat="44.84297" lon="-0.39511">
        <ele>45.17</ele>
        <time>2019-06-02T15:47:24Z</time>
      </trkpt>
      <trkpt lat="44.84288" lon="-0.39439">
        <ele>48.82</ele>
        <time>2019-06-02T15:47:38Z</time>
      </trkpt>
      <trkpt lat="44.84278" lon="-0.39391">
        <ele>51.65</ele>
        <time>2019-06-02T15:47:53Z</time>
      </trkpt>
      <trkpt lat="44.84263" lon="-0.39393">
        <ele>51.68</ele>
        <time>2019-06-02T15:48:05Z</time>
      </trkpt>
      <trkpt lat="44.84263" lon="-0.39394">
        <ele>23.79</ele>
        <time>2019-06-02T15:48:32Z</time>
      </trkpt>
    </trkseg>
  </trk>
</gpx>